GFSSGP_sfc_thetae_000.txt.gz
Theta_e
319 315 312 308 296 292 288 290 294 292 295 295 297 297 297 298 299 293 309 320 324 328 333 340 347 349 350 351 350 350 349 349 347 348 346 345 344 343 341 342 344 346 346 344 342 339 338 337 336
313 313 309 300 293 285 286 291 293 294 294 296 296 296 296 297 302 306 311 321 325 329 331 334 344 348 349 350 350 350 350 348 347 345 343 341 342 341 340 338 339 340 342 340 336 333 330 329 329
311 309 304 295 288 285 288 291 292 294 295 295 294 296 299 297 302 306 314 321 324 326 329 331 342 345 346 348 348 348 349 347 344 341 340 339 338 336 335 335 336 337 336 332 330 328 326 325 325
308 303 298 293 289 293 292 294 291 293 294 295 294 294 296 300 303 306 314 321 322 323 326 333 341 342 343 344 345 344 345 341 339 337 338 337 335 333 331 329 331 331 329 327 325 323 323 322 322
302 298 290 288 288 292 293 295 293 292 295 293 294 295 295 298 302 307 316 321 320 319 322 328 339 340 340 340 342 342 341 340 338 337 336 335 331 328 326 325 326 325 324 323 322 322 322 322 320
297 295 289 285 287 292 294 294 293 292 292 292 295 294 295 297 302 306 316 316 317 318 320 324 333 337 338 339 341 340 339 339 337 335 333 329 326 325 324 323 323 322 322 321 321 320 319 318 317
296 293 288 286 288 291 294 293 291 292 294 294 294 294 296 297 300 308 313 312 314 316 318 320 324 328 332 335 336 337 338 336 334 332 329 325 324 323 321 321 322 321 321 320 317 317 316 316 314
298 295 287 287 287 290 294 292 292 293 294 294 296 294 295 298 302 307 309 309 311 313 315 316 317 319 320 322 329 331 332 332 330 328 326 324 322 322 321 321 321 321 320 317 315 314 313 312 311
296 289 285 288 288 291 293 293 297 294 294 293 297 295 296 296 303 305 303 305 307 311 312 312 313 314 314 314 318 324 327 326 325 323 320 312 304 305 306 311 320 318 317 315 313 310 309 307 307
296 287 289 291 291 292 293 293 294 296 293 292 294 295 294 295 300 303 303 306 307 309 311 311 310 310 309 312 312 312 314 313 310 308 304 300 298 299 303 309 316 316 315 312 310 307 303 296 291
294 292 292 295 296 296 295 293 294 292 293 294 295 296 295 294 296 303 305 308 309 312 312 310 309 307 306 307 307 306 306 305 303 301 298 295 294 298 298 297 295 295 298 293 294 291 290 290 290
293 296 296 296 297 295 295 295 293 294 300 299 297 297 294 294 295 299 303 305 307 307 310 310 308 306 304 303 305 303 303 300 299 297 295 291 292 293 293 290 289 288 288 288 288 288 288 288 289
293 295 298 298 296 297 296 297 295 293 298 298 297 295 295 294 295 297 300 302 303 304 308 308 307 307 305 302 302 301 300 300 297 294 294 291 292 290 290 288 287 287 287 287 286 287 287 287 287
293 294 295 295 296 296 296 298 295 297 296 297 295 295 294 293 295 294 294 297 297 301 305 307 306 307 305 303 302 303 300 297 294 292 293 291 291 290 289 288 287 286 286 286 286 286 285 285 286
294 292 292 292 293 293 294 292 291 299 295 296 295 294 294 294 294 295 298 297 298 298 298 303 305 305 304 303 301 301 299 295 294 293 291 291 291 289 289 288 286 285 285 286 285 285 284 284 285
288 288 285 289 291 292 293 286 295 294 291 293 294 294 294 296 295 296 298 298 298 298 295 297 303 303 303 303 300 299 296 295 294 292 291 291 290 289 288 287 285 285 285 284 284 283 283 283 283
284 282 283 287 292 291 290 287 293 292 292 293 293 295 295 298 298 296 297 298 297 297 297 294 297 300 301 301 298 296 294 294 293 291 291 290 290 289 288 287 285 285 284 283 283 282 282 282 282
282 281 283 283 289 287 287 288 293 295 293 293 294 296 297 298 299 302 298 295 296 296 297 295 294 297 298 298 294 290 290 291 289 290 290 289 290 288 287 286 285 284 283 283 282 282 282 282 281
283 283 283 286 290 286 289 290 292 293 293 295 296 296 296 298 300 300 297 295 294 292 293 293 291 294 295 294 291 290 291 290 290 290 290 289 289 288 287 286 284 284 283 282 282 282 281 281 281
285 285 286 289 291 286 287 288 292 293 294 295 295 296 296 297 298 299 294 292 292 293 292 292 291 292 294 294 294 291 293 290 291 289 287 288 287 287 287 286 284 284 282 282 281 282 281 281 280
284 283 286 285 286 286 284 285 286 290 290 293 294 296 294 294 296 298 292 292 291 290 290 292 291 291 293 293 291 285 284 284 284 284 286 285 287 286 286 285 285 283 283 282 281 281 281 280 280
285 288 288 286 282 280 284 280 283 288 289 290 292 291 292 293 293 293 292 291 292 292 291 291 290 290 292 292 290 289 289 288 289 290 289 287 286 286 285 285 284 283 282 281 281 281 280 281 279
287 288 286 283 281 280 280 278 283 284 286 289 291 292 291 292 292 292 292 292 292 291 289 289 289 289 291 291 291 290 290 290 285 286 287 286 284 285 284 284 283 282 282 281 281 280 280 280 280
287 285 283 281 281 276 282 280 286 283 285 287 291 295 292 292 292 292 291 290 290 288 287 287 287 288 289 290 290 290 290 284 285 283 285 284 283 283 283 283 283 283 282 281 281 280 280 280 279
285 282 276 274 273 276 280 278 286 289 292 290 290 291 291 291 290 290 291 290 289 286 285 285 286 286 287 288 288 289 289 286 286 285 286 284 283 283 283 283 282 281 282 281 281 280 280 279 279
283 284 278 274 272 280 278 278 288 291 291 291 289 290 289 290 290 290 291 289 288 287 285 286 286 285 285 287 287 287 287 287 287 285 286 285 285 285 283 282 282 281 281 280 280 280 279 279 279
282 281 286 281 283 277 283 284 289 293 288 287 287 288 289 291 290 291 291 289 288 287 286 285 285 286 285 286 286 286 286 286 285 283 284 284 285 284 282 282 281 280 280 280 280 280 279 279 278
285 286 280 279 275 274 279 281 284 289 292 290 289 288 292 291 290 290 292 291 289 287 286 285 285 285 285 285 287 287 287 287 286 284 284 283 284 282 281 281 281 280 280 280 280 279 278 278 278
284 282 282 282 282 278 277 282 290 292 293 288 289 291 291 288 288 289 290 291 291 290 288 286 285 285 284 284 285 285 284 285 285 284 284 284 283 282 281 281 281 280 280 280 280 279 278 278 277
286 287 286 281 280 281 281 281 292 291 292 289 285 286 287 287 286 288 288 289 289 290 292 291 288 286 286 285 285 284 285 284 283 284 284 283 282 281 281 281 280 280 280 280 279 278 278 277 277

GFSSGP_sfc_thetae_003.txt.gz
Theta_e
320 317 316 312 300 297 293 295 298 298 299 302 301 302 302 302 302 299 314 324 328 329 338 347 348 350 351 352 351 351 349 348 349 349 347 347 346 346 345 346 347 348 348 346 344 341 339 338 337
316 316 312 304 296 290 290 296 297 299 301 302 302 303 302 302 306 310 318 322 328 332 340 345 346 349 351 352 351 350 349 350 349 349 348 347 345 344 342 339 341 345 344 342 338 334 333 331 331
314 311 306 299 292 289 291 296 298 299 300 301 301 303 303 304 307 311 319 326 329 334 339 341 346 349 350 351 351 350 351 351 349 347 345 342 340 339 337 336 338 339 340 336 333 330 328 328 326
310 306 301 297 293 296 295 299 297 299 300 300 301 300 302 306 309 312 319 326 330 332 335 339 345 347 348 350 350 349 350 350 346 343 341 339 338 335 334 333 337 336 334 331 328 326 325 325 324
304 301 293 292 292 295 297 299 299 298 299 299 300 300 300 306 307 312 322 326 329 330 333 338 342 345 346 347 349 347 347 344 342 339 338 339 336 333 331 330 332 330 328 326 325 325 325 322 321
300 299 292 289 290 294 296 298 298 297 298 299 298 299 301 305 306 311 321 325 327 328 329 334 336 339 341 341 345 345 345 344 342 338 336 336 333 330 328 328 327 326 325 324 324 322 321 320 318
299 296 291 290 291 294 297 297 297 298 298 299 300 299 302 302 305 312 321 322 324 326 326 330 334 335 334 337 339 341 343 342 340 338 335 333 329 327 326 325 325 325 324 323 321 320 319 318 316
300 298 293 291 291 293 298 296 297 298 299 299 301 299 300 305 307 314 317 319 320 322 324 326 329 331 333 335 332 334 337 338 337 335 332 327 327 326 326 325 325 324 324 320 319 318 317 315 312
300 292 288 291 291 294 297 296 297 298 298 298 300 300 302 301 309 311 314 315 316 317 320 322 325 326 327 328 329 330 331 331 330 328 324 321 318 319 318 318 325 323 321 318 316 315 312 310 308
298 291 291 293 293 295 297 296 298 298 297 296 298 299 299 301 306 309 310 313 314 317 318 319 321 322 321 321 325 327 326 327 323 320 316 312 311 311 311 315 320 322 319 315 313 309 304 298 297
297 294 294 295 295 297 297 296 298 296 296 298 298 300 299 299 301 306 309 312 314 318 319 317 318 319 318 318 318 320 320 319 316 314 309 307 306 308 309 310 308 308 307 306 303 298 296 297 296
295 297 296 298 298 297 297 297 296 296 302 303 300 300 299 298 298 301 307 310 313 314 317 318 316 315 315 315 315 316 316 313 311 309 306 303 302 304 304 304 302 302 299 297 296 296 295 295 294
295 296 298 298 297 298 298 298 297 296 300 300 299 298 298 297 298 300 304 308 311 312 314 315 315 315 314 311 313 312 313 311 310 306 302 301 300 301 301 299 297 296 294 294 294 294 294 294 293
295 296 295 295 296 296 296 298 296 298 299 299 297 299 298 296 298 297 298 301 305 310 312 314 313 315 313 312 311 311 311 310 306 304 302 298 299 299 299 295 293 293 293 293 293 293 293 293 292
294 292 292 292 293 294 295 292 292 299 296 297 299 297 296 296 296 297 300 300 301 304 309 312 312 313 312 312 310 310 309 305 305 303 300 298 297 297 296 294 292 292 292 292 291 291 291 291 291
289 289 286 291 292 292 294 289 295 296 294 294 295 297 295 299 298 299 299 300 300 301 302 307 311 310 311 311 310 309 307 305 305 302 300 297 296 296 295 293 292 291 291 291 291 290 289 290 291
286 283 284 287 292 291 291 288 293 294 293 293 295 297 299 300 301 302 300 299 300 300 300 300 307 309 309 310 310 309 305 305 304 300 298 296 295 295 294 293 292 290 290 290 289 288 289 289 289
283 282 283 284 290 288 288 288 293 294 294 295 296 297 297 298 299 302 300 300 299 299 300 300 300 306 307 308 308 305 301 303 301 299 297 295 295 294 294 293 291 290 289 288 288 288 288 289 289
285 283 282 285 289 287 289 289 291 294 292 294 296 297 297 297 300 299 299 299 298 296 296 297 295 300 304 304 301 298 298 300 297 298 297 295 295 293 293 292 290 289 289 289 288 288 288 287 287
286 284 285 287 290 286 287 288 292 294 294 295 296 296 295 295 298 298 296 297 296 296 295 295 294 296 300 302 302 300 300 299 298 296 295 295 294 293 292 291 290 289 288 287 287 287 286 286 286
284 284 286 285 286 286 284 284 286 291 291 293 294 294 294 294 294 295 295 295 296 295 294 294 294 294 298 299 298 290 291 289 291 290 291 292 292 292 292 291 290 289 289 287 287 287 288 286 285
284 288 287 285 283 280 285 279 284 289 290 291 292 292 292 293 294 293 292 295 293 294 294 293 293 292 295 296 295 295 294 292 292 294 293 291 291 291 292 290 289 289 288 287 286 287 287 287 286
286 287 285 284 282 281 281 278 283 286 287 289 291 293 293 293 293 294 293 293 292 291 291 292 292 291 294 294 295 294 294 294 291 293 292 290 289 290 289 289 288 288 287 287 286 285 285 287 287
287 285 283 282 282 277 282 281 283 284 287 288 291 294 292 293 293 295 293 292 292 290 289 290 290 289 291 292 293 293 293 291 290 290 290 289 288 288 288 288 288 288 287 286 286 286 286 286 286
286 283 277 275 274 276 280 279 284 288 292 290 292 291 291 292 292 293 292 291 291 290 289 288 288 288 289 290 291 292 292 290 290 290 290 288 287 286 287 287 287 287 287 286 286 285 285 285 285
283 284 280 274 275 280 278 280 288 290 292 291 289 289 291 290 290 290 290 291 291 291 290 288 287 287 288 288 289 289 290 290 289 289 289 288 288 288 288 286 287 286 285 285 285 285 285 285 285
282 281 286 281 280 279 283 285 291 294 289 288 287 285 285 286 287 288 289 290 291 291 290 289 288 288 288 287 287 288 288 288 288 287 288 289 289 288 287 286 285 285 284 284 284 284 283 283 284
285 286 280 279 273 274 280 282 284 289 285 283 283 282 283 284 285 287 288 289 290 291 291 291 290 289 288 288 287 287 288 288 288 286 286 286 287 286 285 285 285 284 284 284 284 284 283 282 282
282 281 282 282 281 277 276 281 289 281 281 281 280 280 281 282 284 285 287 289 289 290 290 289 290 289 289 289 289 287 287 287 287 285 285 286 286 285 284 284 284 283 283 283 283 283 282 282 282
286 286 287 281 280 280 282 281 281 280 280 280 277 279 281 282 284 285 286 288 289 289 289 288 289 288 288 289 289 289 288 286 285 286 286 286 285 284 284 284 283 283 283 282 282 282 281 281 280

GFSSGP_sfc_thetae_006.txt.gz
Theta_e
326 325 327 323 306 305 300 301 304 304 304 307 307 308 307 309 305 303 321 329 331 333 343 349 350 352 351 351 352 351 349 349 349 350 347 346 348 347 346 347 348 349 347 346 344 342 340 338 337
323 322 324 317 302 297 299 303 303 305 306 307 307 307 307 306 312 315 321 328 332 333 342 347 347 351 352 352 351 351 348 348 349 350 348 347 346 344 341 341 346 346 344 342 339 336 333 333 330
320 318 314 308 303 297 299 303 305 305 306 306 307 308 309 308 312 317 324 329 333 333 340 344 346 350 351 352 352 351 349 349 350 350 348 347 342 341 337 337 338 341 341 338 334 331 330 328 327
320 317 312 302 298 302 302 305 306 307 305 306 307 305 309 313 314 318 324 331 334 335 339 342 346 349 350 351 351 350 349 349 350 349 344 341 340 338 335 335 338 338 336 334 330 327 327 325 323
318 313 303 299 298 301 305 306 305 305 305 305 306 305 307 311 314 317 326 331 334 336 340 343 345 348 349 350 350 350 350 351 349 344 342 341 339 336 334 334 335 334 332 328 327 327 324 322 321
310 310 299 297 298 301 305 306 305 304 305 305 304 305 308 312 312 316 325 331 334 336 340 342 339 342 345 347 349 349 349 348 345 343 338 340 337 334 332 332 332 330 327 326 326 324 321 320 318
306 304 298 298 299 301 304 304 304 305 305 306 307 304 310 311 311 316 324 331 334 336 339 341 342 341 336 339 341 344 345 344 343 341 339 337 336 332 329 329 328 327 325 325 323 321 320 318 315
312 307 299 300 299 299 304 304 305 305 305 306 308 305 306 311 313 319 324 328 331 334 337 338 340 341 341 340 333 336 340 340 340 338 334 332 331 330 328 327 327 325 325 322 320 320 318 315 312
308 302 298 298 298 300 305 303 304 306 305 305 307 309 312 309 314 317 320 324 327 329 333 336 337 338 338 338 335 331 333 335 334 333 328 325 329 326 324 324 327 325 323 321 319 317 314 311 308
307 301 300 303 303 302 304 304 305 304 306 307 307 310 310 308 311 313 316 318 323 326 328 332 333 334 335 334 337 338 338 339 338 336 332 330 326 324 322 320 323 325 322 318 316 313 307 302 304
306 301 304 303 304 303 303 304 305 304 303 307 306 309 311 309 309 310 313 315 319 324 327 328 330 332 332 332 333 335 336 335 336 334 330 326 322 320 319 321 321 321 316 315 311 306 303 303 303
301 305 305 305 304 303 303 305 303 305 305 309 310 310 309 308 309 309 311 314 316 319 323 327 327 328 330 331 331 332 333 332 331 329 325 322 320 318 317 318 319 318 315 312 306 303 303 302 300
302 304 305 306 304 304 305 303 304 304 308 309 309 308 307 308 309 310 311 311 314 316 319 323 326 326 327 327 328 328 329 329 328 325 321 320 318 315 314 316 315 314 310 306 302 302 301 300 299
303 302 303 303 303 303 301 302 302 304 307 306 306 307 308 308 308 308 308 308 310 313 317 320 323 325 325 325 325 325 326 327 326 322 319 317 316 313 312 312 311 309 305 302 301 301 300 300 299
301 298 301 301 301 300 301 298 299 305 305 303 305 306 307 307 308 307 309 309 310 311 314 317 320 323 323 323 324 324 324 323 323 320 318 315 313 310 309 309 307 304 301 301 300 299 299 298 297
297 296 294 300 298 299 300 294 301 305 302 302 304 305 306 307 308 309 310 309 310 310 310 313 317 319 321 322 323 322 322 320 320 319 317 313 310 308 306 306 304 301 299 299 298 297 297 297 297
295 292 293 295 299 297 298 295 300 303 301 301 302 304 305 306 307 308 309 310 309 309 309 309 313 316 318 321 321 321 320 319 318 317 315 312 308 306 304 304 302 299 298 298 297 297 297 296 296
293 293 293 292 298 297 295 294 298 300 300 299 301 303 304 304 306 307 307 308 308 309 309 309 309 313 316 317 319 319 318 317 317 316 314 311 307 304 303 302 301 298 297 297 296 296 296 297 296
294 293 292 295 298 295 294 295 297 299 300 300 301 302 303 304 305 306 306 306 306 307 306 306 306 308 313 313 313 314 314 314 314 314 312 310 307 304 302 301 300 297 297 297 296 296 294 294 295
294 291 292 296 297 293 294 293 297 299 299 301 301 301 302 302 303 303 303 303 302 302 303 303 304 304 309 311 312 313 312 312 312 312 310 309 307 303 301 301 299 297 297 296 295 294 293 294 294
293 291 292 292 294 295 292 294 295 299 298 299 300 301 301 300 300 300 299 299 299 298 299 300 302 302 304 308 309 309 304 305 307 307 307 305 305 303 302 300 299 298 297 296 296 296 295 293 293
290 296 293 291 290 289 292 287 295 297 297 298 299 300 300 299 299 298 297 297 296 296 297 298 299 299 300 304 304 304 302 300 302 302 303 303 303 302 300 300 299 298 297 296 296 295 296 298 293
292 292 290 289 289 288 290 286 294 294 293 296 298 297 298 297 296 295 296 296 296 297 297 296 297 297 298 299 301 301 301 302 302 300 301 301 301 300 300 299 298 297 296 297 296 294 295 296 297
292 291 290 289 289 285 290 288 291 293 294 295 295 294 294 294 295 295 296 296 296 296 295 295 295 294 295 297 298 298 298 299 299 297 298 299 298 297 298 298 298 297 296 295 295 295 295 295 295
291 290 287 285 285 284 289 286 290 295 293 293 292 291 292 293 293 293 293 293 294 294 294 294 294 293 294 294 295 295 296 297 297 297 297 297 296 295 295 296 296 296 296 295 294 293 294 294 294
291 291 287 280 282 286 284 284 292 295 292 291 291 290 290 290 292 292 293 293 293 293 293 293 293 292 293 293 293 294 294 294 295 296 296 296 296 296 296 295 295 295 294 294 293 293 293 292 293
289 286 292 286 286 283 287 291 296 296 290 289 288 288 287 288 289 290 292 293 292 292 292 292 291 291 293 293 293 293 293 293 293 293 294 294 295 295 295 294 293 294 294 293 292 291 291 291 291
290 293 286 286 279 278 283 286 288 291 288 287 285 285 286 287 288 288 290 291 292 292 292 292 292 290 291 292 292 293 293 293 292 292 292 292 293 293 292 293 292 293 292 291 291 291 291 289 290
289 286 286 286 285 279 279 284 291 288 286 284 283 284 285 286 287 288 289 291 291 291 291 290 290 290 289 290 290 291 292 292 292 291 292 291 291 291 291 291 291 291 290 290 290 290 290 288 288
292 290 290 284 282 285 283 283 287 286 284 283 281 282 283 285 285 287 289 288 290 289 289 289 289 289 289 289 289 289 289 289 289 290 291 291 291 291 290 290 289 289 288 289 288 288 288 287 286

GFSSGP_sfc_thetae_009.txt.gz
Theta_e
327 326 326 323 308 306 301 302 307 306 307 310 310 309 307 309 306 303 325 330 332 334 340 348 351 352 352 352 352 351 350 349 349 350 348 349 349 348 348 348 349 349 347 346 345 343 341 339 336
323 322 323 314 303 298 299 305 304 307 309 310 310 309 309 307 313 315 322 330 333 334 340 345 348 351 352 352 352 351 349 349 349 350 347 348 348 345 344 346 347 347 345 341 340 338 335 333 330
323 320 313 308 303 299 299 305 306 308 311 309 308 311 310 309 314 317 326 330 334 333 341 345 347 351 352 352 352 351 349 348 349 350 348 347 345 341 339 339 340 342 341 338 335 333 331 329 327
320 317 313 303 300 303 303 306 308 308 309 309 309 307 312 315 315 321 326 331 333 332 339 344 347 351 351 352 352 350 348 348 349 350 349 345 342 340 336 335 338 339 338 335 331 330 328 326 322
318 312 303 301 301 303 306 307 308 307 308 308 308 307 309 315 317 319 325 331 333 333 337 343 346 348 350 351 352 351 349 349 351 350 346 344 342 338 335 335 337 337 335 331 328 328 324 322 320
310 310 301 299 300 304 306 309 308 307 308 308 306 308 310 316 315 318 324 330 334 335 338 339 340 343 346 349 350 350 350 350 350 347 345 344 341 337 334 334 335 334 331 328 328 324 322 320 318
308 305 301 301 300 302 305 308 307 307 306 307 310 305 310 314 315 318 323 328 333 335 337 339 342 343 338 342 344 346 348 348 346 343 341 341 339 336 334 332 332 331 328 327 326 322 321 318 315
311 307 301 302 300 300 306 307 308 307 306 310 311 305 307 315 317 320 324 327 331 334 337 338 340 341 342 343 335 338 341 341 341 339 336 334 333 333 332 330 331 328 326 325 323 321 319 316 313
313 302 300 301 300 302 307 304 308 310 307 309 310 310 313 314 316 318 321 323 327 330 335 337 338 339 340 340 337 332 335 336 336 334 330 328 333 330 327 325 328 328 326 323 322 319 317 312 308
307 303 302 306 305 303 305 305 306 306 306 306 309 313 314 314 313 314 315 317 321 325 330 334 336 337 338 337 338 337 338 339 339 339 335 334 333 329 324 321 325 327 324 322 320 317 312 308 306
308 302 305 306 307 307 305 304 307 304 303 306 306 309 311 312 313 312 313 315 317 321 326 330 333 335 336 336 337 338 337 336 336 336 337 334 331 327 324 323 323 323 318 317 316 309 304 306 306
303 306 306 307 307 305 304 306 304 305 306 310 310 311 311 310 310 311 312 313 315 317 320 326 330 332 334 334 334 335 335 336 333 336 337 333 329 325 322 321 322 324 319 317 314 308 308 305 304
304 305 306 307 307 306 306 304 304 304 308 310 310 309 309 310 311 312 313 314 314 315 318 322 329 329 331 332 333 333 334 334 335 336 335 331 326 322 320 320 321 321 318 315 310 306 305 305 302
305 304 304 305 304 305 302 303 304 305 308 308 308 308 309 309 310 311 311 311 313 314 315 320 323 328 328 330 332 331 332 333 333 332 331 328 325 321 318 318 319 318 315 311 306 305 304 303 303
303 299 302 303 304 302 303 299 300 306 307 305 306 307 308 308 309 309 311 312 313 314 315 317 321 325 327 328 329 330 330 330 331 330 329 326 323 320 317 316 316 315 312 308 305 304 304 302 301
299 300 295 302 301 302 301 295 303 305 304 303 305 306 307 308 309 311 311 311 312 313 312 314 315 320 325 326 327 328 328 328 329 328 326 323 321 318 315 313 313 312 307 304 303 302 301 301 299
300 294 296 298 303 300 299 296 302 304 303 302 304 305 305 307 308 309 309 308 309 310 310 311 313 316 321 325 326 326 327 326 326 326 324 322 319 316 312 311 310 308 303 302 301 300 300 299 299
296 296 297 296 301 299 299 298 301 303 303 303 304 305 306 306 304 305 306 306 306 307 308 309 310 312 317 320 323 324 325 324 324 323 322 320 317 314 311 309 308 304 302 300 301 300 300 300 299
298 296 295 298 302 299 297 297 299 303 303 304 305 304 304 303 304 303 303 302 302 303 303 305 306 309 311 315 316 318 319 320 321 321 321 319 316 313 310 307 306 302 300 300 300 300 298 299 298
297 295 294 298 300 296 296 296 299 302 302 303 302 303 302 302 301 301 301 301 300 299 300 301 303 306 307 312 314 315 316 318 318 319 318 316 315 311 308 305 304 301 300 300 299 298 296 298 297
295 294 294 294 297 298 296 294 299 302 303 302 301 302 301 298 298 299 299 298 299 298 299 298 300 302 304 308 310 311 311 307 308 312 314 313 312 311 308 305 303 301 299 298 299 298 297 295 296
292 298 296 294 292 290 295 287 295 300 300 299 299 299 297 298 298 298 297 297 297 297 299 298 299 298 300 304 305 305 305 303 305 305 308 309 310 309 307 305 303 301 299 298 298 298 297 297 293
295 295 293 293 292 291 292 289 294 298 296 296 297 296 297 297 296 296 296 297 297 297 297 298 298 297 298 299 300 300 301 302 304 303 302 304 306 306 306 305 303 301 299 298 298 296 297 297 296
295 293 294 294 292 286 292 291 291 294 295 294 295 295 295 296 296 296 297 297 296 297 296 297 296 296 297 297 297 296 297 297 299 300 300 301 302 303 303 303 302 301 299 298 298 296 296 296 297
293 291 287 287 287 285 294 289 292 297 295 296 294 293 294 295 295 295 295 294 294 294 295 294 294 294 296 296 295 295 295 295 295 296 297 298 299 300 300 300 300 299 299 298 298 296 295 295 295
295 294 288 282 284 288 289 287 292 295 294 294 293 292 292 292 293 293 294 293 293 293 293 294 293 292 293 294 295 296 295 295 295 295 295 296 297 298 300 298 298 298 298 297 296 295 295 295 295
292 288 293 285 287 284 288 293 297 293 292 291 290 290 290 290 291 291 293 293 292 292 292 292 292 291 291 291 293 293 293 294 294 294 294 294 294 294 295 296 296 296 296 295 295 294 293 293 293
294 297 287 286 278 278 285 287 288 294 292 290 289 289 289 290 290 291 291 292 292 292 292 292 291 290 290 290 290 291 291 291 291 293 293 293 293 293 292 293 294 294 294 294 293 293 292 292 292
290 288 289 289 286 280 279 284 294 292 292 290 288 287 287 288 288 289 290 290 291 290 290 290 289 289 288 289 289 289 289 289 289 288 289 290 291 292 291 291 291 291 291 292 292 291 291 290 290
294 291 291 284 282 285 283 283 297 291 291 288 286 286 286 287 285 286 289 288 288 288 288 288 288 288 288 287 288 288 288 288 287 286 286 288 288 290 290 290 289 289 290 290 290 289 288 289 288

GFSSGP_sfc_thetae_012.txt.gz
Theta_e
328 325 321 317 304 302 297 299 300 302 302 304 305 303 301 303 302 298 318 325 329 333 342 347 351 353 352 353 352 351 351 350 349 349 349 349 350 349 348 348 350 349 348 347 344 343 342 339 334
320 320 318 311 299 294 294 299 301 302 303 304 305 304 302 301 308 313 319 326 329 332 343 344 349 352 352 352 351 351 351 351 350 350 349 349 348 348 348 348 348 347 345 343 342 340 337 333 331
321 318 309 303 298 294 294 299 301 304 306 303 302 304 302 303 309 311 322 327 329 329 342 344 348 352 352 352 351 351 351 351 351 350 348 349 347 343 342 341 343 344 342 340 337 336 333 331 326
317 313 308 297 296 298 298 300 302 303 304 305 303 301 304 308 309 316 324 328 327 328 338 343 348 351 352 352 352 351 350 349 350 351 349 348 345 343 338 335 339 342 340 336 333 332 329 326 322
314 309 299 296 297 299 298 303 304 302 302 302 302 301 303 307 314 316 323 327 327 326 333 344 347 349 351 351 352 352 351 350 350 351 350 347 346 340 335 334 336 337 337 333 330 329 326 323 320
306 304 296 294 296 300 302 304 302 301 301 301 299 299 301 309 309 312 318 323 327 327 332 342 341 344 347 349 350 350 350 350 350 351 349 347 344 340 336 334 335 335 334 331 330 325 323 321 318
304 301 296 295 296 297 301 302 300 300 300 301 302 297 301 306 310 311 318 322 325 328 332 334 340 340 338 342 344 347 348 348 349 348 346 344 341 339 336 334 334 334 331 329 328 323 321 320 316
306 302 296 295 295 296 301 301 301 300 300 303 302 297 300 306 312 312 317 321 324 326 331 332 336 339 340 340 336 339 342 344 345 342 338 335 335 334 333 331 334 332 329 328 325 322 320 317 313
309 297 294 297 296 297 302 299 302 303 301 302 304 303 306 310 312 311 315 316 319 324 329 331 332 335 337 339 337 333 336 337 337 334 330 327 328 327 326 326 330 331 328 326 323 321 319 315 310
302 297 298 301 300 298 301 300 300 299 300 300 301 305 306 306 306 307 308 309 315 319 323 329 330 332 334 337 334 338 338 338 336 334 329 328 327 325 325 321 325 328 327 326 323 320 316 311 300
304 297 301 301 304 303 302 300 301 299 297 301 301 303 305 304 304 303 305 306 308 315 321 325 328 330 331 332 330 334 336 333 336 335 332 330 329 322 318 316 318 317 318 314 315 310 304 300 298
299 303 303 304 304 302 300 302 300 300 301 305 304 305 304 303 303 304 304 305 305 308 313 322 326 328 329 330 329 329 330 330 331 334 332 330 328 318 315 315 315 314 312 309 307 302 299 298 298
300 302 304 304 303 301 303 300 300 300 303 305 305 304 303 302 303 305 306 307 306 306 308 313 322 325 327 327 327 327 327 329 330 329 331 331 325 316 314 313 314 314 311 308 304 299 299 297 296
302 301 301 301 301 301 300 299 299 301 303 302 303 302 302 302 303 302 303 304 305 307 308 310 315 323 324 325 325 326 325 326 328 328 328 328 322 315 312 311 312 313 311 306 301 298 297 296 296
301 295 298 300 300 299 299 294 295 301 301 300 300 300 301 302 303 302 303 303 304 305 308 309 311 318 321 321 324 324 324 325 325 328 325 323 319 315 312 309 310 310 307 303 298 297 297 295 296
296 295 290 298 298 297 297 290 298 301 299 300 300 299 300 301 301 302 302 302 302 302 304 305 309 311 318 320 320 323 322 322 322 323 322 321 318 315 310 308 308 308 303 298 296 295 294 293 293
294 288 291 295 299 296 294 291 298 300 299 299 298 299 299 299 299 299 299 299 300 300 301 302 304 307 312 318 319 319 320 320 320 320 319 318 317 314 309 306 306 304 299 296 296 294 293 292 291
290 290 292 291 296 296 292 292 298 300 299 297 299 298 298 297 297 299 298 298 298 297 299 300 303 304 309 313 315 316 317 317 317 317 317 316 314 313 307 304 304 301 296 295 294 293 293 292 292
294 292 291 293 298 294 293 293 295 299 300 297 294 296 297 296 298 298 297 297 296 296 296 298 299 301 303 308 309 310 311 313 315 316 315 316 312 310 306 302 301 297 296 295 294 292 292 291 290
293 290 290 294 297 292 293 292 296 298 299 296 296 295 295 295 296 296 295 295 295 295 294 295 296 298 301 305 306 307 305 307 308 314 313 313 312 309 305 301 299 296 294 293 293 292 291 291 291
293 290 290 291 294 292 291 289 293 298 298 297 297 296 295 294 293 293 293 293 293 293 294 294 295 295 297 299 303 304 303 301 301 302 306 310 310 308 304 301 298 296 294 294 293 292 291 288 289
289 294 293 292 288 284 291 282 290 295 292 294 294 292 292 292 293 294 292 292 292 292 293 294 295 295 295 296 296 295 296 296 299 299 299 300 305 305 305 301 299 296 294 293 293 294 293 289 288
292 292 290 289 287 286 287 283 288 292 289 291 292 292 292 292 292 292 292 292 292 292 292 292 293 294 294 294 293 292 292 293 294 295 295 296 299 301 301 300 298 296 294 292 292 291 291 292 288
293 291 290 288 287 280 287 287 286 288 290 289 291 291 292 292 292 292 293 292 291 291 290 290 291 292 292 293 292 291 290 290 290 291 291 293 294 296 298 298 296 296 294 293 292 291 291 290 290
290 288 281 279 278 279 288 284 288 290 292 292 290 289 290 291 290 290 289 289 290 289 290 290 288 288 290 290 290 291 290 290 290 290 290 289 290 292 293 294 294 294 294 293 292 290 289 290 290
291 290 283 277 276 279 286 281 288 291 291 291 290 289 289 288 289 289 289 288 288 289 288 288 287 287 287 288 288 289 289 290 290 290 290 289 289 289 290 290 291 293 293 293 292 289 289 289 290
289 286 291 282 279 278 283 288 292 290 288 288 287 287 286 287 287 287 289 288 287 287 287 287 286 286 286 286 286 286 286 286 286 287 288 288 289 290 289 289 289 289 290 290 290 288 287 287 287
290 294 284 284 277 273 280 282 285 287 287 287 286 285 286 287 286 287 286 288 286 286 287 286 286 285 285 285 286 286 285 285 284 284 284 285 286 287 288 288 288 288 288 288 287 287 287 286 286
288 285 289 288 283 275 275 279 288 288 289 286 286 286 285 285 284 285 285 285 285 285 285 284 284 284 284 284 285 284 284 285 284 283 283 284 284 285 286 287 286 286 286 287 286 286 286 285 285
290 289 288 282 280 283 282 281 294 290 288 288 285 285 284 285 282 283 285 283 284 284 283 283 283 283 284 284 283 284 284 284 283 283 283 282 284 285 285 285 286 285 285 285 285 285 285 284 284

GFSSGP_sfc_thetae_018.txt.gz
Theta_e
319 312 313 308 298 292 289 292 293 295 295 298 300 298 296 297 298 293 312 323 329 336 342 347 351 353 354 354 354 352 351 348 348 347 347 347 346 346 345 348 350 350 347 345 343 343 340 337 334
315 315 308 300 292 287 288 292 294 296 298 299 300 299 297 297 304 311 314 322 335 338 341 345 348 352 353 353 352 352 352 351 349 348 347 348 348 348 347 347 349 349 348 346 342 340 336 333 330
315 311 301 294 288 287 289 292 293 297 299 299 297 299 297 299 305 312 318 324 333 337 341 343 347 352 353 353 352 352 352 351 349 348 349 350 349 348 348 348 348 346 345 341 340 336 334 329 326
308 305 299 292 289 290 292 293 295 296 298 300 298 296 300 302 306 314 320 324 333 336 340 343 348 352 353 352 352 351 351 350 349 350 350 349 347 345 345 346 345 343 342 339 337 334 329 325 322
304 298 291 290 290 292 294 296 296 296 296 297 298 296 296 305 312 316 321 323 328 333 336 342 347 350 351 352 352 351 351 350 351 351 350 349 347 344 339 337 342 343 339 335 333 330 326 322 319
299 295 289 287 289 293 295 296 296 294 294 296 296 295 296 305 306 314 320 321 321 329 334 340 341 344 347 349 350 350 350 350 350 351 350 350 348 344 337 336 337 340 338 333 332 328 324 320 316
297 292 288 289 288 291 296 297 294 293 293 295 298 295 299 301 307 310 318 319 322 325 335 337 340 342 340 343 344 346 348 348 348 349 349 347 346 341 338 336 336 335 335 333 331 325 321 318 314
298 294 290 289 289 290 296 297 296 295 294 299 299 294 294 304 307 307 313 315 319 321 332 335 336 338 341 342 337 339 342 343 344 344 342 339 339 337 336 333 335 335 334 332 329 324 321 317 312
298 291 287 290 290 292 296 295 297 296 295 295 299 298 298 303 307 308 308 311 312 319 324 330 333 336 337 336 336 333 336 338 338 338 335 332 331 331 328 328 332 335 334 331 328 324 321 316 309
295 289 291 294 293 293 296 294 295 295 295 294 294 299 299 302 305 305 304 306 308 312 319 324 330 333 334 339 336 335 339 338 338 337 334 330 328 325 325 323 328 331 330 331 327 323 320 309 296
296 291 295 297 298 297 297 297 296 293 294 297 296 298 300 298 300 300 299 300 303 308 313 322 326 330 332 334 335 333 338 337 332 330 329 327 328 325 323 320 321 320 321 319 320 316 306 298 296
293 299 298 300 300 297 295 298 297 296 298 301 299 298 298 297 295 296 296 297 297 299 300 309 322 325 329 331 331 332 335 335 335 331 327 328 326 324 322 320 318 315 313 311 309 306 303 298 296
295 296 299 300 299 297 297 296 295 297 299 300 298 297 296 295 295 296 297 297 296 297 298 299 309 323 326 327 326 329 333 333 332 327 326 327 327 324 321 318 316 313 309 308 305 303 300 295 294
296 297 297 297 297 296 296 293 295 298 296 297 297 294 294 294 294 294 295 294 295 297 297 299 300 313 323 325 323 326 327 327 326 325 326 325 328 324 318 316 315 310 309 306 304 302 296 294 293
295 293 294 294 295 295 296 292 293 299 296 295 293 292 293 294 294 292 293 293 293 295 296 298 301 304 318 321 321 321 322 322 322 323 323 323 324 323 318 315 314 314 308 305 302 299 294 292 292
291 289 287 294 295 294 293 289 296 298 295 293 290 290 292 293 293 293 294 293 293 293 294 297 301 305 313 317 319 320 320 319 320 321 324 323 323 320 316 315 314 313 310 304 300 296 293 291 290
287 284 286 291 295 293 291 288 295 297 295 291 289 291 291 291 292 292 293 292 292 292 293 295 298 300 308 313 314 316 317 317 317 322 323 323 321 318 316 313 313 311 309 304 299 293 293 291 289
284 284 287 287 291 291 289 290 293 296 294 290 289 290 290 290 290 292 292 293 292 292 293 293 296 297 302 307 309 310 310 314 317 317 319 320 318 315 315 313 310 308 306 300 295 294 291 290 290
287 286 286 289 293 290 290 289 292 295 291 289 289 290 290 290 291 292 291 291 291 291 292 292 293 293 297 300 301 302 301 302 308 311 311 314 316 315 313 311 308 305 303 301 298 292 291 289 288
288 286 286 289 292 290 289 289 292 293 293 291 290 289 289 289 289 290 290 290 290 290 290 291 292 292 293 295 297 299 298 298 301 302 301 301 308 310 310 307 304 303 300 297 295 294 289 289 288
288 286 286 288 290 289 287 286 290 290 290 291 291 290 290 288 287 288 288 287 288 288 289 291 291 292 292 292 293 293 293 292 293 293 293 294 299 303 305 305 302 300 299 298 296 294 293 290 288
287 292 291 289 285 282 286 279 286 289 287 288 288 287 287 287 288 288 287 287 287 286 288 289 290 290 291 291 290 289 288 288 288 289 290 291 292 292 293 296 300 299 297 296 295 295 293 291 290
289 289 287 286 283 281 282 280 283 287 284 286 286 287 286 287 287 287 287 288 287 286 285 286 288 289 289 289 290 289 288 288 289 289 288 289 290 290 290 290 291 292 296 296 294 294 292 292 291
290 288 287 285 283 277 283 282 281 284 286 285 286 286 287 286 286 287 287 287 285 285 284 285 285 286 286 286 286 286 286 285 285 285 285 286 287 287 287 288 288 289 289 290 293 293 292 292 291
287 285 279 278 276 277 283 280 284 286 287 288 286 285 286 286 285 285 285 284 284 283 283 285 284 284 284 284 284 284 283 283 283 283 283 283 284 284 285 285 285 286 287 287 288 288 290 291 290
286 287 282 277 274 277 282 280 285 285 286 287 287 286 286 287 287 286 285 285 284 284 283 283 283 283 283 283 283 283 282 282 282 282 282 282 282 283 284 284 284 284 285 285 286 285 285 286 285
286 284 288 283 275 275 281 283 284 286 284 285 285 285 285 285 286 286 286 285 285 283 283 283 282 282 283 283 283 282 282 282 281 281 281 281 281 283 282 282 282 282 283 282 283 283 283 283 284
288 291 282 281 273 270 277 279 281 283 282 283 283 283 284 284 284 285 284 284 284 284 283 283 282 281 281 282 282 282 282 282 281 280 280 279 280 280 280 280 281 281 281 281 281 280 281 282 282
285 284 286 285 280 273 270 277 284 286 285 283 283 284 283 283 283 283 284 284 284 284 283 283 282 281 281 281 280 281 281 280 280 280 279 279 279 279 279 280 280 280 280 280 280 280 280 280 281
288 286 285 279 277 279 279 280 287 287 286 285 284 284 284 285 283 284 282 282 281 281 281 281 281 281 281 281 280 280 279 279 279 278 279 279 279 279 279 279 278 278 278 279 279 279 279 279 280

GFSSGP_sfc_thetae_021.txt.gz
Theta_e
317 311 310 306 296 292 288 290 295 294 293 297 298 297 295 296 296 292 309 321 325 333 339 347 350 352 353 354 354 352 351 349 348 347 346 345 344 344 346 348 350 348 346 344 343 341 338 336 334
314 312 306 298 290 286 288 290 292 294 296 298 298 297 296 296 301 308 314 322 331 335 340 345 347 352 353 353 353 352 350 349 348 347 347 346 347 346 345 348 349 348 347 346 342 339 336 332 330
312 307 299 293 287 286 287 290 291 297 298 297 295 298 299 297 303 308 314 320 333 335 340 344 347 351 353 353 352 352 351 351 349 348 347 348 348 348 347 347 348 347 344 343 339 336 332 329 326
307 303 298 290 287 289 293 294 293 295 298 299 296 295 298 301 303 311 318 322 330 333 338 341 347 352 353 352 352 351 350 350 349 348 348 349 348 347 347 347 345 343 343 340 337 333 329 324 321
301 296 290 288 288 291 295 294 295 294 294 295 296 295 296 302 311 317 320 323 327 331 336 339 346 350 351 352 352 351 351 350 350 350 350 349 347 344 342 342 343 343 340 336 334 330 326 321 318
298 294 288 286 288 292 294 294 294 293 292 294 299 297 295 302 308 313 318 317 325 331 333 338 339 344 347 349 350 350 350 350 350 351 350 350 348 344 338 336 340 339 336 333 332 328 323 319 315
295 290 287 286 287 290 294 296 298 293 292 293 300 295 298 301 305 308 314 315 318 327 331 335 339 340 339 342 344 346 348 348 348 349 349 347 346 344 338 338 337 337 336 333 332 326 321 317 313
296 292 288 288 288 289 294 295 295 293 293 298 299 293 293 304 304 307 310 314 315 320 330 332 335 342 341 340 336 338 341 343 343 343 341 339 339 337 336 333 337 337 335 332 331 325 320 317 310
296 289 286 288 288 291 295 295 295 295 293 295 297 300 297 302 305 306 307 310 311 316 321 328 331 335 338 341 337 333 336 338 337 337 334 334 333 333 329 328 332 336 335 333 331 324 321 316 309
293 287 289 293 292 292 295 293 294 295 295 293 293 298 299 299 303 302 300 301 302 307 313 320 326 330 333 338 337 338 340 339 340 339 338 335 331 330 328 324 327 331 331 332 330 324 321 307 295
294 290 293 296 296 296 295 293 295 293 294 295 294 297 298 295 295 295 295 295 294 297 300 303 320 326 329 336 337 336 337 337 335 335 335 332 328 326 325 324 325 321 321 320 321 315 307 298 293
294 296 296 298 298 296 294 295 295 295 297 298 295 295 293 294 294 294 294 294 294 295 296 298 299 320 326 328 333 334 335 336 334 333 329 328 326 325 323 322 322 321 318 314 310 307 304 299 296
294 295 297 299 298 296 296 295 294 296 297 296 296 295 293 293 293 293 294 294 294 294 295 296 298 305 322 325 325 326 332 335 333 332 329 325 323 324 322 321 319 319 316 313 307 305 303 297 294
294 295 295 296 296 295 294 292 293 296 295 294 294 292 292 292 292 292 292 292 292 294 294 296 299 302 313 323 322 323 331 332 330 328 327 323 323 321 322 319 317 316 315 311 307 304 301 295 292
294 291 292 293 293 293 294 290 292 296 294 292 291 290 291 292 292 291 292 291 291 292 294 296 300 305 311 319 320 321 322 324 324 323 323 323 326 325 321 318 316 315 313 310 307 301 297 293 292
290 288 285 292 293 293 292 289 294 295 293 290 289 288 289 291 291 291 292 291 291 292 292 295 299 303 311 315 318 319 319 320 320 324 324 324 324 323 319 317 315 315 312 309 306 302 296 294 291
286 282 284 289 293 292 290 288 294 294 293 289 288 289 289 289 290 291 291 291 291 291 292 293 296 298 305 311 313 314 314 319 319 321 321 322 321 320 318 316 316 313 310 308 305 299 298 293 291
283 283 285 286 290 290 288 289 292 294 292 289 288 287 288 288 289 290 290 290 290 290 291 292 294 294 299 305 305 305 306 311 310 309 311 315 317 315 315 314 312 310 308 305 302 299 294 293 291
286 285 285 287 291 288 289 288 291 292 289 287 287 287 287 288 289 289 289 289 290 290 291 291 291 292 293 297 299 300 297 301 299 299 299 305 308 312 311 309 308 306 306 304 301 296 295 293 291
286 284 285 288 291 289 288 288 291 290 289 288 288 287 287 287 287 287 287 287 287 288 289 290 290 291 291 292 293 295 294 294 293 293 293 294 295 298 303 304 303 303 302 300 298 296 294 293 291
286 285 285 287 289 287 286 284 288 288 289 289 289 288 287 286 285 285 285 284 285 285 286 288 289 290 290 291 291 291 291 290 290 290 290 291 291 291 293 294 297 297 298 298 297 295 294 293 291
285 290 289 288 285 282 285 279 284 287 286 286 286 285 285 285 286 286 285 284 284 284 285 286 287 287 289 290 289 288 287 286 287 287 288 288 288 288 290 290 291 291 294 295 295 295 294 292 291
288 289 287 285 283 280 281 279 283 286 283 284 284 285 284 285 285 285 285 285 284 284 283 283 285 285 285 286 286 285 284 285 284 284 284 285 285 286 286 287 288 288 289 289 290 292 293 292 291
290 287 286 284 282 277 282 282 280 283 285 284 285 285 285 285 284 284 285 284 283 282 282 282 283 283 283 283 283 283 282 282 282 282 282 283 283 284 284 285 285 285 285 286 287 288 288 289 291
286 285 279 277 275 277 282 279 283 285 285 286 285 284 284 284 283 283 283 282 282 281 282 283 282 282 282 282 282 281 281 281 280 280 281 281 281 281 282 283 282 283 283 283 284 284 285 286 285
285 285 280 274 274 277 281 279 285 283 284 287 287 286 285 284 284 284 283 282 282 282 281 282 282 281 282 282 281 281 281 280 280 280 280 280 280 280 281 281 281 281 281 282 282 281 281 282 282
285 283 287 282 271 274 281 282 283 284 283 284 284 284 283 284 284 284 284 283 282 282 281 282 282 282 282 282 281 281 281 280 279 279 279 279 279 281 280 279 279 280 280 280 279 279 279 280 280
287 289 282 280 273 270 278 279 281 281 282 283 283 283 283 284 284 284 284 284 283 282 282 281 281 281 281 281 281 281 280 280 279 278 278 278 278 279 279 278 278 279 279 279 278 279 279 278 278
285 284 285 284 280 274 271 278 283 284 284 283 284 284 283 283 284 284 283 283 283 282 282 281 281 280 280 280 279 279 279 279 279 278 278 278 278 278 278 278 278 277 277 277 277 277 278 277 278
286 285 286 282 278 278 278 280 286 286 285 285 284 284 284 284 283 283 284 282 282 282 281 280 280 279 279 279 278 279 278 278 278 277 278 278 277 278 278 278 278 277 277 277 276 276 276 276 276

GFSSGP_sfc_thetae_024.txt.gz
Theta_e
315 311 308 304 295 291 287 290 293 292 294 295 297 296 297 297 295 291 305 318 325 331 336 347 351 353 353 353 353 352 351 349 348 347 346 345 345 345 346 348 350 348 345 343 341 341 338 335 334
311 310 303 296 289 285 287 290 291 293 295 299 297 296 297 295 299 307 312 319 327 332 339 345 347 352 353 353 353 351 350 349 348 346 346 345 346 345 347 349 349 347 346 346 342 339 335 332 330
310 305 298 291 286 285 287 291 295 295 296 296 300 298 300 296 301 309 314 320 330 332 338 343 346 352 353 352 353 351 351 350 348 347 346 347 347 347 345 347 347 346 345 344 339 336 332 329 326
305 301 296 289 287 289 291 294 292 296 296 298 296 298 297 301 301 309 319 322 327 330 336 341 347 351 353 352 352 351 349 349 349 348 347 348 348 347 347 347 347 344 343 341 338 334 329 325 322
299 295 289 287 288 290 292 295 293 292 297 294 296 294 296 299 311 315 316 322 324 329 333 337 346 349 351 352 352 351 350 350 350 348 348 349 347 346 346 345 343 342 341 337 335 331 327 323 319
297 293 287 285 288 290 294 293 293 291 291 294 298 295 294 300 308 311 316 313 321 327 332 336 338 343 347 349 350 350 350 350 350 350 350 349 347 344 341 341 341 340 341 334 331 329 325 320 316
294 289 286 286 287 289 292 294 296 296 295 296 299 295 297 303 302 305 314 318 318 325 329 331 335 338 338 343 344 346 348 348 348 347 347 346 345 345 340 339 339 336 337 333 330 328 323 319 314
294 291 287 286 287 287 293 293 293 295 292 297 298 293 295 298 304 307 309 311 314 318 324 327 331 340 342 340 335 338 341 343 344 343 341 338 339 339 336 334 337 337 335 332 330 326 322 318 313
294 287 285 289 288 290 293 293 294 294 295 295 295 299 295 299 305 304 302 302 303 308 315 322 327 336 338 340 337 331 335 337 337 336 334 334 334 336 331 328 333 337 335 333 331 325 321 316 309
291 285 287 291 294 294 293 293 293 294 294 295 293 297 296 295 295 295 294 294 295 296 299 302 315 327 335 337 338 338 340 336 335 336 337 337 336 332 330 325 328 332 331 333 331 325 318 305 293
293 288 291 294 295 294 294 292 294 295 291 292 294 295 294 294 294 293 293 293 293 294 296 297 298 305 329 335 336 337 338 337 336 337 337 335 332 328 327 326 326 326 323 322 320 312 307 299 293
292 295 294 297 297 295 293 294 293 293 293 295 293 293 292 292 292 291 291 292 292 293 295 296 297 299 313 332 334 335 335 335 334 333 332 331 328 326 324 324 323 323 321 319 316 311 305 300 296
294 293 295 297 296 296 295 294 293 295 294 294 294 293 291 291 291 291 292 292 292 292 293 295 297 300 303 321 330 330 331 333 334 333 331 329 327 325 324 323 322 321 318 317 314 309 305 301 295
292 293 294 295 294 293 293 291 292 292 292 292 292 290 290 290 290 290 291 291 291 293 293 295 298 302 306 316 324 326 330 331 331 330 329 328 326 321 321 320 316 319 318 315 312 309 304 300 294
293 290 292 292 291 292 293 289 291 293 292 291 290 289 289 290 290 289 290 290 290 291 293 294 299 304 311 317 321 322 326 327 326 326 325 325 325 322 322 320 318 318 316 313 310 306 303 299 294
289 287 285 290 292 291 291 289 292 293 292 289 289 287 288 289 289 289 290 290 290 290 291 293 297 300 311 316 318 319 321 321 322 323 324 324 324 324 321 319 317 316 313 311 309 305 302 300 297
285 284 283 288 292 290 289 288 291 291 291 288 287 287 288 287 288 288 289 289 289 289 290 292 294 295 304 307 310 312 309 306 305 307 310 315 316 318 318 315 314 314 311 309 307 302 301 300 298
283 282 284 285 288 288 286 288 292 292 291 288 286 286 286 286 286 288 288 288 289 289 290 291 292 293 296 303 304 302 299 297 297 296 298 300 303 308 311 311 309 310 309 306 304 302 298 296 295
285 284 285 286 290 288 289 288 291 292 288 286 285 285 285 286 287 287 287 286 287 288 288 289 290 290 293 295 296 296 292 294 293 293 293 294 295 298 300 303 302 304 303 302 301 298 297 296 293
285 284 284 287 289 288 288 287 290 289 288 287 286 285 285 285 285 286 285 285 285 285 286 287 289 289 291 291 291 291 291 291 291 291 289 290 291 292 292 294 296 297 298 296 296 295 294 294 292
285 284 283 285 287 287 285 284 287 286 287 287 287 286 285 284 284 283 284 283 283 283 283 286 287 288 289 290 291 290 289 288 287 286 285 285 287 288 289 290 290 291 292 292 293 294 293 293 292
283 288 288 286 284 282 284 279 283 285 284 285 285 284 284 284 284 283 283 282 282 282 283 283 284 286 287 287 287 285 284 282 283 283 284 284 285 285 285 286 286 287 288 288 289 292 291 290 289
287 289 287 285 283 280 281 279 283 285 284 283 283 283 283 283 283 283 282 283 282 282 281 281 282 283 283 284 284 283 282 282 282 281 282 282 283 283 284 284 284 284 284 285 285 287 288 289 288
289 287 285 283 282 276 282 282 280 282 284 283 284 284 284 284 283 282 283 282 281 281 281 281 281 281 282 282 281 281 280 280 280 280 280 280 281 281 282 282 282 282 282 282 283 283 284 284 285
286 284 279 277 275 277 281 279 282 284 284 285 285 284 283 283 282 282 281 280 280 280 281 281 281 280 280 280 280 280 279 279 279 279 279 279 279 279 279 280 280 280 280 281 281 280 280 281 281
284 285 280 274 274 277 280 278 284 283 284 285 286 285 284 283 283 282 282 281 280 281 280 281 280 280 281 280 280 280 280 280 279 279 278 278 278 278 278 278 278 278 279 279 278 278 278 278 279
284 282 286 280 269 273 280 282 283 283 282 283 283 283 282 283 283 283 282 281 280 280 281 281 281 281 281 280 280 280 279 279 278 278 278 278 278 280 278 278 277 277 278 278 277 277 277 277 277
286 288 281 280 273 271 277 278 282 282 283 282 282 282 283 283 283 283 283 282 282 282 282 282 282 281 280 280 280 279 279 279 278 278 278 277 278 278 278 278 277 277 277 277 276 276 277 276 276
285 283 284 283 281 276 271 278 283 284 283 282 283 284 283 283 284 284 283 283 282 281 280 279 279 280 279 279 278 278 278 277 277 277 277 277 277 277 277 277 277 277 276 276 275 275 276 275 275
285 285 285 282 278 277 278 281 284 284 284 285 284 285 284 284 284 284 284 283 282 281 280 280 279 279 279 278 278 278 277 277 277 276 277 277 277 277 277 277 277 276 276 276 275 275 275 274 275

GFSSGP_sfc_thetae_027.txt.gz
Theta_e
317 312 311 307 300 296 292 297 298 299 300 303 303 302 302 303 299 298 312 321 329 335 339 349 351 353 353 353 353 352 352 350 348 348 347 346 346 346 347 349 350 347 346 343 341 340 337 335 333
313 311 306 299 293 290 292 295 298 299 302 302 302 302 302 301 306 311 317 322 329 335 340 348 348 352 353 353 352 351 351 351 348 347 346 346 345 346 349 349 349 347 347 345 341 338 334 331 329
312 306 303 295 290 289 292 296 298 300 301 302 301 304 303 304 308 312 318 324 334 336 341 347 347 352 353 353 353 351 351 350 348 347 347 347 347 346 347 348 347 346 344 344 340 336 332 328 325
308 304 299 292 292 294 295 297 298 300 301 302 302 301 303 308 309 314 322 331 333 335 341 344 347 352 353 352 352 351 349 349 348 347 346 348 348 347 347 347 347 345 343 341 339 334 330 326 323
301 299 293 291 294 295 295 299 299 298 299 300 301 301 301 306 314 320 323 328 330 334 338 343 346 350 352 352 352 352 350 350 350 348 347 349 347 347 347 345 343 343 341 335 334 332 328 323 320
299 296 290 289 292 295 297 298 298 297 298 299 299 299 303 306 308 315 322 322 330 333 336 339 338 343 347 350 350 350 350 350 350 349 349 348 347 345 344 343 341 341 340 336 332 329 326 321 319
296 292 289 289 291 294 297 298 297 297 298 299 302 299 303 303 306 315 319 320 323 330 334 337 340 341 336 342 343 345 347 347 347 347 347 346 345 345 342 339 340 337 337 334 332 328 324 320 316
295 293 290 290 291 293 297 297 298 298 299 300 302 298 300 301 305 310 312 306 309 310 318 329 335 339 342 346 334 338 341 343 343 342 340 337 338 339 336 334 337 336 335 333 331 327 323 319 314
297 289 287 291 291 293 297 297 298 299 298 299 300 299 297 298 300 301 301 301 301 302 303 304 311 332 338 341 339 332 334 337 337 337 334 335 343 342 334 330 334 337 336 333 331 326 322 314 307
293 288 289 293 293 294 296 296 297 298 297 298 299 299 298 297 297 297 296 296 297 298 300 301 303 305 321 337 340 339 342 341 343 343 342 339 339 337 333 327 329 332 331 333 330 325 317 308 301
295 290 292 295 297 297 297 296 298 297 295 298 299 297 296 295 295 294 294 294 294 296 299 300 302 304 306 328 337 339 340 340 342 342 340 338 335 332 331 329 329 330 324 327 323 317 315 308 303
293 295 295 299 298 297 296 297 297 297 298 296 295 295 294 293 293 293 293 294 294 296 298 299 301 303 307 315 333 337 337 337 336 335 335 335 332 330 329 327 327 326 325 323 320 316 314 309 303
295 295 296 297 297 296 296 296 296 296 294 294 294 293 292 292 292 293 293 294 294 295 296 298 300 304 308 313 330 333 334 335 335 336 333 331 330 328 327 327 327 326 323 321 318 314 311 311 305
294 295 295 295 295 295 295 293 294 294 293 293 292 291 291 291 291 292 292 292 293 294 295 297 300 307 312 315 327 329 331 331 330 329 329 329 329 327 326 324 323 323 325 324 318 314 311 308 306
294 292 293 293 293 293 294 291 292 294 293 291 290 290 290 290 290 290 291 291 292 293 294 296 301 307 318 323 325 327 325 324 323 323 322 324 325 325 324 323 322 320 320 318 315 312 310 306 302
290 289 288 292 293 293 293 290 294 293 293 291 290 289 289 289 289 290 290 291 292 292 293 296 299 306 313 316 315 310 308 307 308 309 312 314 316 319 319 318 317 316 315 313 311 308 307 306 304
287 286 285 289 293 292 292 291 294 293 292 290 289 289 289 288 289 289 290 290 291 291 292 295 297 300 306 305 303 301 300 300 300 300 302 304 307 311 312 311 311 312 310 309 308 304 304 303 302
285 284 285 286 290 290 289 290 292 293 292 290 288 287 287 287 287 288 288 289 290 290 291 293 295 297 303 302 300 298 297 296 295 295 296 297 299 303 305 304 305 307 306 305 306 304 302 299 297
287 285 286 287 290 290 289 289 292 292 289 287 286 287 287 287 288 288 288 288 288 289 290 291 293 294 297 298 298 295 292 292 291 291 292 293 295 296 297 299 300 302 300 300 300 302 301 300 298
286 285 285 287 289 289 288 288 292 291 290 289 287 286 286 286 286 286 286 286 286 286 287 289 290 292 294 294 294 293 291 289 289 289 288 289 291 292 292 293 293 294 296 296 296 297 298 298 296
285 285 284 286 287 288 286 286 288 289 288 288 288 287 286 285 285 285 285 284 285 285 284 286 287 289 291 293 292 291 290 289 287 286 286 286 287 288 289 289 290 290 291 291 293 294 294 294 296
283 287 287 286 285 283 286 281 286 286 286 286 285 284 284 285 285 285 284 283 284 283 284 284 285 286 287 288 288 287 285 283 284 284 285 285 285 286 286 286 286 287 287 287 289 290 291 293 291
287 288 286 286 284 283 283 281 284 285 286 285 284 284 284 284 284 284 283 283 283 283 282 283 284 284 284 285 286 284 283 284 284 284 283 283 284 284 284 285 285 285 285 285 285 285 285 287 287
288 287 285 283 282 277 283 283 282 284 286 285 285 285 285 284 284 284 284 283 282 282 282 283 283 282 283 283 283 283 283 282 282 282 282 282 282 282 282 283 283 283 283 283 283 284 283 284 284
285 284 279 278 276 278 281 280 284 287 287 287 286 285 284 284 284 283 282 282 282 282 282 282 282 281 282 282 282 282 282 282 281 281 281 281 281 281 281 281 281 281 281 281 282 282 282 282 282
284 285 280 275 275 278 279 279 284 286 285 285 286 286 284 284 283 283 282 282 282 282 282 282 281 281 281 282 282 282 282 282 281 281 281 281 281 280 281 280 280 280 280 280 280 280 281 281 281
284 282 286 280 270 275 281 283 287 285 284 284 284 284 283 284 283 283 283 282 282 282 282 282 282 281 282 281 281 281 281 281 280 280 280 280 280 280 280 280 279 279 279 279 279 279 279 279 279
286 288 282 280 273 270 278 280 284 284 284 283 282 283 283 284 283 284 283 283 282 282 282 282 282 282 281 281 281 281 280 280 280 280 279 279 279 280 279 279 279 279 279 279 278 278 278 278 278
285 283 283 284 281 275 272 279 285 286 286 284 284 284 284 284 284 284 284 284 283 282 281 281 281 281 281 281 280 280 279 279 279 279 279 279 279 279 279 278 278 278 277 278 277 277 278 277 277
285 285 285 281 278 277 278 281 285 285 286 286 285 285 285 286 285 285 285 284 282 282 281 280 281 281 281 280 280 280 279 279 279 279 279 279 278 278 278 277 277 276 276 276 276 276 276 276 276

GFSSGP_sfc_thetae_030.txt.gz
Theta_e
323 321 324 320 308 307 299 300 304 302 303 307 308 307 306 307 304 301 322 328 333 339 345 351 351 354 354 353 352 352 352 350 350 349 347 347 347 347 349 348 348 347 345 343 341 338 336 334 333
321 318 320 314 303 297 298 302 301 304 306 308 307 307 306 305 311 316 323 327 334 339 345 350 349 353 353 353 352 352 351 349 347 346 346 345 346 349 350 348 348 347 345 343 341 337 333 330 329
318 314 314 309 304 297 298 302 303 306 307 307 306 308 308 307 314 318 327 329 336 340 344 349 348 352 353 353 352 351 351 350 348 347 347 347 346 347 349 347 347 345 344 342 339 336 332 327 326
317 316 311 303 298 300 300 303 305 306 307 307 307 305 308 314 316 322 329 334 336 340 343 346 348 352 353 352 351 350 349 349 348 347 347 348 347 346 347 347 346 344 339 339 336 334 329 325 324
315 313 305 300 298 300 303 305 305 305 304 306 306 303 306 312 320 326 329 332 334 339 343 347 346 350 352 352 351 351 350 349 349 347 347 349 347 347 347 345 343 341 338 335 334 331 328 322 323
311 310 301 297 298 301 303 305 304 303 304 305 304 304 306 313 314 322 328 330 336 339 342 344 340 343 348 350 350 350 350 351 350 349 347 347 346 346 345 343 340 339 337 335 333 329 326 320 321
307 306 300 300 299 300 303 304 303 304 303 304 306 303 307 308 312 322 324 326 326 332 340 343 345 344 336 343 344 345 347 348 348 348 347 347 345 345 342 339 339 338 336 334 332 328 324 318 318
308 307 299 300 298 299 303 303 305 304 304 306 307 303 304 307 308 315 314 313 313 313 317 320 335 341 342 348 335 336 341 343 344 343 342 340 339 340 336 334 338 338 335 333 331 327 323 317 315
305 301 298 299 299 301 304 303 304 305 305 305 305 304 303 305 308 310 311 310 310 309 310 312 315 324 331 340 339 334 333 336 337 338 334 334 344 344 338 332 335 337 336 333 330 326 321 312 306
304 301 298 302 303 302 303 303 304 303 304 303 304 303 304 305 305 305 305 305 306 306 308 309 311 314 322 334 340 342 343 346 346 345 345 344 342 342 338 329 329 332 332 333 330 325 317 315 310
302 300 299 301 303 304 303 303 304 303 302 304 304 302 302 303 303 303 303 303 303 305 308 309 311 312 314 329 340 342 343 343 345 344 343 343 338 337 335 332 332 333 326 331 328 323 326 320 314
300 302 302 303 304 303 302 304 303 304 304 302 302 301 301 301 300 300 301 302 303 305 308 310 311 314 316 317 336 339 339 341 342 344 341 343 341 336 333 332 331 330 330 327 325 321 321 320 314
302 302 302 304 303 303 302 303 303 303 301 301 300 300 299 299 299 300 300 302 304 305 308 310 313 317 319 318 334 338 337 337 336 338 336 335 337 336 338 334 330 330 329 329 323 319 315 317 316
302 301 302 302 301 301 300 301 301 300 301 299 300 299 298 297 297 299 300 301 302 304 307 311 313 315 318 321 333 333 332 329 328 325 328 328 331 330 330 329 330 328 326 324 321 316 314 311 309
300 299 301 302 300 300 301 297 298 300 300 299 297 297 296 296 297 297 298 299 300 304 307 305 307 318 324 326 321 317 317 317 316 317 319 320 324 325 324 322 320 320 320 317 316 313 312 311 312
298 298 297 299 299 299 300 298 300 299 299 299 297 297 296 295 295 296 297 298 300 302 303 302 307 310 309 308 308 307 307 306 307 309 311 314 317 318 317 316 314 315 314 313 311 310 309 308 311
296 295 295 297 299 298 298 298 299 299 299 299 299 297 296 295 295 296 296 297 299 301 302 301 304 305 304 303 302 301 301 302 303 304 305 305 308 309 309 311 311 311 310 310 310 309 307 307 306
295 293 293 295 297 297 297 298 299 298 299 300 299 296 295 294 292 294 295 296 298 300 302 300 300 304 303 302 300 300 300 301 301 300 301 302 303 306 307 306 307 309 309 308 310 309 308 306 304
296 295 295 295 296 296 297 298 301 300 298 298 298 296 294 292 292 294 294 295 298 299 302 300 300 300 303 302 301 300 299 298 297 297 299 300 301 302 304 303 305 305 305 304 305 307 306 304 304
294 294 295 295 295 295 296 295 299 299 299 299 298 296 294 292 292 292 294 295 296 296 298 300 299 299 302 303 301 299 296 294 294 294 294 294 295 296 297 298 298 300 300 300 301 302 303 303 301
293 293 294 293 293 294 293 294 297 298 295 294 295 296 294 293 292 292 292 292 294 294 295 296 297 298 299 298 297 295 295 294 292 291 290 291 292 292 293 293 293 293 294 293 295 297 299 298 300
292 295 294 292 291 290 294 290 296 296 294 292 292 293 292 292 292 291 291 291 292 292 293 294 295 296 296 297 298 297 294 290 289 289 289 289 290 290 290 290 290 290 290 290 290 291 291 293 290
294 294 293 292 291 290 291 289 294 292 292 292 292 292 292 292 292 290 290 289 289 291 291 292 292 292 293 293 293 292 290 289 289 289 288 288 288 288 288 289 289 288 289 289 288 289 289 289 288
293 292 291 291 290 285 291 291 292 294 294 293 293 291 291 291 290 290 289 289 288 289 290 290 290 289 291 291 291 290 289 288 288 288 287 287 287 287 287 287 287 287 286 286 287 287 287 287 287
293 292 287 284 284 284 287 287 293 296 293 294 293 291 291 291 290 289 288 288 288 288 288 289 288 287 288 289 289 289 289 289 288 287 287 286 285 285 285 286 285 285 285 285 285 285 285 285 284
291 293 289 282 282 286 284 284 291 291 291 291 293 293 291 290 290 289 289 288 287 287 287 287 287 286 287 287 287 288 288 287 287 287 286 286 285 285 285 285 284 284 284 284 284 284 283 284 284
289 287 293 285 279 285 289 290 294 289 289 289 290 291 290 290 290 289 289 288 287 287 287 287 287 286 287 287 287 286 286 286 285 285 286 285 285 284 284 284 284 284 283 283 283 283 283 283 283
292 294 286 287 282 281 285 287 291 289 290 289 288 289 290 290 290 290 289 288 288 288 288 287 287 286 286 286 286 286 286 286 285 285 285 284 284 284 284 283 283 283 283 282 283 283 283 282 283
288 288 289 290 288 284 284 288 294 295 293 291 291 291 291 291 291 290 290 290 288 288 288 287 287 286 286 286 286 285 285 285 285 285 285 284 284 283 283 282 282 281 281 281 281 281 281 280 281
294 292 290 288 283 285 284 288 290 292 294 294 294 292 293 292 292 291 291 290 288 287 287 287 287 286 286 286 285 285 285 285 285 284 284 284 283 282 282 281 280 280 279 279 279 279 279 279 279

GFSSGP_sfc_thetae_033.txt.gz
Theta_e
327 324 324 322 309 306 300 300 306 303 304 309 310 308 306 308 305 302 326 334 334 340 348 351 352 354 354 353 352 351 352 350 349 348 348 348 347 348 349 348 347 345 344 342 339 337 334 332 333
323 320 322 316 304 298 299 304 302 305 308 310 309 309 307 305 313 318 323 330 335 339 346 350 349 353 353 352 352 351 351 349 348 346 346 345 348 350 349 348 347 345 344 342 340 336 332 330 329
322 318 315 309 304 299 299 304 305 307 308 308 307 310 309 308 315 319 329 332 337 339 345 349 349 352 353 352 351 351 350 349 347 346 346 345 346 349 348 347 346 343 341 340 338 335 330 327 327
319 318 313 304 300 302 302 305 307 306 308 309 309 305 311 318 319 325 332 333 335 339 344 347 349 352 352 352 350 349 350 349 348 347 347 347 346 346 347 346 344 340 338 337 335 333 327 325 326
317 314 305 302 300 302 305 307 308 306 306 307 308 305 308 315 324 327 329 332 333 339 342 348 348 350 350 350 350 350 349 349 348 347 347 348 346 347 347 344 342 339 337 336 333 331 326 323 325
311 312 302 299 300 302 305 308 307 305 305 306 305 305 308 315 318 326 329 334 336 340 343 345 342 343 347 349 349 349 349 348 346 347 347 346 346 345 344 342 340 338 337 336 332 329 324 321 322
309 306 302 301 301 301 304 308 305 305 305 305 308 304 309 309 314 324 324 325 327 336 341 343 344 344 337 340 344 346 347 347 347 347 346 345 344 344 340 341 340 338 336 334 331 328 323 319 319
310 307 301 302 300 301 306 306 307 306 305 309 309 305 305 308 311 319 318 318 318 320 324 328 339 342 344 347 335 336 339 343 344 343 342 340 340 340 337 335 339 337 335 333 330 327 323 317 314
310 302 299 300 301 303 306 304 307 309 307 307 307 307 306 308 311 314 315 314 314 313 314 316 319 328 338 340 339 333 331 335 337 338 335 334 343 343 336 332 336 338 335 332 330 327 321 312 309
306 302 300 305 305 304 306 306 306 305 305 305 305 306 307 308 309 309 309 309 309 310 312 313 315 317 322 334 340 343 343 345 345 344 344 343 343 341 339 331 330 332 332 333 330 324 319 318 315
305 301 302 304 305 307 305 305 307 305 303 306 306 306 306 307 307 307 307 307 307 310 312 313 315 316 318 327 337 341 344 344 343 344 343 342 342 340 338 333 332 333 327 332 328 324 326 324 319
302 303 304 305 306 305 304 307 305 306 306 307 307 307 306 305 304 304 304 305 307 309 312 314 316 318 320 319 335 339 340 342 342 341 341 341 341 340 336 333 334 336 332 330 326 324 321 321 318
303 304 305 306 305 305 305 304 305 305 306 305 304 304 303 303 303 304 304 306 308 309 312 315 318 319 321 320 332 338 337 337 336 335 334 337 337 337 337 335 335 331 331 330 328 324 320 317 316
304 304 304 305 305 304 302 304 303 306 305 303 303 303 302 301 301 303 303 304 306 309 312 313 314 322 319 323 326 325 325 323 321 321 325 329 330 328 328 327 326 325 326 324 320 318 317 314 312
303 300 303 304 304 302 303 300 299 306 304 302 303 302 301 300 301 300 301 302 305 309 311 308 313 316 317 316 313 313 313 313 313 314 317 320 323 325 321 319 317 317 318 317 316 314 314 315 314
300 301 298 303 302 301 302 299 305 303 302 301 302 302 301 298 299 300 300 302 305 309 305 307 310 310 308 307 306 307 308 309 309 311 313 314 317 317 318 316 313 314 313 312 310 310 309 309 308
300 296 299 300 302 301 300 300 302 303 302 302 302 302 301 299 299 299 300 301 304 308 305 305 307 305 304 303 303 303 304 305 307 307 309 310 310 309 310 310 310 310 309 310 312 311 311 310 309
297 297 299 298 300 299 299 299 302 301 302 303 303 302 300 299 297 298 299 301 304 308 305 304 305 304 303 302 302 302 302 302 305 305 306 307 308 310 311 311 310 311 310 309 312 311 310 307 306
300 298 297 301 300 297 299 300 302 302 301 302 303 302 300 298 297 298 299 301 304 307 303 304 304 304 304 303 303 302 301 301 299 300 301 301 303 304 305 305 305 306 304 304 305 308 306 304 304
298 296 297 301 299 296 298 298 302 303 302 303 303 303 300 297 296 296 298 300 302 304 303 302 302 304 305 306 304 302 299 298 297 296 296 296 297 297 298 298 299 299 298 298 299 301 303 302 302
297 296 297 297 296 297 296 295 298 302 304 304 302 304 301 298 296 295 296 298 301 302 303 302 303 304 304 302 300 298 297 297 294 293 292 292 293 293 295 294 294 294 294 292 293 294 295 294 298
294 300 297 296 294 291 297 290 298 302 299 298 299 300 299 298 297 296 295 297 298 298 300 301 301 301 301 301 300 299 297 292 292 291 291 291 291 291 292 292 292 292 292 291 291 291 292 292 289
296 298 297 296 294 294 294 290 296 301 299 298 297 298 298 297 296 295 295 294 295 296 297 298 297 297 298 299 299 296 293 292 291 290 289 289 289 290 290 290 290 290 290 290 290 290 290 290 289
298 296 294 294 294 287 292 292 294 296 296 300 298 297 297 295 295 295 294 293 293 294 294 295 295 294 295 295 295 293 292 291 290 289 288 288 288 288 288 288 289 288 288 288 288 289 288 288 287
296 294 289 286 285 286 291 291 295 299 296 298 296 296 295 295 294 293 291 291 291 292 292 292 292 291 292 293 293 293 292 291 290 289 288 287 287 286 286 287 287 286 286 286 287 287 286 286 285
293 295 290 283 285 288 286 285 293 299 297 296 299 296 295 293 293 292 292 291 290 290 290 290 290 289 290 291 291 291 291 290 289 289 289 288 287 286 287 286 286 285 285 285 285 286 285 285 285
292 290 297 289 284 286 290 292 297 293 292 293 295 294 293 292 293 293 292 291 289 289 289 290 289 289 289 289 289 289 289 289 288 288 288 287 287 286 286 286 285 285 285 285 285 285 284 285 285
295 297 287 289 284 283 289 291 292 290 292 292 292 292 292 293 293 293 291 290 290 290 290 289 289 288 288 289 288 288 288 288 287 287 287 286 285 285 285 285 285 284 284 284 284 284 284 283 284
290 290 291 292 291 286 285 290 299 298 297 293 293 294 294 293 293 293 292 291 290 290 290 289 288 288 288 288 287 287 287 287 287 287 286 286 286 285 284 284 284 283 282 282 282 282 281 281 281
296 293 293 288 285 287 288 290 295 300 300 297 295 295 296 295 294 294 293 291 290 289 289 289 288 288 288 287 287 287 286 286 286 286 286 286 285 285 283 283 282 281 281 281 280 280 280 280 279

GFSSGP_sfc_thetae_036.txt.gz
Theta_e
325 321 319 318 305 302 295 296 300 300 300 303 304 303 301 304 303 301 323 329 332 344 348 351 352 353 354 353 352 352 353 352 350 350 350 348 348 350 348 347 347 345 344 342 339 336 334 332 333
318 320 317 313 299 293 293 299 299 301 303 304 303 303 303 302 312 317 320 329 333 343 347 348 349 352 353 352 352 352 352 351 348 347 346 348 350 349 348 348 346 344 342 340 339 335 331 330 330
320 318 310 305 299 294 294 299 300 303 303 303 301 304 305 306 315 319 323 330 334 338 346 347 348 352 351 350 351 352 351 350 348 346 346 347 349 349 348 346 343 341 339 337 337 332 329 329 330
315 314 309 298 296 298 299 300 302 302 303 304 303 301 308 316 316 321 327 328 334 336 346 345 349 350 351 351 351 351 350 349 348 347 347 346 346 347 347 344 341 339 338 336 334 329 327 327 328
313 310 301 296 296 298 301 303 302 301 299 302 300 301 304 314 322 322 325 328 332 335 345 347 348 349 349 349 350 350 349 347 347 348 348 346 346 347 345 344 340 339 337 334 332 328 325 324 326
308 307 297 294 295 299 301 302 301 300 300 299 298 302 302 311 318 321 326 329 334 337 341 345 342 343 346 348 348 349 349 348 347 347 347 346 346 346 344 342 340 339 336 334 331 327 323 322 321
305 302 297 296 296 296 301 302 297 299 299 300 301 299 302 305 311 318 318 320 322 326 335 340 343 341 335 337 341 345 346 345 345 346 345 345 344 344 342 342 340 338 336 334 331 327 321 318 317
305 301 295 293 296 296 301 301 302 301 299 304 303 298 297 301 307 314 312 312 312 314 316 319 328 339 340 342 333 334 338 341 343 342 340 339 339 337 337 335 338 338 335 333 331 327 320 315 314
306 296 294 295 296 299 302 300 301 302 300 302 303 300 301 304 308 310 308 308 308 309 309 311 314 319 334 338 336 331 331 334 337 337 334 332 339 335 332 332 335 337 335 333 330 326 319 315 314
301 297 297 301 300 299 301 300 302 299 300 298 299 302 303 304 305 305 303 303 303 304 306 309 310 312 315 331 336 339 339 340 341 339 337 338 337 339 334 327 330 333 332 332 328 324 322 319 308
301 296 298 301 303 303 302 299 301 298 297 300 300 300 302 302 302 302 301 302 301 303 308 310 310 311 312 316 332 335 337 337 338 339 337 336 336 333 331 327 328 328 326 326 325 322 321 316 311
298 300 301 304 304 302 300 302 299 300 298 303 302 302 302 301 300 300 300 301 302 305 308 311 313 314 314 313 325 335 334 334 333 333 334 335 334 331 331 330 330 330 327 325 323 317 316 316 314
299 301 302 304 302 301 303 300 300 299 301 301 302 302 300 299 300 300 301 302 304 305 309 310 313 315 316 314 328 331 327 325 324 326 328 331 331 329 330 330 329 328 326 323 323 318 315 311 313
302 302 301 302 302 301 299 299 299 300 300 299 300 299 298 298 298 299 299 300 303 307 307 309 314 317 318 319 319 319 319 319 317 320 322 325 326 324 322 320 320 320 320 319 316 314 313 311 311
301 296 299 300 300 299 300 296 297 301 300 299 298 297 297 297 298 297 297 299 301 306 306 308 311 313 312 311 311 313 313 313 313 315 316 317 320 320 317 315 314 314 315 314 313 312 312 310 310
296 295 292 299 300 298 297 292 300 300 298 297 297 296 296 296 297 297 297 299 302 305 304 308 309 307 307 307 307 307 308 308 309 309 309 310 313 313 312 311 310 312 312 311 310 309 309 309 308
295 289 293 295 300 297 295 294 297 299 298 297 296 296 296 295 295 295 297 298 302 303 305 306 306 304 304 304 304 305 306 306 306 307 308 308 307 308 308 307 307 309 309 309 310 307 305 301 300
291 290 294 293 296 296 294 293 297 298 298 297 297 296 296 295 295 296 297 299 303 302 304 305 304 303 303 303 303 302 302 302 302 301 301 303 304 305 305 303 303 303 302 301 302 302 301 298 297
296 293 292 295 296 294 294 295 298 297 296 296 297 296 296 295 294 295 296 298 302 301 303 304 302 303 303 303 301 300 298 297 295 296 296 296 298 300 299 299 299 297 296 295 297 300 298 295 295
295 292 292 296 296 293 293 293 297 298 297 298 298 297 296 293 292 294 295 297 301 300 301 302 303 304 304 305 301 299 296 293 292 291 292 292 293 293 293 292 291 291 290 289 290 290 293 293 291
293 292 292 293 294 292 290 289 293 298 300 299 299 298 298 293 291 292 293 295 297 300 300 300 301 303 302 299 296 294 293 291 289 288 287 289 290 290 290 289 289 288 288 287 287 287 287 286 288
291 296 296 294 289 285 291 283 292 296 297 299 296 295 294 293 293 292 293 294 295 296 300 301 301 300 299 296 294 292 290 287 287 286 286 287 288 288 288 288 288 287 287 286 286 287 285 285 283
293 296 293 292 290 288 288 286 290 296 295 296 294 294 294 293 292 291 291 294 294 294 294 296 294 295 296 296 294 290 287 287 286 286 285 285 285 286 286 286 285 285 286 285 284 284 284 284 282
296 293 291 290 289 281 289 288 288 293 296 296 295 295 294 292 291 291 291 291 291 291 292 292 291 291 292 292 290 288 286 286 285 284 284 283 283 284 284 285 284 284 283 283 283 283 282 282 282
293 290 283 280 279 280 287 287 291 294 293 295 295 294 294 292 290 290 288 288 288 288 289 290 289 289 290 289 289 288 287 286 285 284 283 283 282 282 282 283 282 282 282 283 283 281 281 281 280
290 291 284 279 279 281 283 281 288 293 293 293 296 295 293 291 290 289 288 288 288 288 288 287 287 287 287 288 287 287 287 285 285 285 284 283 282 282 282 282 282 281 282 282 282 280 280 280 279
290 287 294 285 277 278 285 287 292 290 289 290 292 292 291 291 290 289 289 287 287 287 286 286 286 286 286 286 286 285 285 284 284 284 283 282 282 283 282 282 281 281 281 281 281 279 279 279 279
291 294 284 284 274 275 283 286 287 287 289 289 291 291 291 291 290 290 289 288 287 287 286 286 286 285 286 285 285 285 284 284 284 283 282 282 281 281 281 281 280 280 279 279 279 278 278 278 278
288 287 289 289 285 279 278 284 292 293 292 289 291 292 291 290 290 290 289 288 287 286 286 285 285 285 284 285 284 283 283 283 283 282 282 281 281 281 280 280 279 279 278 278 277 277 277 277 277
291 290 290 283 282 285 282 286 292 293 294 293 292 292 292 291 291 290 289 287 286 286 286 285 284 284 284 284 283 282 282 282 282 281 281 281 280 280 279 279 279 278 278 277 277 277 277 276 276

GFSSGP_sfc_thetae_039.txt.gz
Theta_e
319 313 311 311 300 293 289 292 294 296 296 299 301 304 302 302 304 298 320 329 344 346 349 349 350 354 353 353 353 353 353 352 351 350 349 349 350 348 347 346 346 341 339 340 337 335 333 333 335
313 317 311 304 294 286 287 292 295 296 299 302 302 301 301 304 313 316 317 329 344 346 348 350 347 352 352 352 352 352 351 350 347 347 349 350 349 348 347 345 342 340 338 339 336 334 332 332 333
316 313 303 298 291 288 289 293 296 298 300 299 299 303 303 305 313 317 321 329 344 344 347 348 347 351 351 351 351 351 350 350 347 346 348 349 348 348 345 342 341 338 336 336 333 331 330 330 330
308 307 302 293 289 293 294 294 298 298 300 302 300 301 306 313 314 321 324 332 334 342 346 345 348 351 351 350 351 351 350 348 347 347 347 347 347 347 343 341 340 337 334 332 330 328 327 327 328
306 302 295 290 290 294 294 298 298 297 297 297 300 299 303 314 319 322 326 331 334 341 344 345 346 349 350 350 349 350 349 349 348 348 347 346 347 345 343 341 340 336 336 332 328 325 324 323 324
302 299 291 288 289 295 296 298 298 295 295 297 300 299 300 309 318 318 322 321 330 338 344 345 339 343 345 347 348 348 349 348 348 348 347 346 346 344 342 341 339 337 336 333 330 324 321 320 319
298 294 290 289 290 292 297 298 294 296 295 297 300 297 299 303 312 315 316 316 317 320 324 341 342 338 336 337 341 344 345 346 346 346 345 344 343 344 343 341 340 337 336 334 330 323 319 317 316
299 294 290 292 291 291 298 298 298 299 295 300 300 296 294 300 310 310 309 308 308 309 311 313 319 338 341 339 331 334 340 341 342 341 339 337 337 338 337 335 338 337 335 333 329 322 319 316 315
299 291 288 291 292 294 297 296 299 300 299 299 299 298 299 303 308 306 304 304 304 306 307 308 310 313 321 337 334 330 331 334 335 335 333 331 335 333 332 332 336 337 335 332 328 324 319 315 315
295 290 292 295 295 295 298 297 299 296 296 295 296 298 301 302 303 303 300 299 300 302 305 307 308 310 313 327 337 339 339 337 338 338 335 337 335 336 333 328 329 332 332 331 328 328 322 315 305
296 291 294 297 300 300 299 297 298 296 294 297 297 298 300 299 299 299 299 299 300 303 306 309 309 310 310 313 330 334 338 334 335 335 336 337 333 332 329 325 325 326 324 325 322 319 316 310 308
292 296 298 301 301 299 297 299 297 296 296 299 299 299 298 298 298 298 298 299 301 304 307 309 311 312 312 312 323 334 330 329 328 329 333 335 333 331 328 329 330 327 326 320 320 317 315 312 313
295 296 299 300 299 298 300 297 297 295 296 299 300 299 298 297 297 298 300 301 303 305 306 308 311 313 316 314 328 326 321 321 323 324 328 330 328 330 330 328 326 324 320 323 317 315 312 311 311
298 298 298 300 299 298 297 295 296 296 296 297 298 296 296 297 297 297 298 299 303 306 304 307 310 312 315 319 319 317 318 318 320 320 321 325 324 323 321 319 318 318 318 317 315 311 311 311 310
298 293 295 297 298 297 297 294 295 297 296 296 295 294 295 296 296 295 297 298 303 304 305 307 308 312 308 312 312 312 313 314 312 314 316 317 319 317 316 314 314 314 314 314 313 311 311 310 310
293 291 288 295 297 296 295 290 298 297 295 294 294 292 293 295 295 295 296 298 303 303 304 307 307 307 307 307 307 308 308 309 309 309 311 313 313 311 309 309 308 311 311 308 307 307 303 302 300
289 286 288 293 296 295 293 290 295 296 296 294 293 292 293 293 293 294 296 298 301 302 303 303 304 304 304 305 306 305 306 306 306 307 307 308 307 307 306 305 304 304 303 305 304 299 298 295 296
287 287 290 290 294 293 290 291 294 296 295 294 293 292 292 292 292 294 296 300 301 301 302 303 303 303 303 303 303 301 300 300 300 299 299 300 301 302 301 299 298 298 297 297 300 296 294 293 293
291 289 288 291 294 292 291 291 294 296 294 293 292 292 293 293 292 294 296 299 299 299 301 302 302 302 303 302 300 298 295 295 294 293 293 294 295 296 296 295 293 292 291 291 295 296 290 288 289
292 290 289 292 294 292 291 291 294 295 294 295 295 295 294 290 291 293 294 297 298 298 300 301 302 303 303 303 300 297 293 291 290 289 289 290 291 291 291 290 288 288 288 287 287 289 289 287 286
291 289 289 290 291 290 288 287 291 294 296 295 297 297 296 292 290 291 293 295 297 296 297 302 303 303 300 297 295 293 291 290 287 286 286 287 288 289 289 288 287 287 286 285 284 285 285 284 285
288 293 293 291 288 284 288 282 289 294 294 294 296 294 295 291 291 292 293 293 296 296 298 301 302 299 297 296 293 290 288 286 285 285 285 286 287 287 287 287 286 286 285 284 284 284 283 283 281
291 293 291 290 287 285 285 283 287 293 293 296 296 295 293 291 291 291 293 295 295 295 296 299 299 297 296 295 292 289 286 286 285 284 284 284 285 285 285 285 285 284 284 283 283 282 282 282 281
294 292 291 289 287 280 286 286 285 291 294 296 292 291 291 290 290 291 292 293 292 292 292 293 295 295 295 292 289 288 286 285 284 283 283 283 283 283 283 284 283 283 283 282 282 281 281 280 280
292 289 281 279 278 280 286 284 290 293 294 295 295 292 290 290 289 289 289 290 289 289 289 290 290 289 289 289 288 287 286 285 284 283 283 282 282 281 281 282 281 281 282 281 281 280 280 279 279
288 289 283 277 277 279 282 281 288 294 294 292 295 294 291 289 289 289 289 289 289 289 288 289 287 287 287 288 287 287 286 285 285 284 283 282 282 281 281 281 281 280 281 281 280 279 279 279 278
288 286 292 284 273 276 283 286 291 290 290 289 290 291 290 289 288 287 287 287 287 287 287 287 286 286 286 287 287 286 285 285 284 283 282 282 281 282 281 280 280 280 280 280 279 278 278 278 278
291 292 285 283 274 273 280 282 287 287 290 289 289 290 290 290 288 287 287 286 287 287 286 285 286 286 286 286 286 285 284 284 284 283 281 281 281 281 280 279 279 279 279 279 279 277 277 277 277
288 286 289 289 284 278 276 283 290 293 293 289 290 291 290 289 289 288 287 287 287 286 285 285 285 285 284 285 284 283 283 283 283 282 281 280 280 280 280 279 279 278 278 278 277 277 277 277 276
291 289 288 283 282 281 281 286 290 291 293 291 291 292 291 291 290 288 287 286 286 285 285 284 285 285 285 284 283 282 282 282 281 281 280 280 280 280 279 279 278 278 277 277 277 276 276 276 276

GFSSGP_sfc_thetae_042.txt.gz
Theta_e
318 312 309 309 297 292 287 289 291 294 294 297 302 304 301 302 302 295 318 338 343 345 347 348 350 352 352 353 352 352 352 351 350 348 350 349 348 348 345 342 339 338 340 338 336 335 334 334 335
316 314 309 300 290 285 287 290 294 295 298 301 301 300 302 304 311 315 317 340 344 346 347 347 347 351 352 352 352 351 350 349 347 349 350 348 348 346 343 341 338 337 337 336 334 332 332 331 333
313 309 302 295 288 286 288 292 295 298 299 298 297 303 303 304 313 315 320 341 343 344 347 346 347 350 351 350 351 350 350 349 346 348 348 348 347 344 342 340 337 334 333 332 330 329 329 329 331
307 306 300 290 287 289 293 294 295 297 297 300 301 300 307 311 313 319 325 342 341 343 345 344 348 350 350 351 351 350 349 347 347 346 347 346 346 343 342 339 337 336 332 329 327 325 325 326 328
304 300 293 288 289 292 292 294 297 295 295 296 299 298 305 313 321 324 328 336 339 341 343 344 346 348 349 350 350 350 349 348 348 347 346 346 346 343 341 338 338 336 334 331 324 323 322 322 324
300 297 289 286 287 293 294 297 297 294 293 297 299 298 300 309 318 318 322 325 337 340 343 343 340 343 346 347 348 348 347 347 347 347 345 346 345 343 341 339 338 336 334 331 325 321 319 320 321
296 292 289 288 288 291 295 297 294 294 295 295 301 296 299 305 313 316 314 313 315 320 330 339 340 338 339 341 342 344 345 345 345 346 346 345 343 343 342 340 338 336 334 330 325 321 318 318 319
297 293 287 287 289 290 295 296 297 296 294 299 298 295 296 301 310 309 307 306 306 310 312 314 329 339 338 337 332 337 340 341 342 341 339 336 337 338 337 335 337 336 333 329 326 322 319 318 317
295 289 287 289 290 292 295 295 297 297 297 297 297 296 298 305 306 303 302 302 303 306 307 308 311 316 334 340 334 331 335 337 335 334 331 331 333 333 332 331 335 335 333 329 326 322 318 316 317
294 288 290 293 293 293 296 296 297 295 295 293 294 297 299 303 303 302 299 299 299 301 305 306 308 310 314 327 338 339 338 336 336 336 333 335 331 332 333 328 330 332 330 330 328 323 318 311 303
293 290 293 295 298 297 296 294 296 294 292 296 296 297 299 299 300 299 298 298 300 302 306 309 309 310 309 312 329 334 338 335 333 335 334 336 333 331 329 328 327 324 321 319 317 315 312 307 306
289 294 296 299 299 298 296 296 295 295 295 298 298 298 297 297 297 298 298 299 302 303 304 308 310 311 311 311 322 330 331 330 326 328 332 333 332 329 327 326 327 327 324 316 314 312 311 310 308
292 294 297 299 298 296 298 295 295 295 294 296 298 298 297 296 296 297 298 300 302 304 303 306 309 311 313 314 326 324 321 324 323 323 329 332 331 329 329 326 324 323 323 319 313 312 312 309 310
296 296 296 298 297 297 296 294 295 295 295 296 297 296 295 296 296 296 298 299 302 304 302 306 309 311 315 319 319 318 318 320 321 320 323 325 325 323 321 320 318 318 317 316 313 312 309 311 310
296 291 293 295 296 295 296 292 294 295 295 295 294 294 294 295 296 296 297 298 303 303 305 305 308 309 310 313 313 314 315 315 314 315 317 318 319 318 317 316 314 314 314 314 312 309 309 307 307
291 290 287 293 295 295 294 289 295 295 294 293 293 291 293 294 295 295 296 298 302 303 303 304 308 306 305 309 309 309 310 310 310 311 313 314 313 313 312 312 311 312 311 309 305 302 299 298 299
288 285 286 291 295 293 292 290 294 293 293 292 291 291 292 292 293 293 295 299 301 302 302 302 303 303 304 306 307 306 306 306 307 308 309 309 308 307 305 302 303 303 303 300 297 294 295 295 296
286 285 287 288 292 291 289 290 293 294 293 293 291 291 291 292 293 293 295 299 300 301 301 301 301 304 304 303 302 301 300 299 299 301 302 302 300 300 298 297 297 298 298 296 293 290 290 291 295
289 287 287 289 294 291 290 290 293 294 292 292 291 291 292 292 292 293 294 299 299 299 299 300 299 301 302 301 300 298 296 295 295 296 297 295 295 296 294 292 291 292 293 292 292 289 287 287 288
289 287 287 291 293 291 290 290 292 293 293 294 295 293 293 291 290 292 293 297 298 298 299 299 300 300 302 303 299 296 294 291 291 291 289 290 291 290 289 289 288 288 287 286 287 288 287 285 284
289 288 287 289 289 289 287 286 290 294 294 294 295 297 295 293 291 291 293 297 296 297 298 300 300 301 302 298 294 291 291 290 289 286 286 287 288 288 288 287 286 286 286 284 284 285 285 283 283
288 293 292 290 287 283 288 282 287 291 292 293 295 294 295 293 292 292 293 295 297 297 298 300 301 300 296 295 293 292 288 286 286 284 284 285 286 286 287 286 286 285 285 284 283 283 283 283 281
291 293 290 288 285 284 284 282 286 290 290 294 298 295 294 293 292 291 293 296 297 297 297 298 298 295 295 295 294 290 286 285 285 284 284 284 284 285 285 285 284 284 283 282 282 282 281 281 280
293 291 289 287 285 280 286 285 284 289 293 293 295 294 293 291 291 292 293 295 296 294 295 295 295 295 295 294 291 288 285 284 284 283 283 282 283 283 283 283 283 282 282 281 281 280 280 280 279
291 287 280 279 277 280 284 282 289 292 294 295 297 295 290 290 290 290 291 293 294 293 293 294 295 294 293 291 289 287 286 285 284 283 283 282 281 280 281 282 281 281 281 281 280 280 279 279 278
289 287 281 276 276 279 282 280 287 293 296 293 293 293 289 287 289 290 291 293 294 292 291 293 292 292 290 288 286 286 285 285 284 283 283 282 281 281 280 280 280 280 280 280 279 279 279 278 278
287 286 291 284 271 276 283 286 290 291 291 291 291 290 287 287 288 289 290 291 291 291 291 290 288 289 288 287 286 285 285 284 283 282 282 281 280 281 280 280 279 279 279 279 279 278 278 277 278
289 292 283 282 274 273 280 281 286 287 290 292 291 289 288 287 286 287 288 289 290 290 289 287 288 287 287 286 286 285 285 284 283 282 280 280 280 280 279 279 279 279 279 279 278 277 277 277 276
287 286 287 287 282 277 274 282 289 293 293 292 292 291 289 288 287 287 287 287 288 288 286 287 286 285 285 286 285 284 283 283 282 281 281 280 280 279 279 279 279 279 278 278 277 277 277 277 276
288 287 288 282 280 281 280 287 290 291 292 292 293 291 290 289 288 287 287 286 285 286 286 286 285 285 285 285 284 283 283 282 281 281 280 280 280 279 279 279 278 278 278 277 276 276 276 276 276

GFSSGP_sfc_thetae_045.txt.gz
Theta_e
320 311 309 306 295 291 285 288 290 292 294 299 302 299 298 302 299 292 317 329 339 342 345 346 350 352 352 352 352 352 352 350 349 350 348 348 346 343 340 338 339 339 337 336 335 333 333 336 338
316 311 307 297 289 285 286 290 292 293 299 301 300 300 303 303 310 314 319 338 342 344 345 346 347 350 351 351 351 351 350 349 350 349 348 347 344 342 339 336 334 334 333 332 332 331 332 335 336
311 307 300 292 286 285 287 290 292 296 300 296 299 302 303 304 313 314 320 340 343 343 345 344 346 350 350 350 350 350 349 349 349 348 347 346 343 342 338 337 334 331 329 328 328 329 331 332 335
306 304 297 290 286 289 291 293 292 296 296 299 301 300 307 311 311 318 327 340 340 342 343 343 347 350 350 350 349 349 348 346 347 347 346 346 343 341 338 338 336 333 328 326 325 326 329 329 330
302 298 290 288 287 290 290 293 294 295 293 294 297 299 304 313 320 324 334 338 338 340 341 342 346 348 350 350 349 349 348 347 346 346 346 345 343 341 339 338 336 334 329 325 323 324 325 326 327
298 295 288 285 287 291 293 294 295 293 293 296 299 299 302 310 318 319 330 332 335 339 341 342 339 342 345 347 348 348 348 349 348 347 346 345 343 341 339 338 336 334 330 326 321 321 323 323 323
295 292 288 286 287 290 294 295 293 292 293 293 300 296 300 308 314 315 315 318 322 330 338 338 340 340 337 341 342 344 345 346 346 346 346 344 343 342 340 339 337 334 331 328 324 322 321 320 320
294 292 286 286 288 289 294 294 294 294 292 297 297 295 300 304 312 308 308 308 311 314 319 327 336 337 336 336 330 335 339 341 341 341 339 336 337 338 337 334 337 333 330 328 325 322 320 319 319
293 288 286 288 289 291 294 293 295 295 296 294 296 296 297 307 305 304 303 304 305 307 308 310 319 325 335 337 333 329 334 335 335 334 331 330 333 333 332 331 334 334 330 327 324 320 317 314 315
292 287 290 293 291 292 294 293 296 294 293 291 293 295 301 304 301 303 303 303 302 303 305 306 308 311 315 326 337 337 337 335 335 334 332 332 331 331 332 327 329 329 328 329 324 319 314 307 301
290 289 292 294 296 296 294 293 294 294 291 295 295 297 300 300 300 300 299 299 300 301 305 309 309 311 310 314 331 336 339 337 335 336 335 333 332 331 330 328 326 323 318 316 314 311 308 305 303
292 292 293 297 297 295 294 295 293 294 295 296 297 299 298 300 300 299 298 298 300 302 304 306 308 310 311 310 324 332 332 331 329 332 332 333 331 328 327 327 326 325 321 313 311 309 308 307 306
290 292 295 297 296 295 297 294 294 295 295 295 296 297 297 298 298 297 298 298 301 303 304 305 307 309 311 311 327 326 325 325 325 329 332 332 330 328 328 327 325 323 321 317 311 309 309 308 308
294 295 294 296 295 295 295 293 293 295 293 293 296 295 295 296 296 295 296 298 301 303 303 305 308 311 314 317 321 320 321 322 322 323 326 327 328 326 324 321 319 318 317 316 313 309 310 310 309
294 290 292 292 295 294 295 292 293 294 294 294 294 293 294 295 295 296 296 298 300 303 304 305 307 312 314 316 315 317 317 317 317 318 320 321 322 321 319 317 315 315 314 313 311 308 307 306 306
290 289 287 291 294 293 292 287 294 294 293 293 292 292 293 294 295 294 296 297 301 302 303 305 308 310 311 312 312 312 312 312 313 314 315 316 316 316 315 314 312 312 310 308 304 302 299 299 299
287 284 285 290 294 292 291 288 292 292 292 292 291 291 292 292 293 294 294 296 300 301 302 302 303 307 307 307 307 308 307 308 310 311 311 311 311 311 311 309 308 306 303 300 296 294 296 298 296
285 284 285 286 291 290 288 289 292 292 292 293 291 291 291 292 294 293 293 296 300 300 301 301 302 304 304 302 302 302 300 299 301 302 305 306 305 305 305 303 302 300 294 291 291 292 292 294 295
288 286 286 288 292 290 289 289 293 293 291 291 291 291 292 293 295 292 293 296 298 299 299 299 300 300 300 299 299 299 298 297 296 297 300 300 299 297 297 296 296 295 291 289 289 289 293 288 290
287 286 286 289 291 290 289 289 292 291 292 294 294 294 293 293 290 292 292 295 298 299 299 299 300 299 300 300 297 296 295 290 292 293 294 295 293 292 292 292 291 289 288 287 287 287 285 284 284
288 286 286 288 289 288 287 286 289 293 292 293 294 297 297 295 293 292 291 295 297 298 299 300 300 300 300 297 292 290 290 291 291 290 290 289 289 288 289 288 287 285 285 284 284 285 284 282 282
286 291 290 288 286 283 286 281 286 290 292 292 295 295 296 294 294 293 292 294 297 299 299 300 300 300 296 294 292 293 290 287 289 288 288 286 286 286 286 286 285 285 284 283 283 284 283 282 281
289 291 289 287 285 282 283 281 285 288 290 293 296 297 295 294 293 292 293 295 297 298 298 299 299 297 295 294 295 294 291 285 285 286 286 284 284 285 285 284 283 283 283 282 282 282 281 281 280
292 290 288 286 284 279 285 284 284 287 291 293 295 296 295 293 291 292 293 294 296 297 297 297 298 295 294 295 294 292 289 285 284 284 285 283 282 282 282 282 282 281 282 281 281 280 280 280 279
290 287 280 278 277 279 283 282 289 291 293 295 297 295 293 290 289 289 289 292 294 295 296 297 297 294 293 293 292 290 289 288 285 284 283 282 281 280 280 281 281 281 281 280 280 280 279 279 278
288 287 281 275 275 278 282 280 287 291 294 293 294 294 291 289 288 289 290 292 294 295 296 297 296 294 292 291 291 290 289 288 287 285 284 283 282 281 280 280 280 280 280 280 279 279 279 278 278
287 284 289 283 271 275 282 285 289 291 291 291 292 291 290 289 287 287 289 292 294 294 295 297 295 292 291 290 289 288 288 287 285 282 282 281 280 281 279 280 279 279 279 279 279 279 278 278 278
289 291 283 281 273 271 279 281 285 289 291 293 292 292 290 288 286 286 288 290 292 294 294 294 293 291 290 288 287 286 286 285 284 282 281 280 280 280 279 279 279 279 279 279 279 278 277 277 277
286 285 285 286 282 277 274 282 288 292 292 292 293 294 291 288 286 286 287 289 290 291 290 289 290 288 287 286 285 284 283 284 283 282 281 280 280 279 279 279 279 279 279 278 278 277 277 277 277
286 286 288 281 279 280 280 285 289 291 293 292 293 293 289 289 287 286 286 287 287 288 288 290 289 287 287 286 285 284 283 282 281 281 280 280 280 279 279 279 279 279 279 278 277 277 277 276 276

GFSSGP_sfc_thetae_048.txt.gz
Theta_e
320 311 308 302 294 290 286 288 292 291 292 298 300 297 296 301 297 290 314 328 338 339 343 346 350 351 352 352 350 351 351 351 349 348 347 344 341 338 338 338 336 335 335 334 334 338 339 343 343
315 309 304 295 288 284 285 289 291 292 300 301 300 299 302 300 310 314 320 335 340 341 343 344 346 350 351 351 351 350 349 351 349 347 346 343 340 338 335 334 333 332 332 332 333 336 340 341 340
309 305 299 291 285 284 286 289 291 295 300 294 298 302 302 304 311 314 320 339 341 341 343 343 346 350 350 350 350 349 350 350 348 347 345 343 340 339 337 334 331 329 329 330 332 335 337 339 338
305 302 295 289 286 287 289 291 292 296 296 298 300 300 304 309 310 316 331 339 339 340 341 342 347 350 350 349 348 348 348 348 347 346 345 343 340 340 338 336 332 327 326 327 330 331 333 335 333
301 296 289 287 286 289 290 292 294 294 292 294 296 298 301 311 318 320 333 338 337 338 340 341 346 348 349 349 348 348 348 348 347 347 344 342 340 340 338 336 333 328 325 325 327 328 329 329 327
297 294 287 285 287 291 292 292 294 292 292 295 299 301 303 308 315 317 333 333 335 338 339 340 339 342 345 347 348 348 348 348 347 346 345 343 340 340 338 336 334 330 327 324 324 324 324 324 322
294 290 286 285 287 289 292 294 291 292 294 294 301 297 300 306 314 317 322 325 329 334 337 338 339 338 337 340 342 344 346 346 346 346 345 343 341 340 339 338 335 332 330 326 324 322 322 321 319
293 291 284 286 288 288 294 293 292 293 291 296 297 295 298 306 314 310 312 314 317 322 329 333 337 339 339 338 332 336 339 341 341 341 338 336 337 337 335 333 334 331 328 326 323 322 320 319 317
291 288 285 287 288 290 293 292 292 293 294 293 295 296 298 309 307 308 308 308 310 311 312 315 329 332 335 334 332 328 334 335 335 334 331 330 332 331 330 330 332 331 329 325 321 317 316 315 314
289 286 289 291 289 292 292 292 295 293 292 293 293 294 301 305 304 309 310 312 309 308 307 308 312 316 319 330 338 336 336 335 334 334 332 332 330 331 331 326 327 328 327 324 320 316 311 305 299
288 287 291 292 294 294 293 291 294 293 290 294 295 296 301 301 303 308 309 310 309 305 306 308 308 311 314 319 332 337 338 334 333 335 335 333 332 331 330 326 324 320 316 312 310 307 305 303 302
291 291 291 295 295 293 292 294 293 293 294 294 296 298 300 301 301 303 304 302 301 302 304 307 308 309 310 311 319 331 334 334 334 334 334 332 330 329 328 326 324 321 317 311 308 306 306 305 303
291 291 294 295 294 295 295 293 293 293 294 294 295 299 300 301 299 298 298 298 299 301 303 306 306 308 310 309 327 326 328 329 329 332 333 332 329 328 327 326 325 321 318 314 309 308 308 305 303
293 293 293 294 294 293 293 294 296 296 293 292 294 295 297 299 299 296 296 297 298 301 303 304 306 308 310 312 322 324 325 325 326 328 331 331 330 328 326 322 321 318 317 314 312 311 310 308 305
293 290 291 290 293 292 295 291 293 294 292 293 293 293 294 295 296 298 297 297 298 301 302 304 306 308 313 313 319 319 321 321 321 321 324 326 327 325 322 319 317 315 315 313 310 308 308 304 300
289 288 286 289 293 292 291 286 293 292 293 294 292 291 292 294 295 295 296 296 298 300 302 303 309 313 315 310 315 313 316 315 316 317 318 320 321 321 319 316 314 313 311 309 305 304 301 296 294
287 283 284 289 293 291 289 287 291 291 291 292 291 291 292 292 293 294 294 295 297 300 301 302 304 310 311 307 309 307 310 311 312 313 314 314 315 316 315 313 311 308 305 303 301 298 298 294 291
284 283 284 285 289 288 287 288 292 292 291 292 291 291 291 292 294 295 294 294 297 299 301 301 302 304 307 305 303 302 303 303 306 308 309 309 308 309 309 307 304 301 298 297 297 295 293 293 289
286 284 285 286 290 288 288 288 291 293 290 291 291 290 292 293 297 293 293 293 297 298 299 300 300 304 304 303 302 300 301 300 300 301 304 304 304 304 304 302 299 295 294 293 296 294 293 289 288
286 285 285 288 289 288 288 289 292 291 291 292 294 293 293 293 292 292 292 292 296 298 299 299 300 304 304 303 298 296 295 292 295 296 296 298 298 299 299 298 292 290 290 291 292 291 285 284 284
287 285 285 287 288 287 285 285 287 291 291 292 293 296 296 295 295 292 291 292 295 297 299 300 300 301 304 301 293 291 292 293 293 292 293 293 294 294 293 291 289 287 289 291 287 287 287 282 281
284 289 288 287 285 282 285 280 285 289 291 292 295 293 295 296 295 294 292 291 294 297 300 301 300 300 300 296 295 295 291 290 290 291 290 289 290 289 289 288 286 285 285 285 285 284 283 283 280
288 290 288 287 284 281 281 281 284 287 289 292 296 295 294 295 294 293 292 293 295 297 299 300 299 299 298 295 296 296 293 287 286 289 288 287 287 286 286 285 284 283 283 282 282 281 282 281 280
292 289 287 285 283 279 283 283 283 286 290 291 295 296 295 293 292 291 291 291 293 295 297 298 298 298 295 294 294 296 291 287 287 287 287 286 285 283 283 283 282 282 282 281 281 280 281 280 279
288 287 280 277 276 278 282 281 288 289 292 291 294 295 292 292 290 289 289 289 292 294 296 298 298 296 294 294 293 292 291 290 290 287 287 284 283 281 281 281 281 281 280 280 280 280 280 280 280
287 287 280 274 274 277 281 280 285 291 292 292 292 293 291 291 290 289 288 289 292 294 296 298 298 296 293 294 292 291 291 292 291 289 287 286 285 282 281 281 280 280 280 280 279 280 279 280 279
286 284 288 283 270 275 281 283 288 290 291 291 291 291 292 291 291 289 288 289 291 293 295 297 297 296 293 293 291 289 290 290 289 287 286 284 283 282 280 280 279 279 279 279 279 279 278 278 278
288 290 283 281 274 271 278 280 283 288 290 292 291 292 292 290 290 288 287 288 291 293 295 296 297 295 292 292 290 289 289 289 288 286 285 283 283 281 279 279 279 278 279 279 279 278 278 278 277
286 285 284 285 281 276 273 282 287 290 292 291 293 293 291 291 290 289 287 288 290 291 293 295 294 291 290 290 288 286 287 287 286 285 284 283 282 280 280 279 279 279 279 279 278 278 278 278 277
285 285 286 280 278 279 279 284 289 290 291 291 292 292 291 290 290 288 286 287 288 289 290 291 292 291 291 288 286 285 285 285 285 284 283 282 281 280 280 279 279 279 279 279 278 278 278 277 276

GFSSGP_sfc_thetae_051.txt.gz
Theta_e
322 313 312 306 299 295 291 294 296 296 298 302 301 300 300 305 299 296 319 337 339 341 345 346 348 351 351 351 351 351 351 350 349 345 343 339 338 338 337 336 336 335 336 339 341 345 344 341 340
315 311 306 299 293 290 291 294 294 296 303 305 304 305 306 306 314 319 329 335 342 343 346 347 346 350 352 350 350 351 351 350 348 345 342 340 338 336 334 333 332 333 335 338 340 343 341 339 338
312 305 304 294 289 289 290 294 295 300 303 300 303 307 307 309 315 320 325 338 343 344 346 346 346 350 349 349 350 350 349 350 347 344 342 341 339 338 334 331 330 331 333 335 339 340 338 336 335
308 305 298 293 293 294 295 295 297 300 302 301 305 304 310 315 316 321 339 342 342 343 344 344 348 350 350 349 349 350 350 349 347 343 341 341 340 338 335 331 328 329 331 333 336 336 333 330 329
302 299 293 291 293 295 294 296 299 299 298 301 302 301 308 315 323 325 339 341 341 342 343 346 345 348 349 349 349 349 349 348 348 344 341 342 340 338 335 332 328 327 328 330 331 329 326 325 325
300 297 291 289 291 295 296 296 298 297 298 300 302 304 307 312 323 326 338 340 342 342 343 345 340 342 345 347 348 348 348 347 347 346 342 341 340 338 336 333 330 327 326 326 327 326 323 321 323
298 294 290 289 290 293 295 296 296 296 298 299 305 302 306 311 322 327 334 336 340 341 342 343 345 342 338 341 342 344 345 345 345 344 344 342 341 339 337 336 332 330 327 325 324 323 321 320 319
295 293 289 289 290 293 296 295 296 297 297 301 303 300 303 312 317 321 325 327 331 337 338 340 342 343 343 343 335 337 339 341 341 341 338 336 336 335 333 331 332 329 327 325 323 321 320 318 317
296 291 288 290 290 294 294 295 296 298 298 299 300 302 304 313 313 316 317 318 320 322 328 335 336 337 338 338 334 331 334 335 335 335 331 331 336 335 332 329 330 328 324 321 320 319 318 316 316
292 289 291 292 292 293 295 295 296 297 296 297 298 300 305 311 312 317 319 321 320 319 316 320 325 328 332 337 339 340 341 341 340 340 339 337 335 335 332 326 326 326 324 320 317 314 310 307 308
292 289 292 294 295 296 295 294 296 295 294 297 298 299 304 309 311 317 319 322 321 318 314 313 316 318 323 327 337 339 341 340 340 339 338 335 333 332 331 326 322 317 315 313 311 309 307 307 307
291 292 293 297 297 295 294 295 295 295 298 299 299 300 304 308 311 315 318 317 313 311 313 312 313 315 317 319 323 335 338 338 338 338 337 336 333 332 329 326 321 318 314 311 311 309 308 306 306
292 293 295 296 295 294 296 294 295 295 297 298 297 300 303 308 311 308 312 312 309 309 309 311 312 313 315 316 321 331 334 336 337 335 336 336 332 331 329 326 324 318 316 312 311 309 306 305 304
294 295 294 295 295 295 295 294 295 297 296 297 296 298 301 305 307 303 302 305 303 305 307 309 310 312 313 315 321 329 331 331 331 332 334 333 332 331 327 326 321 318 316 314 311 308 306 303 300
293 291 293 292 294 294 295 292 294 296 296 296 296 296 297 300 302 304 305 302 302 303 305 307 308 311 313 315 320 325 327 328 326 327 329 332 331 330 326 322 318 317 315 313 311 308 303 298 295
290 290 287 291 293 294 293 289 294 294 295 296 295 294 294 296 300 301 301 301 301 303 304 306 309 312 313 315 318 321 322 324 323 323 325 326 326 325 323 320 317 315 314 311 308 303 299 294 292
287 284 285 289 293 292 291 289 293 294 293 294 294 294 294 294 296 297 299 300 300 302 304 305 308 311 313 315 315 316 317 320 318 320 319 320 321 321 320 317 313 312 308 306 304 300 296 292 290
284 285 285 286 290 290 289 289 292 293 293 294 294 294 294 294 296 299 297 298 299 301 303 305 306 310 312 311 309 308 309 312 313 314 314 315 316 317 316 312 310 308 304 302 301 297 294 293 290
287 285 285 287 291 290 289 289 291 295 292 292 294 294 295 295 299 297 297 297 297 300 302 303 304 307 309 307 307 305 306 306 307 308 309 310 311 312 312 310 304 304 302 301 299 295 292 289 289
287 285 286 288 289 290 289 289 292 293 295 295 296 297 296 297 295 296 295 295 296 299 301 302 304 306 307 309 305 304 302 301 303 302 303 305 306 306 307 304 301 299 298 298 297 295 292 290 291
286 285 285 287 288 288 287 286 288 292 292 293 294 297 297 298 298 297 293 294 296 297 300 302 303 305 307 307 299 295 295 296 297 297 298 299 301 302 301 300 297 297 300 299 298 295 293 290 288
284 289 288 286 286 282 286 280 286 290 291 292 295 295 296 297 296 296 293 294 294 297 300 303 303 305 306 302 301 300 302 297 298 298 298 295 296 297 298 294 294 296 299 298 296 295 294 292 289
287 289 288 287 285 283 283 282 286 287 289 292 295 297 298 295 295 296 294 295 295 297 299 302 303 303 305 302 304 302 299 296 295 294 294 293 292 294 292 290 291 293 295 296 295 291 290 291 288
290 288 287 285 284 279 283 284 283 286 290 292 294 295 295 294 294 294 294 293 293 295 298 301 301 301 302 302 302 302 301 293 293 291 292 291 289 289 289 287 289 290 291 291 291 289 289 287 286
288 286 279 277 276 279 282 281 287 289 291 292 295 296 294 294 294 294 293 291 292 294 297 299 300 300 299 299 300 300 299 296 295 293 292 289 287 286 286 286 286 286 286 286 286 286 286 285 285
287 286 280 274 274 277 281 280 286 291 292 292 292 293 292 293 293 293 293 292 291 294 296 298 299 300 298 298 298 299 299 296 296 295 294 292 291 289 286 286 285 284 284 284 284 285 284 285 284
286 284 287 282 270 276 280 283 288 289 290 291 294 291 293 293 293 293 292 290 291 293 295 297 299 300 297 297 297 296 296 296 295 294 292 291 289 288 285 285 284 283 283 283 284 283 283 284 283
287 290 283 281 274 271 278 280 284 288 291 292 291 293 293 293 293 293 291 290 290 293 295 296 298 299 297 297 295 295 294 293 293 291 289 286 285 284 283 283 283 282 283 282 283 282 282 283 282
286 285 284 284 281 275 273 281 286 289 291 291 292 292 293 293 293 293 291 289 290 292 293 295 297 297 294 294 293 293 293 291 290 289 289 286 285 283 283 282 282 282 281 281 282 282 281 281 281
285 285 285 281 278 279 278 284 288 291 291 291 292 293 293 293 293 292 290 289 289 290 292 294 295 295 294 293 291 291 290 290 288 289 287 285 284 283 283 281 282 281 281 281 281 280 281 280 280

GFSSGP_sfc_thetae_054.txt.gz
Theta_e
327 321 324 318 307 306 299 300 303 302 303 306 307 307 306 309 303 304 332 341 342 343 345 346 347 351 352 351 351 350 351 348 344 341 339 338 337 337 337 336 337 339 340 344 344 343 342 339 337
321 317 320 314 303 297 299 302 301 304 307 310 310 311 310 310 320 327 334 341 343 343 344 345 347 351 351 349 349 349 350 348 344 341 340 338 336 334 334 334 336 338 339 343 343 341 339 336 335
318 313 316 310 304 297 299 302 304 306 309 307 308 312 311 313 323 331 336 342 343 344 345 345 346 350 349 351 350 349 349 348 344 342 341 340 337 333 332 332 335 336 338 341 340 338 335 334 333
318 316 310 304 299 300 300 304 304 307 305 305 309 307 315 321 325 328 340 342 342 344 345 344 347 349 348 350 350 349 348 348 345 342 342 340 337 334 330 331 332 334 336 336 335 332 331 331 331
317 313 306 302 299 300 302 304 308 305 304 307 309 306 312 321 326 336 341 342 341 343 344 346 346 347 349 349 349 348 348 348 345 342 341 340 337 334 330 329 331 331 332 332 329 328 328 328 329
312 310 302 298 299 301 302 304 307 305 304 306 306 308 311 323 327 337 342 342 342 342 344 345 340 342 346 347 347 346 347 347 346 343 341 339 337 335 332 329 328 328 328 327 325 324 325 327 327
309 307 301 299 299 300 302 305 306 305 304 305 310 306 312 319 329 337 341 342 343 343 344 345 345 342 338 340 343 344 344 344 344 343 342 340 339 337 334 333 329 328 327 325 323 322 322 325 325
310 309 299 299 298 299 303 304 304 305 304 308 312 305 307 319 329 337 339 341 342 343 343 343 345 345 345 345 335 337 340 341 341 340 337 335 335 333 332 330 330 328 326 324 322 320 320 323 324
305 303 299 299 299 301 302 302 302 304 305 307 309 307 312 324 329 329 328 334 335 338 341 343 343 344 344 344 339 334 335 336 336 335 330 330 335 333 331 327 328 326 324 323 321 320 320 320 319
305 301 300 302 303 302 302 303 303 303 303 305 305 307 310 323 327 328 326 328 330 330 335 340 339 341 343 341 344 344 343 343 342 342 339 339 337 335 331 325 324 323 321 320 318 315 314 318 319
300 300 300 301 302 302 302 301 304 303 301 306 306 308 309 320 325 327 330 332 333 333 327 328 338 342 341 338 342 343 343 343 343 343 341 340 337 334 332 326 323 320 317 315 314 314 314 316 316
299 299 301 302 303 302 301 303 302 303 306 306 308 308 310 317 321 325 328 331 333 334 328 325 331 334 330 334 335 341 343 345 344 343 341 339 336 333 329 325 320 317 316 316 315 314 314 313 312
299 300 301 303 302 302 301 302 302 302 307 305 304 305 309 313 320 324 328 331 332 330 332 323 322 330 331 332 329 331 338 342 343 344 341 341 336 332 330 326 322 317 314 314 313 313 312 311 308
301 301 301 302 302 302 301 302 301 305 307 304 304 306 308 311 317 322 324 327 329 329 329 329 326 328 328 329 332 334 336 337 341 341 341 339 339 333 329 326 325 319 317 313 311 311 308 305 303
300 299 300 300 301 301 301 299 299 306 303 304 305 306 307 309 313 318 321 323 327 326 327 324 323 323 324 326 328 333 336 336 337 338 339 338 336 333 328 325 322 319 315 313 311 306 301 299 299
299 299 296 298 299 300 300 297 302 302 302 304 306 307 306 307 309 313 318 321 323 323 320 320 316 318 320 322 324 328 334 334 335 335 332 334 337 332 327 323 320 318 313 311 306 301 297 296 297
298 294 294 296 299 299 299 298 302 301 301 303 305 305 306 306 307 308 313 315 316 316 315 315 315 316 317 319 320 323 328 331 333 333 332 330 333 330 325 322 319 315 311 311 304 300 298 294 295
294 293 293 294 297 297 297 297 302 304 300 303 305 306 306 305 306 309 308 311 313 313 312 312 313 315 317 318 319 320 323 324 328 329 329 326 327 326 322 319 316 312 311 306 303 297 295 294 294
295 294 293 295 297 296 298 298 300 303 304 302 304 305 306 307 309 309 309 308 309 311 310 310 311 313 316 316 314 314 316 314 317 322 323 321 320 320 319 316 314 310 309 308 301 296 293 292 294
295 294 294 296 295 295 297 296 300 302 302 304 305 306 307 308 309 308 307 307 306 307 309 310 310 312 315 315 315 316 317 313 315 315 314 314 314 316 316 313 311 307 305 304 298 296 292 293 294
294 294 294 293 294 296 294 294 298 301 301 302 304 305 306 307 308 309 307 305 307 306 307 308 310 311 313 315 315 311 309 303 304 306 307 307 310 308 310 312 310 308 306 300 298 296 297 294 295
292 296 294 292 293 290 294 287 296 299 299 300 303 305 306 306 307 307 308 305 306 307 308 308 309 310 312 314 312 309 310 307 306 308 306 304 305 307 306 302 304 303 304 302 300 297 299 299 295
294 295 294 293 293 291 291 289 294 294 296 299 303 305 307 308 307 306 306 306 306 307 307 308 308 309 311 313 312 312 311 314 306 308 307 305 303 303 303 301 300 300 303 302 302 299 300 300 299
295 295 293 293 292 287 291 290 291 295 296 298 301 304 305 305 305 305 305 304 304 305 305 307 307 308 310 311 311 311 311 310 305 309 307 304 303 302 300 297 298 300 302 305 304 303 301 300 299
295 294 286 285 285 285 288 287 292 297 299 299 301 304 304 303 304 305 305 304 302 301 303 304 306 306 308 310 310 311 311 310 308 308 309 306 303 302 299 294 292 294 298 304 303 301 299 299 297
293 294 288 282 282 286 285 285 292 298 300 300 301 302 303 302 303 304 305 305 303 301 302 303 304 304 306 307 308 310 310 310 308 306 308 306 305 303 302 296 293 291 294 299 300 299 298 297 296
291 289 295 288 281 284 288 292 296 297 296 297 299 301 302 304 304 304 305 304 302 301 301 303 303 304 305 305 307 307 308 306 305 304 304 304 305 301 296 293 291 289 290 295 296 296 293 292 292
293 296 287 288 283 281 286 287 290 296 298 300 299 300 302 303 302 303 304 302 300 300 301 302 303 303 304 304 305 306 305 305 304 302 301 301 299 296 292 289 288 287 288 292 292 291 290 289 289
290 289 289 290 288 284 283 288 297 297 299 299 300 300 301 302 303 302 302 300 299 299 300 301 302 303 303 303 304 304 304 304 303 301 299 297 294 293 291 287 286 285 286 288 289 289 288 288 286
292 292 292 287 284 286 285 288 295 299 300 299 300 300 301 301 301 301 300 299 298 298 299 300 301 302 303 302 302 302 302 302 301 298 296 294 292 291 290 285 284 284 285 284 288 287 286 286 285

GFSSGP_sfc_thetae_057.txt.gz
Theta_e
331 324 325 322 308 306 301 301 306 304 305 309 311 309 308 310 306 308 337 341 342 342 343 342 347 349 348 347 348 348 347 342 340 339 338 338 337 337 337 339 342 345 344 344 342 340 338 337 335
324 320 321 316 303 299 300 305 302 306 310 310 310 311 310 312 321 328 334 341 343 343 344 343 345 350 348 348 349 349 347 342 341 339 337 336 335 335 337 339 342 344 343 342 340 338 336 335 334
321 317 315 310 304 299 299 304 306 308 310 310 309 313 312 314 324 331 340 341 343 342 343 345 347 350 349 349 349 349 347 344 342 341 339 335 334 334 336 337 339 341 341 339 337 336 334 333 334
319 317 313 304 300 303 302 305 307 308 307 309 310 308 315 325 328 332 341 341 342 341 342 344 348 349 349 349 348 347 347 343 343 341 339 336 333 333 334 335 337 337 336 335 334 333 332 333 333
318 315 306 302 302 304 305 307 308 307 307 308 310 307 312 324 329 336 340 340 340 342 344 344 346 347 349 350 348 348 347 345 343 341 339 336 333 331 333 333 335 334 332 331 330 330 331 331 331
311 312 302 300 302 304 305 307 308 307 307 309 307 308 312 326 328 336 339 339 341 340 343 343 340 342 346 348 347 346 345 345 344 341 339 336 333 331 331 331 331 330 328 327 328 328 329 330 330
310 307 303 302 301 302 304 308 307 307 305 306 311 306 314 321 327 336 337 340 340 342 341 343 344 342 338 341 342 343 344 344 343 342 341 339 336 334 333 332 329 328 325 325 325 327 328 329 328
311 308 302 303 301 300 306 307 309 307 305 311 313 307 308 319 329 336 337 337 338 340 340 340 342 342 342 343 336 338 340 341 341 340 336 334 334 333 331 329 330 327 325 323 323 325 327 326 325
310 303 300 302 301 303 306 305 307 309 307 308 311 310 317 323 329 335 334 334 336 338 339 341 340 341 341 341 338 334 335 336 335 334 330 328 331 329 329 326 328 326 324 322 323 324 323 322 322
306 302 302 305 306 304 305 306 306 304 305 306 308 311 318 325 327 330 330 331 332 335 338 340 341 340 340 340 342 341 342 342 341 338 335 335 333 333 327 323 324 325 323 322 321 321 321 321 320
306 302 304 304 305 306 305 304 307 304 304 307 307 309 313 322 324 325 329 331 334 334 336 339 340 341 340 340 341 342 342 342 341 340 338 337 335 331 328 323 320 319 317 316 315 317 318 319 319
301 303 303 304 305 304 304 306 304 305 307 309 311 311 311 318 321 323 326 329 331 334 335 338 338 340 340 342 340 340 340 342 341 341 340 339 336 332 331 325 321 320 319 317 319 318 317 316 315
301 302 303 305 304 304 304 304 304 306 309 309 308 308 310 314 319 323 326 329 331 331 334 332 334 339 339 338 336 339 341 341 340 342 341 340 336 335 330 325 319 317 317 317 317 316 314 312 311
303 303 303 304 304 304 302 304 303 306 310 309 308 308 310 311 315 320 323 325 329 331 333 334 330 335 336 335 336 334 337 339 342 342 342 340 337 333 329 323 319 315 315 316 316 315 313 309 307
303 299 302 302 303 302 303 300 301 306 307 307 307 308 309 310 313 317 322 324 328 332 332 333 332 330 333 333 335 336 337 335 336 339 340 340 338 334 330 324 321 318 317 312 312 310 308 305 303
300 301 297 302 302 303 302 296 303 307 306 305 307 308 309 310 311 314 320 324 327 330 331 332 331 332 332 332 333 333 335 336 336 336 338 340 339 334 327 324 319 316 313 312 305 302 302 300 301
300 294 296 299 302 301 301 299 305 305 304 304 306 307 308 309 311 312 316 320 323 327 329 330 329 326 328 329 330 331 333 333 334 334 335 337 338 333 328 324 319 315 315 308 303 300 300 298 298
295 295 296 296 300 299 299 299 303 306 305 305 307 308 309 309 309 312 312 316 320 324 326 327 326 324 325 325 325 326 327 331 332 332 332 334 335 333 328 324 317 314 312 307 302 300 300 298 296
297 297 295 298 300 298 298 299 301 305 305 305 306 306 307 309 312 313 313 313 317 319 319 321 321 320 321 319 318 318 318 322 326 329 331 332 332 331 326 321 316 314 311 307 302 299 297 296 295
297 295 295 299 299 296 298 297 301 303 304 305 306 306 307 309 310 313 313 312 312 315 317 316 315 316 316 318 319 318 318 320 320 321 322 327 325 325 322 319 315 313 311 306 300 298 294 295 294
296 295 295 295 297 299 297 295 299 303 305 305 306 307 308 309 309 311 313 312 312 311 314 314 314 315 315 317 318 317 317 317 315 315 316 317 318 318 317 317 314 311 309 304 300 296 296 293 294
292 299 297 295 294 290 296 288 296 300 301 304 305 306 307 309 310 310 311 313 312 312 313 314 314 314 315 317 316 315 313 310 312 314 314 310 312 312 313 313 311 310 308 303 300 299 300 296 293
295 298 296 295 294 293 293 290 294 300 298 301 304 307 308 310 311 310 310 311 312 313 314 313 313 313 314 315 315 315 312 312 316 315 311 310 308 308 307 308 309 308 308 305 302 299 299 299 297
298 297 296 296 294 287 292 291 292 296 299 301 304 306 307 308 308 308 309 310 310 313 313 313 311 311 312 313 314 314 312 312 314 312 311 307 305 303 305 304 305 306 304 303 301 299 299 298 299
297 294 287 286 286 285 291 290 293 298 301 302 302 304 307 307 306 308 308 308 307 308 308 309 309 309 311 312 313 314 313 313 314 312 311 307 304 303 301 300 302 303 304 303 302 299 299 298 298
294 294 288 282 284 287 289 286 293 301 303 304 304 305 306 307 307 307 308 309 308 306 306 307 306 307 309 310 311 313 312 312 313 312 313 310 308 306 304 301 301 303 304 304 303 301 300 298 298
293 290 297 290 286 285 289 293 298 300 299 301 302 303 304 306 308 308 309 309 308 306 305 306 306 306 308 308 309 311 311 312 312 311 313 313 313 311 309 305 303 301 299 300 301 299 298 297 297
295 297 288 289 284 282 286 289 291 297 299 300 301 303 305 306 306 305 307 306 306 305 305 306 306 306 307 308 308 308 309 311 311 311 310 310 309 308 306 303 299 295 295 296 296 294 296 294 295
291 290 291 291 289 284 283 288 298 298 300 300 302 303 304 305 305 305 305 304 304 303 304 304 305 305 305 306 307 307 308 309 309 308 308 307 307 304 299 297 295 292 291 292 293 291 291 290 290
295 293 292 287 285 288 287 288 298 300 301 302 302 303 305 305 305 305 305 305 304 303 304 304 304 304 305 306 305 305 306 307 306 306 306 306 303 300 298 296 293 292 289 289 290 288 288 288 286

GFSSGP_sfc_thetae_060.txt.gz
Theta_e
331 325 320 318 304 302 296 297 302 301 301 303 308 305 304 310 309 308 332 337 337 335 339 342 347 348 347 347 347 347 344 341 340 340 339 339 339 340 340 343 347 345 342 341 338 338 337 335 335
320 320 317 312 299 295 294 300 299 303 306 306 307 306 305 308 321 327 330 339 338 338 340 340 345 349 347 347 347 347 344 341 339 337 336 336 338 339 340 344 345 343 340 338 338 337 335 335 335
321 318 309 306 299 293 294 298 301 306 306 305 305 307 307 311 324 329 335 339 340 339 341 342 346 348 347 346 346 347 345 343 341 338 336 335 337 338 339 342 342 340 338 337 336 335 334 334 335
316 313 308 299 297 298 298 299 305 304 303 305 305 305 312 319 326 333 337 339 337 340 343 343 347 349 348 346 347 347 345 342 340 339 336 335 336 337 338 339 338 336 335 334 334 334 334 334 334
314 311 301 298 298 300 300 303 305 303 302 303 303 303 309 321 328 335 335 337 336 339 343 344 346 347 348 348 348 347 345 344 341 339 336 334 334 335 337 336 335 333 332 332 332 332 332 332 333
307 307 298 296 298 301 300 302 303 302 302 304 300 302 309 322 326 332 335 334 337 340 341 343 340 343 345 347 347 346 345 345 342 339 336 333 333 333 334 333 331 330 330 330 331 331 331 331 330
306 304 298 298 296 298 301 303 299 301 301 302 304 299 310 317 325 332 333 333 335 339 339 339 341 341 338 341 342 343 344 344 342 341 339 336 335 334 334 332 328 328 328 329 329 330 330 329 330
305 303 299 295 296 297 301 302 302 301 300 304 306 300 303 316 325 330 330 331 333 336 339 338 339 340 341 339 335 337 340 340 340 338 334 332 332 332 331 329 328 326 326 327 329 328 327 328 327
307 297 295 298 297 298 302 300 301 301 301 302 306 303 310 319 328 326 326 327 329 333 337 338 339 337 337 338 335 333 335 335 334 332 328 326 325 324 325 326 327 326 325 326 327 326 325 323 324
301 297 298 301 300 299 301 300 301 298 299 299 302 306 314 321 324 325 324 323 325 328 333 337 337 337 337 338 337 338 338 337 336 333 328 328 325 325 323 321 324 325 324 325 325 324 324 319 315
302 297 299 300 303 302 301 299 301 299 296 300 301 304 314 318 320 325 325 325 326 327 331 334 336 336 337 336 338 338 338 337 336 334 330 332 326 321 320 317 316 315 316 314 316 316 314 314 313
296 300 300 303 304 301 299 302 299 300 299 303 303 306 312 316 318 321 325 326 328 329 331 333 335 335 336 337 338 336 337 336 336 335 333 334 327 323 318 316 313 312 314 310 311 312 311 310 310
296 298 300 302 301 300 302 298 299 299 303 303 304 305 307 313 315 318 322 325 325 329 331 333 335 334 336 335 335 334 336 335 335 335 334 335 328 325 321 318 314 315 315 315 312 310 308 307 307
300 300 299 301 301 300 299 298 298 300 303 302 303 302 303 306 312 315 318 323 325 327 331 332 333 336 337 336 333 331 333 335 335 335 336 334 332 328 325 319 316 314 313 315 313 311 306 303 304
300 295 297 298 300 298 299 296 296 301 301 301 301 301 303 304 307 311 316 318 324 326 327 330 330 330 331 332 332 331 330 331 332 334 335 334 333 329 325 319 316 313 313 313 312 308 305 302 300
296 294 290 297 299 298 296 289 298 299 299 299 300 300 301 303 305 306 312 317 320 323 325 329 330 329 329 327 328 330 330 330 329 329 333 334 334 330 324 320 316 314 312 309 306 304 300 299 295
293 287 289 294 299 297 296 292 298 299 297 296 298 299 301 302 303 305 308 314 318 322 325 325 328 327 328 328 327 327 327 327 328 328 331 332 333 331 325 321 317 313 310 306 302 300 299 298 295
288 288 290 289 295 294 293 293 298 299 299 299 299 300 300 301 302 305 306 310 316 319 323 325 326 326 326 327 324 323 323 325 327 327 328 331 331 331 327 322 315 312 309 305 302 299 298 297 295
293 291 290 292 295 293 293 294 296 298 298 297 298 299 300 301 304 305 305 307 310 315 318 323 323 322 322 321 319 317 318 319 322 328 327 329 331 330 327 322 315 312 308 304 301 299 295 295 294
292 290 289 293 296 292 292 292 295 297 298 299 299 299 300 300 302 304 304 304 308 311 314 317 321 320 320 320 318 315 313 313 316 318 319 323 327 328 326 320 315 312 308 305 301 298 295 293 293
291 290 290 290 293 293 289 289 292 297 298 299 300 301 301 300 301 302 304 304 304 307 309 312 316 318 318 316 313 311 310 310 310 311 316 317 319 321 323 320 316 313 311 305 301 298 297 292 292
289 294 294 292 288 283 292 281 288 293 293 297 298 299 299 300 302 302 302 303 303 305 307 310 310 309 311 311 311 310 309 307 307 308 310 314 315 316 317 318 316 314 311 307 301 299 298 294 292
292 295 293 292 288 288 286 283 287 292 291 294 297 298 299 302 301 301 302 304 304 305 304 306 308 308 308 310 310 310 307 307 306 306 306 311 311 313 314 315 314 312 311 307 302 299 298 296 294
297 294 292 291 289 280 287 285 284 288 291 293 295 297 300 300 300 301 301 302 303 304 305 305 305 306 307 308 310 308 308 305 304 305 307 309 308 309 308 309 311 310 309 306 302 300 299 298 297
293 289 280 280 279 278 286 284 288 293 295 294 295 295 298 298 300 300 299 300 300 302 303 304 304 303 305 306 307 308 307 306 305 306 307 306 306 305 305 306 306 307 308 306 304 301 299 299 298
290 289 282 276 278 279 283 280 287 294 295 295 297 297 299 300 300 300 300 302 300 301 301 302 302 302 303 304 305 306 308 308 308 307 308 308 306 306 306 304 305 305 305 304 303 300 299 299 297
290 286 292 284 277 277 283 287 292 294 294 295 295 296 296 299 299 299 301 301 301 300 300 301 301 301 302 303 303 304 306 306 306 306 306 307 306 306 303 303 302 302 303 303 302 300 298 298 297
291 293 284 283 274 273 280 282 285 290 293 295 293 295 297 298 299 300 300 300 299 299 300 301 301 301 301 302 302 303 304 305 305 305 304 305 306 306 304 301 302 301 301 302 301 299 298 297 297
288 286 288 288 284 278 277 281 290 291 294 295 296 298 298 299 298 298 299 298 298 298 299 299 300 300 300 301 301 301 302 303 304 304 303 303 302 301 300 300 300 297 296 296 298 295 295 295 293
289 288 289 283 281 282 281 284 293 294 296 297 296 297 297 298 299 299 299 299 297 297 298 298 299 299 300 301 301 301 301 301 302 302 302 301 300 297 296 293 291 290 290 292 294 292 294 292 290

GFSSGP_sfc_thetae_063.txt.gz
Theta_e
322 316 316 311 299 295 290 292 296 297 297 300 303 304 307 307 310 302 326 330 334 336 339 343 346 349 347 347 347 345 344 341 341 340 340 340 341 343 345 344 345 341 339 339 338 336 336 337 338
318 316 310 303 294 287 289 292 296 298 300 303 305 304 305 308 320 325 324 334 335 337 339 342 345 348 348 346 346 344 343 339 338 338 338 339 340 343 345 343 344 339 338 337 336 335 336 337 338
319 313 302 300 291 288 289 294 298 300 302 302 302 306 307 312 324 327 332 334 336 337 338 341 345 348 348 347 346 345 343 341 338 337 338 339 340 343 343 341 340 337 336 336 336 336 337 336 336
309 307 301 294 290 292 293 298 300 299 301 303 303 304 310 316 327 331 336 337 337 337 339 342 346 348 347 347 347 345 344 341 338 337 336 338 339 341 340 338 336 335 335 335 335 335 335 335 337
306 302 295 293 292 294 295 300 301 299 299 299 301 302 308 320 331 333 334 336 338 339 340 343 345 347 347 347 347 346 345 342 339 336 336 336 337 339 338 336 334 333 333 333 333 334 334 333 335
301 299 292 289 291 296 295 299 301 298 299 300 299 305 308 322 329 330 333 333 340 338 341 342 340 343 345 345 345 345 344 343 340 336 335 335 336 336 335 333 332 332 332 332 332 333 332 333 333
300 297 292 292 291 293 296 299 298 297 299 299 303 301 308 317 327 331 331 332 339 340 341 340 341 340 338 341 341 343 343 342 340 338 337 336 336 336 333 332 330 331 331 331 331 331 331 332 332
300 297 292 290 291 292 296 298 299 298 297 302 303 300 305 314 326 329 329 332 337 336 338 337 338 339 340 339 335 337 339 339 339 336 333 331 331 332 330 328 330 329 330 330 330 329 329 330 330
299 292 289 292 292 294 298 296 298 299 300 300 303 305 308 317 327 325 324 325 333 335 335 336 336 336 337 337 334 333 334 334 333 330 327 324 323 323 322 325 328 329 329 329 328 327 326 324 326
295 290 292 295 294 294 298 297 297 295 296 296 299 306 315 322 322 321 320 321 325 331 334 337 336 335 335 339 334 335 336 335 331 328 325 323 322 322 322 320 324 327 327 327 326 325 322 317 313
296 292 296 297 299 298 298 295 298 295 293 297 299 307 315 317 322 322 322 320 323 326 331 336 336 336 334 335 336 336 335 334 331 327 325 324 322 320 319 317 315 315 316 317 318 314 312 312 311
293 297 297 300 301 298 296 298 295 296 297 300 301 311 314 315 322 322 322 323 324 327 327 332 336 335 336 337 336 337 335 334 332 330 327 326 320 318 315 315 313 311 310 308 310 309 309 309 309
293 295 298 300 298 296 299 295 296 296 299 299 303 309 314 315 317 322 323 324 324 325 327 328 331 331 335 336 336 336 335 335 334 333 330 328 323 319 315 313 312 310 310 310 309 307 307 306 306
296 296 297 298 298 297 296 294 295 298 299 298 300 303 309 313 314 314 321 324 324 327 328 328 330 332 332 336 336 334 334 336 334 333 331 333 326 321 316 315 312 311 313 314 312 308 305 306 304
297 291 293 295 297 295 296 291 294 298 298 298 298 297 301 306 311 314 317 322 325 325 330 329 331 332 332 331 334 334 331 333 333 333 332 333 328 327 319 316 314 314 314 312 311 307 304 301 301
291 291 287 293 296 296 293 286 294 297 296 297 297 295 297 300 304 311 314 318 323 324 327 330 332 331 332 329 333 333 330 328 333 334 334 333 332 328 321 316 314 313 312 310 309 304 301 298 295
289 283 286 291 296 295 292 287 295 298 294 294 295 296 297 297 299 302 308 315 317 323 324 328 329 329 330 328 328 328 328 328 328 328 332 332 332 329 324 318 313 313 311 309 306 302 300 296 294
285 285 287 287 292 293 290 290 294 297 296 296 296 296 296 297 299 301 303 309 315 318 323 327 328 327 328 329 323 322 323 324 325 327 327 331 332 329 326 320 313 312 310 305 304 301 299 296 294
289 287 285 289 293 291 290 290 293 296 294 294 295 295 296 298 300 300 302 305 311 314 319 322 325 325 326 326 325 320 322 319 320 322 323 328 330 328 326 321 314 312 308 304 303 300 297 294 293
290 287 285 290 293 290 289 290 292 294 296 295 296 294 295 296 298 300 300 301 306 313 317 321 323 323 325 326 326 325 317 314 318 319 320 322 327 328 326 321 315 312 309 305 301 300 296 294 293
288 287 286 287 290 289 287 286 288 293 294 295 296 297 297 297 298 298 299 299 303 307 313 318 321 322 324 322 315 310 311 309 311 312 318 317 319 326 326 322 317 313 310 305 301 299 298 293 293
286 291 291 290 286 281 288 279 285 291 292 292 294 295 296 296 297 298 299 299 299 306 310 314 317 318 320 316 316 314 316 313 315 314 312 313 314 316 323 321 317 314 311 307 303 300 300 297 292
289 292 290 289 286 284 284 281 284 288 289 292 294 294 294 297 297 298 298 300 300 301 304 306 308 310 316 315 314 313 312 307 304 305 307 307 308 311 314 318 317 314 313 310 305 301 301 299 296
294 292 291 289 286 278 284 283 280 285 289 289 293 294 297 298 297 298 299 300 301 300 301 303 305 305 306 309 307 309 309 304 303 302 304 304 305 306 308 312 315 315 313 311 307 303 301 300 299
291 286 278 277 277 277 282 281 284 289 293 292 293 293 298 298 297 298 300 298 299 300 300 301 302 303 304 304 305 306 307 306 305 304 305 303 304 304 309 311 312 313 313 312 308 304 301 300 299
289 286 279 275 276 277 282 280 286 292 293 294 295 294 295 296 296 297 297 298 298 298 300 301 301 301 302 303 304 305 305 306 307 304 306 307 307 306 306 308 310 312 311 309 307 303 302 300 299
288 285 289 282 272 276 280 284 290 292 293 294 293 294 295 296 298 297 298 298 298 298 299 299 300 301 301 301 302 303 305 305 306 304 304 307 306 305 305 307 307 308 307 307 306 304 301 300 299
290 291 283 282 273 272 277 279 283 288 291 292 294 295 296 296 297 297 298 298 298 298 298 299 299 299 300 300 301 302 304 305 306 304 304 303 305 303 302 304 305 305 305 304 303 301 300 299 299
287 285 286 286 282 277 274 279 287 289 291 293 294 296 296 297 296 297 297 297 297 297 298 298 298 299 299 299 300 300 301 302 303 304 304 302 301 303 301 300 302 302 301 301 301 301 300 297 298
287 287 287 281 279 280 280 283 292 293 294 295 295 296 295 296 297 297 297 297 296 296 296 297 297 298 298 299 299 299 299 300 300 301 301 300 301 299 301 299 298 299 300 299 300 298 298 296 295

GFSSGP_sfc_thetae_066.txt.gz
Theta_e
318 313 312 309 298 293 288 290 293 295 295 299 301 306 305 307 308 296 324 329 332 333 339 343 346 347 347 346 346 345 344 341 341 340 341 343 346 345 344 341 342 339 338 337 338 338 339 338 339
317 314 308 301 292 286 287 292 294 296 298 302 305 305 306 308 320 319 321 331 334 335 340 343 345 348 347 346 345 344 342 339 339 339 340 342 345 344 342 339 339 337 337 336 338 338 338 338 340
314 310 301 297 289 287 288 293 297 298 300 300 300 306 308 313 322 320 327 333 335 335 339 342 345 348 347 345 344 343 342 339 338 339 340 342 345 342 340 338 337 336 335 335 338 338 337 337 337
307 306 300 292 288 291 292 296 298 298 298 302 303 305 310 319 326 329 332 334 334 334 338 341 346 348 347 346 344 342 340 338 337 339 339 341 343 341 339 337 335 335 335 335 337 336 337 339 338
304 300 293 291 290 292 294 297 297 296 297 298 302 302 308 323 328 331 332 334 333 334 338 342 344 346 347 346 344 344 342 339 337 338 338 340 341 339 337 335 334 334 333 335 336 334 337 338 338
299 297 290 288 289 293 295 299 298 295 296 298 303 306 310 323 329 330 334 334 336 336 339 341 339 341 344 345 345 344 343 341 338 337 337 338 338 337 335 334 333 333 332 334 334 334 335 334 334
298 295 291 291 290 291 295 298 296 297 296 297 305 301 307 316 328 329 332 336 337 338 339 339 340 339 338 340 341 342 342 340 338 338 338 338 337 335 333 333 332 332 331 333 333 333 333 332 332
299 295 290 291 290 291 295 296 298 296 297 300 305 303 305 315 326 328 332 335 335 337 337 336 337 339 339 339 335 336 338 338 337 335 333 332 332 332 330 330 331 331 331 332 331 332 332 331 330
297 291 288 289 291 293 295 295 296 297 299 299 300 305 307 319 325 324 323 329 334 335 335 336 336 336 337 336 333 332 333 333 331 329 327 324 323 322 321 325 330 330 330 330 329 328 328 327 326
294 289 291 293 293 294 296 295 297 295 295 299 300 308 313 320 322 322 319 323 325 329 330 334 335 335 335 337 333 334 334 331 328 325 322 322 320 320 321 320 326 329 328 329 327 324 321 317 313
294 290 294 295 296 297 297 294 296 294 292 296 299 307 314 318 320 322 319 324 326 328 330 332 334 334 334 335 333 334 334 330 327 323 321 320 319 318 317 316 318 318 320 318 316 313 311 312 312
293 295 295 298 298 296 295 296 293 295 296 299 300 311 315 319 320 321 320 319 322 325 329 332 334 333 333 334 334 334 334 332 327 324 323 320 317 316 314 313 313 313 312 311 309 309 309 309 310
292 293 297 298 297 295 297 293 294 295 297 297 300 312 315 319 320 321 322 321 322 324 325 330 333 333 333 333 333 334 334 332 330 325 326 321 317 316 314 312 311 310 309 309 308 306 307 306 308
295 295 295 296 295 295 293 292 293 296 297 296 301 309 312 314 318 317 318 322 322 326 326 328 329 331 333 333 333 334 335 333 331 329 327 324 322 319 316 313 313 310 308 309 308 307 306 304 305
295 290 292 293 294 293 294 289 292 294 296 295 296 301 308 311 312 318 322 322 324 326 328 327 329 330 331 332 333 334 334 334 333 331 329 329 324 320 317 314 313 312 312 312 307 307 305 304 301
290 289 284 290 294 294 290 285 291 295 292 295 294 293 296 303 310 313 317 322 321 324 326 328 330 330 331 331 331 331 332 333 332 333 331 331 326 322 318 315 313 313 313 312 308 303 302 301 300
287 281 284 288 295 293 290 287 292 294 294 292 293 294 294 295 297 303 312 316 321 323 324 327 328 329 331 330 331 328 329 332 332 332 332 331 329 326 320 317 315 314 312 310 306 303 302 298 296
284 284 285 284 291 290 288 290 293 295 293 294 294 294 294 295 297 299 302 312 316 321 323 327 328 329 330 330 325 324 327 329 330 329 332 331 331 328 323 320 316 313 311 308 305 302 299 297 295
288 286 284 287 291 289 289 289 292 294 292 292 292 293 293 295 299 297 299 302 310 314 320 323 325 328 328 328 324 324 325 326 325 327 326 330 331 329 325 321 316 313 311 308 305 300 296 291 293
287 285 284 288 291 289 287 289 291 292 292 292 293 292 293 294 296 298 298 297 302 311 317 321 324 326 327 328 328 327 323 317 323 320 320 326 328 330 327 323 315 314 311 307 303 301 296 293 293
287 285 285 286 288 287 286 284 286 290 292 293 294 294 294 294 295 296 297 297 298 304 312 318 323 324 325 327 321 312 311 309 312 313 318 317 324 328 327 324 318 314 312 307 303 301 299 293 291
285 290 289 288 284 280 285 278 283 289 290 290 292 291 292 294 295 295 296 295 296 301 307 314 319 322 324 324 322 319 320 319 320 322 314 315 315 323 325 324 319 315 313 309 305 304 302 299 292
288 291 288 287 285 282 282 280 283 285 288 290 291 291 294 293 295 296 296 297 297 298 301 308 313 317 320 319 321 318 317 314 306 306 308 309 310 313 322 322 318 315 313 311 307 304 302 301 299
293 290 288 286 283 277 282 281 280 283 287 288 291 293 295 296 298 297 298 299 300 297 299 303 308 309 310 313 312 314 314 306 304 303 304 304 306 308 310 316 318 317 315 312 309 305 303 302 301
288 284 277 276 276 276 281 280 283 288 290 290 291 292 296 295 295 295 296 297 297 299 298 299 303 303 305 308 307 309 310 307 306 305 306 302 305 304 307 312 314 315 315 314 311 306 304 303 301
287 284 278 273 274 276 281 279 286 290 292 292 293 292 294 295 295 296 296 296 297 297 299 300 300 300 301 302 304 305 306 307 308 305 306 306 307 308 307 307 309 312 313 313 312 309 306 304 303
287 284 287 280 270 275 279 282 288 290 290 290 293 295 295 295 295 295 297 297 297 297 298 299 300 300 300 300 301 302 303 304 306 304 305 306 306 306 302 305 305 306 308 311 311 308 305 304 302
288 290 283 281 272 271 276 278 282 287 290 291 294 294 295 295 296 296 297 297 297 297 298 298 298 298 299 299 299 300 301 303 304 303 303 304 303 303 301 302 303 305 307 308 308 307 305 303 302
286 285 285 285 281 275 273 278 286 287 289 292 293 294 294 294 296 296 297 296 297 296 297 297 298 298 298 298 298 298 299 300 301 302 303 302 301 301 302 301 304 304 305 305 305 305 304 300 300
286 286 286 280 278 279 279 280 289 292 292 293 294 295 295 296 296 296 297 296 296 296 296 297 297 297 298 299 298 298 298 298 299 300 301 299 300 298 301 298 301 302 302 302 302 301 301 298 297

GFSSGP_sfc_thetae_069.txt.gz
Theta_e
316 311 310 308 298 291 287 289 292 294 294 297 301 302 301 304 299 292 321 328 330 332 339 342 346 347 346 347 346 345 344 341 341 343 345 346 345 343 340 339 338 337 337 338 338 339 339 339 337
313 310 307 299 291 286 287 290 293 295 297 306 305 304 306 305 318 317 320 329 331 335 340 341 344 348 346 346 345 343 341 340 341 342 345 346 344 341 340 338 337 336 337 338 339 339 339 337 336
312 306 301 295 287 286 287 291 294 296 299 298 300 306 307 310 317 319 324 331 332 335 340 341 345 347 345 344 343 343 342 339 340 341 344 345 343 340 338 336 336 335 336 338 338 338 338 336 335
306 304 299 290 286 289 290 294 295 296 297 300 303 304 309 319 320 323 330 332 332 335 339 341 346 348 345 344 341 339 339 339 339 340 343 344 341 339 337 335 335 335 336 335 336 336 336 336 335
302 298 292 290 289 291 293 297 295 294 296 297 300 302 306 320 327 328 329 332 331 333 337 341 345 346 346 345 342 341 340 338 339 339 341 342 340 337 335 335 334 334 335 334 336 337 338 337 336
299 296 289 287 289 292 295 297 295 294 295 296 304 305 311 321 325 327 330 330 332 334 337 340 338 342 343 344 344 343 341 340 339 339 340 340 337 336 334 334 333 333 334 333 336 337 337 337 336
297 293 289 289 288 290 294 298 294 295 295 296 307 302 306 315 326 328 330 331 333 336 338 337 339 339 337 339 340 341 340 339 339 339 339 338 337 335 334 333 332 332 333 332 335 334 334 334 332
297 295 289 289 290 290 294 295 296 296 296 298 306 301 305 318 326 328 332 332 332 335 336 335 336 338 338 337 333 335 336 336 336 336 334 332 332 332 332 330 332 331 332 332 333 332 332 331 330
296 290 288 288 289 292 294 293 294 296 297 299 300 306 307 322 325 324 326 328 330 333 333 334 335 335 336 335 332 331 332 332 331 329 327 324 323 322 322 325 331 331 332 331 332 331 329 327 325
293 289 291 292 293 292 295 293 296 296 295 298 299 306 311 321 323 323 321 324 327 329 329 333 333 334 334 337 332 332 331 329 326 324 322 321 319 318 320 322 326 329 329 330 328 327 323 317 313
292 289 293 294 294 296 295 292 294 294 294 296 298 305 313 317 319 322 320 323 326 327 330 331 332 333 334 334 334 333 330 326 324 322 320 319 318 317 316 318 319 319 320 317 316 314 312 312 311
292 293 294 298 297 295 294 294 292 292 295 296 300 308 315 317 320 320 319 321 322 324 328 330 332 332 333 332 334 335 333 327 323 321 320 318 316 314 314 314 315 315 313 311 309 309 309 310 310
291 292 296 297 295 294 296 292 293 294 296 296 298 311 315 319 321 322 322 320 322 323 326 329 331 331 333 331 333 333 332 331 325 321 321 319 316 314 313 312 313 312 311 309 307 307 307 308 309
293 295 294 295 294 294 292 290 295 293 294 293 303 308 312 316 319 315 317 319 320 324 325 328 330 331 332 332 332 332 332 332 328 323 322 320 318 315 313 311 311 312 311 308 307 306 305 306 307
293 289 290 292 293 292 293 287 291 293 292 294 296 304 308 313 314 317 321 321 322 324 326 326 329 330 330 331 331 332 332 332 330 327 324 321 319 316 314 313 313 313 311 311 309 308 305 303 306
289 287 283 288 292 292 288 284 288 293 291 292 293 293 300 307 311 315 318 320 320 322 324 326 329 328 330 330 331 331 332 333 332 331 327 325 323 321 317 315 314 312 311 311 308 306 304 303 301
286 280 283 287 293 291 288 286 290 293 292 292 291 292 293 295 300 307 312 317 320 322 323 325 326 327 328 329 330 330 328 330 331 333 331 326 326 323 319 316 315 312 311 311 307 304 303 301 298
283 282 283 283 288 289 287 289 291 294 291 293 292 292 292 293 296 299 305 312 317 319 322 326 326 328 328 329 328 326 326 327 329 330 331 330 328 325 320 318 315 313 311 310 307 304 300 299 297
285 284 284 286 290 288 287 288 291 293 290 291 291 292 292 293 297 296 297 300 309 313 317 320 324 326 328 328 326 325 326 325 325 327 328 331 330 326 322 321 317 314 311 310 307 302 299 294 293
286 284 284 287 290 288 287 288 290 292 291 292 292 292 291 291 293 296 296 295 300 309 316 319 322 324 326 328 329 329 328 326 324 321 323 328 330 330 326 323 317 314 312 310 306 301 296 294 294
284 284 284 284 287 286 284 283 284 288 289 291 292 292 292 293 293 293 294 295 294 298 308 316 320 323 326 327 322 313 312 310 312 313 318 320 327 329 328 325 319 315 314 310 306 303 302 295 293
284 289 288 287 283 280 283 277 282 286 288 289 290 289 290 291 292 293 293 294 294 295 301 310 316 321 323 325 321 320 322 321 321 322 315 316 319 324 327 326 322 318 315 313 307 306 305 303 294
287 290 288 286 283 282 281 279 282 283 286 288 289 291 294 294 295 296 296 296 295 295 297 306 312 317 318 321 322 320 319 318 313 310 311 312 312 320 325 326 322 319 317 315 310 306 304 304 302
291 288 286 285 282 277 281 279 279 282 284 289 290 293 294 293 293 294 295 296 297 296 298 303 309 311 313 315 315 317 317 312 306 305 306 307 308 310 316 321 322 320 317 314 311 307 305 304 304
287 283 277 275 275 275 279 279 282 285 287 287 289 291 292 293 294 295 295 295 296 297 297 300 304 304 309 311 311 313 314 310 309 308 308 303 305 304 308 315 318 318 317 315 313 308 306 305 304
285 284 278 273 273 275 280 278 284 289 289 289 290 292 293 294 294 294 295 296 296 296 298 298 300 301 302 305 306 306 307 308 310 307 307 306 307 307 306 307 314 317 316 315 313 310 307 306 305
286 282 285 279 268 274 278 281 287 288 287 291 293 294 293 294 294 295 296 296 297 297 297 298 299 299 299 300 301 301 302 303 305 304 303 305 303 303 303 303 305 307 311 314 313 312 309 306 304
287 289 282 279 271 269 275 277 280 285 288 290 292 292 293 293 294 295 295 296 296 296 296 297 297 297 298 298 298 299 300 301 302 302 301 302 302 301 300 301 302 302 304 305 307 310 309 307 305
286 284 284 284 280 274 271 277 284 285 290 290 290 293 294 293 294 295 295 295 295 295 296 296 296 297 297 297 297 297 297 298 299 299 301 301 300 300 301 301 301 301 301 302 305 306 306 304 303
286 285 285 280 277 278 278 279 288 291 291 292 292 293 293 296 296 295 295 295 296 296 295 295 295 296 296 297 297 297 297 297 297 297 299 299 299 298 300 299 299 300 302 304 303 303 303 303 300

GFSSGP_sfc_thetae_072.txt.gz
Theta_e
315 309 308 306 296 291 286 289 294 292 293 296 300 300 302 303 301 291 319 327 331 333 339 342 346 347 346 346 346 344 344 343 344 347 347 345 343 341 340 338 338 339 339 338 339 340 338 336 336
311 308 306 298 291 285 286 290 293 294 298 306 303 304 305 302 315 315 321 328 332 336 340 341 344 347 347 346 346 344 343 342 344 347 346 344 342 340 338 337 337 339 338 338 340 340 338 336 335
310 304 300 293 286 286 286 290 293 295 302 297 301 306 307 307 314 318 322 329 333 336 339 341 344 347 346 345 344 343 342 341 344 346 345 343 341 339 337 336 336 338 338 336 339 339 336 335 335
306 303 298 289 285 288 290 291 294 296 295 298 304 302 307 316 319 321 328 330 332 335 339 341 346 345 343 343 341 340 340 340 342 344 344 342 339 337 336 335 335 338 335 335 336 337 336 335 335
301 297 291 288 289 289 292 294 295 295 297 300 302 300 305 317 325 326 328 330 331 334 337 340 345 344 344 343 340 340 340 340 340 343 343 341 337 335 335 335 335 335 335 334 337 337 336 336 336
299 296 289 287 287 291 295 295 295 293 294 298 303 305 309 318 323 325 329 328 332 334 337 339 338 341 342 343 342 341 341 342 341 342 341 339 336 335 335 334 334 334 333 335 338 338 337 337 336
296 292 288 287 288 290 294 297 292 294 293 295 307 303 304 313 323 326 327 328 330 334 336 337 339 338 336 339 339 339 340 340 340 341 340 338 337 335 334 334 333 333 332 334 336 336 336 334 333
296 294 288 288 288 288 292 296 294 296 295 299 305 299 302 316 325 326 327 328 329 333 335 335 335 337 336 336 333 334 336 337 337 337 334 332 332 333 332 330 333 333 332 333 333 334 333 332 330
295 290 287 288 289 291 292 292 293 295 296 297 300 304 305 321 325 325 324 326 328 331 332 333 334 334 334 334 330 330 331 332 331 330 327 324 323 323 323 326 331 334 331 331 332 332 330 327 326
292 289 290 292 291 291 293 292 295 295 296 296 298 303 309 321 323 323 324 325 327 329 330 332 333 333 333 335 331 330 329 327 326 324 323 321 319 319 321 322 327 330 330 331 331 328 323 317 313
291 290 291 292 293 295 295 291 293 294 293 296 297 301 313 316 321 322 323 325 327 330 330 330 333 334 335 335 333 329 327 324 322 321 320 318 316 316 318 319 319 319 318 317 319 314 313 312 311
291 292 292 295 295 294 295 294 291 293 296 294 297 305 313 318 320 322 321 321 323 324 328 328 330 333 334 334 333 334 330 323 321 320 319 316 314 314 314 315 315 315 313 310 309 309 310 310 310
290 291 294 295 295 294 295 292 292 293 295 295 296 309 314 319 320 322 322 319 321 323 325 326 329 332 333 332 333 333 332 327 322 319 319 317 314 313 313 313 313 313 311 309 307 307 308 308 308
292 292 293 293 293 293 292 290 295 294 294 293 298 304 311 316 318 314 317 318 319 324 324 326 328 330 332 332 332 331 332 331 324 320 319 317 316 313 312 311 312 311 310 309 308 307 307 307 307
292 289 289 290 292 292 292 288 291 292 291 292 293 299 305 310 312 317 321 321 321 322 324 325 327 328 330 331 331 331 331 331 329 323 319 318 317 314 312 311 313 312 313 311 310 308 307 306 307
289 286 283 286 291 291 288 284 287 291 292 291 291 292 296 305 310 314 316 318 319 320 322 325 328 328 328 329 330 331 331 330 330 328 322 321 321 319 316 314 314 314 312 311 309 307 305 305 305
285 280 281 283 290 290 287 286 289 291 291 292 291 291 292 294 300 307 312 315 318 320 320 323 326 326 327 328 328 329 329 330 330 329 326 324 322 321 318 316 315 313 311 310 308 305 305 303 301
281 281 281 282 286 289 287 288 290 292 291 292 291 291 291 292 295 298 305 312 316 317 320 323 325 326 327 328 326 326 324 329 329 330 329 325 324 323 320 318 315 313 311 310 308 305 301 302 300
284 282 282 286 288 287 286 287 290 292 290 290 291 291 291 292 294 295 295 300 309 313 316 320 322 324 326 327 327 327 326 327 326 326 328 329 325 325 321 320 316 313 311 310 309 304 300 296 295
285 284 283 286 288 288 285 287 290 291 291 291 291 290 290 290 291 293 294 293 299 307 314 317 322 323 326 327 327 325 327 327 326 325 326 329 329 328 323 321 317 315 313 310 308 304 299 297 296
284 283 283 283 285 284 282 282 283 286 287 289 290 290 289 290 290 291 292 292 292 296 305 314 318 322 325 327 320 315 316 315 317 317 322 325 329 329 326 324 321 316 315 312 309 307 305 299 294
283 287 286 286 283 280 283 277 282 285 287 288 288 288 290 292 293 294 293 292 292 293 295 306 312 316 321 322 321 321 324 323 323 322 317 317 321 327 328 326 323 319 317 316 311 309 307 306 297
285 288 287 284 282 281 281 279 282 282 284 287 291 291 291 291 292 293 294 296 296 295 293 298 306 312 316 321 322 320 318 318 314 312 312 312 313 319 324 326 324 320 318 317 314 309 306 307 304
290 286 285 283 281 276 280 279 280 282 283 285 287 288 291 292 293 294 294 295 296 296 298 301 305 308 313 316 316 316 317 314 309 307 308 309 308 310 313 321 324 322 319 318 316 311 308 307 307
285 282 277 275 275 275 279 278 281 285 287 286 288 289 292 292 292 294 294 295 295 296 296 300 304 306 308 311 312 312 313 312 310 309 308 306 305 305 307 313 319 321 320 318 316 312 309 307 306
284 283 278 273 272 275 280 277 282 286 288 288 290 291 292 293 293 294 295 295 294 295 296 297 299 300 303 305 307 307 308 309 308 308 306 306 306 306 306 306 311 317 319 316 315 312 310 309 306
285 281 284 277 267 273 277 280 284 286 289 290 291 292 292 292 293 294 294 294 295 295 295 295 296 297 297 298 299 300 301 302 304 304 303 304 303 303 303 303 304 306 311 315 315 312 309 307 306
286 288 281 278 269 269 274 276 279 283 287 288 291 291 292 292 293 293 293 294 294 294 294 295 296 296 296 296 296 297 298 298 299 300 300 300 301 300 300 300 301 301 302 305 310 311 311 309 307
285 283 283 282 279 273 270 276 282 287 288 288 289 290 292 292 293 293 294 294 294 294 294 294 294 294 295 295 295 295 296 296 297 297 298 298 298 298 298 299 299 299 300 299 302 305 307 307 306
285 284 283 278 276 276 277 277 286 289 289 290 290 291 291 292 292 293 294 294 294 294 294 294 295 295 294 294 294 295 295 295 295 296 297 297 297 297 298 297 297 298 299 299 299 301 303 303 303

GFSSGP_sfc_thetae_075.txt.gz
Theta_e
318 311 312 308 300 295 292 295 298 298 298 302 307 309 309 309 306 298 325 331 335 339 343 345 346 347 347 346 345 345 346 346 348 348 346 343 341 340 339 340 342 340 338 340 339 337 337 336 336
311 310 309 301 295 290 291 294 296 299 303 309 307 309 308 308 320 319 325 330 337 340 342 343 344 347 347 347 345 345 345 346 348 347 345 343 340 339 338 339 342 340 340 342 339 337 335 335 334
311 306 304 296 290 291 291 294 298 300 307 303 307 310 311 313 320 323 327 332 338 340 342 343 345 348 347 346 345 344 344 345 348 346 344 341 339 338 337 338 341 338 339 340 338 336 334 335 336
307 306 300 294 293 294 295 296 298 301 302 303 308 307 315 322 322 325 330 334 337 339 342 343 346 346 345 344 342 343 342 344 346 345 342 340 337 337 336 338 337 336 337 338 336 335 335 336 335
303 301 295 292 294 295 295 298 299 299 300 304 305 305 314 323 326 328 330 334 336 339 341 345 343 344 344 343 342 342 342 343 345 343 341 339 336 336 335 336 336 334 336 336 337 336 336 337 337
300 298 293 291 292 295 298 298 299 299 299 303 306 310 316 324 325 328 331 333 337 338 341 344 338 340 341 342 342 342 342 343 344 343 340 337 336 335 335 335 334 333 334 338 337 337 337 337 336
299 295 292 291 291 295 298 298 298 298 299 301 310 307 312 321 327 329 330 333 336 338 340 343 343 339 336 338 338 340 341 341 343 342 340 338 337 336 335 336 335 333 335 338 338 337 336 336 335
298 296 292 290 291 293 296 298 298 299 299 306 310 303 310 321 327 328 329 331 334 337 338 340 342 341 341 340 332 334 336 338 338 337 334 332 333 333 332 331 334 333 334 333 336 334 334 333 332
299 293 290 291 291 294 295 297 297 299 300 302 307 307 312 324 327 327 327 328 331 334 336 338 339 340 339 339 333 330 331 332 332 331 327 327 331 330 329 327 332 333 332 333 334 332 330 329 328
295 292 293 294 294 294 295 296 297 298 298 299 301 308 317 324 325 324 324 324 327 329 333 336 337 338 338 337 335 335 333 334 333 331 329 328 327 327 327 325 327 330 329 332 331 328 323 321 324
294 292 294 294 295 296 296 295 297 296 296 299 300 303 317 322 323 324 324 326 327 329 331 333 335 336 337 336 335 334 332 331 330 329 327 324 323 325 327 328 328 329 322 328 325 321 321 320 321
293 293 294 297 296 296 295 295 294 296 299 299 299 306 317 320 322 323 324 326 327 328 329 331 333 333 335 336 334 334 331 329 327 327 325 323 321 323 324 325 325 325 323 321 320 320 319 318 318
293 293 295 296 295 295 296 294 295 295 297 297 299 310 317 321 322 324 326 326 328 327 328 329 332 333 334 334 333 334 332 329 327 325 324 322 320 320 322 323 323 323 320 318 317 317 318 317 317
293 294 295 295 294 294 293 292 294 295 295 296 300 305 312 319 321 320 322 322 324 328 328 330 331 332 333 333 333 333 333 332 327 325 324 322 321 319 320 320 321 320 320 316 316 316 316 316 316
293 291 291 293 293 293 293 290 292 295 293 295 296 300 305 313 318 320 324 324 324 326 328 328 331 331 332 331 332 332 333 332 330 326 324 322 321 319 319 318 319 318 318 316 314 312 312 312 311
289 288 287 289 293 293 290 286 289 293 293 294 294 295 296 304 313 317 320 322 323 324 325 328 330 330 331 331 331 331 331 332 332 328 325 323 322 319 317 316 317 317 316 315 313 311 309 309 308
287 283 283 286 292 291 289 287 291 293 293 293 294 294 293 295 298 308 316 320 322 323 325 326 329 329 330 331 331 331 331 330 331 330 326 324 323 321 318 317 317 316 314 313 312 311 309 308 310
283 282 283 283 288 289 287 289 291 293 292 293 293 293 293 294 296 298 304 314 319 321 323 326 327 329 330 330 330 329 329 329 330 330 329 326 325 322 322 319 317 315 313 313 311 309 308 308 309
284 283 283 285 289 289 287 288 290 292 292 293 293 293 293 293 296 297 297 300 311 317 320 323 324 327 328 328 327 326 325 327 328 328 329 327 326 323 321 320 319 315 313 313 313 311 304 304 302
285 284 284 287 289 288 286 288 290 291 291 292 293 293 292 292 293 294 295 296 299 309 317 320 323 325 327 329 329 329 329 329 329 327 327 329 328 325 322 321 319 317 317 312 310 307 303 305 300
283 284 284 285 286 285 283 284 285 287 288 289 290 290 291 291 292 295 295 296 296 297 307 316 321 324 326 328 327 320 322 321 322 323 326 327 329 329 326 323 323 319 317 316 312 310 309 305 298
283 287 286 286 283 280 284 279 284 286 287 289 291 292 292 293 294 294 296 298 298 297 296 307 315 319 324 326 325 325 325 324 326 326 326 326 326 329 328 326 323 320 318 317 315 312 311 309 302
284 288 286 284 283 282 282 280 284 283 284 288 290 291 292 293 294 295 295 297 298 299 299 298 307 314 319 324 326 324 325 325 321 320 320 320 319 324 327 327 325 322 320 319 318 312 310 310 310
289 286 284 284 282 277 281 279 280 283 284 287 288 291 293 294 294 295 296 297 298 299 302 305 307 311 316 320 320 321 321 319 316 315 316 316 316 316 318 322 324 324 321 319 318 315 311 311 309
285 283 278 277 276 276 279 279 282 285 286 287 289 292 292 293 294 295 295 296 296 297 299 303 307 309 313 316 317 317 318 317 316 316 315 313 313 312 314 315 319 321 321 320 318 316 313 310 310
284 283 279 274 273 276 280 278 283 286 289 288 292 291 293 293 294 294 295 295 295 296 297 298 299 300 303 307 309 310 312 313 314 313 313 312 311 312 312 312 313 317 319 320 318 317 313 312 310
285 281 284 277 267 274 278 281 285 288 289 290 291 292 292 292 293 293 294 294 294 295 295 296 297 297 298 299 300 300 301 303 304 305 306 307 307 306 307 307 307 308 310 314 316 315 313 310 309
285 287 281 278 270 270 274 276 279 286 288 289 290 291 292 293 293 294 294 294 294 294 295 296 296 296 296 297 297 297 298 299 300 300 301 301 302 303 303 303 304 305 305 306 309 311 313 311 310
284 283 282 282 280 274 271 276 282 286 289 289 290 291 292 292 293 294 294 294 295 295 295 295 295 295 295 295 296 296 297 297 298 298 298 299 299 299 300 300 301 301 302 303 303 305 308 308 308
284 284 284 279 276 275 276 278 286 289 289 290 290 291 291 292 292 293 294 294 294 294 294 294 294 294 293 294 294 294 294 295 295 295 296 296 297 297 297 297 298 298 299 300 300 301 302 303 303

GFSSGP_sfc_thetae_078.txt.gz
Theta_e
322 320 324 321 307 307 299 301 308 305 305 308 318 314 312 314 308 304 332 336 340 340 343 347 346 347 345 345 345 347 347 348 347 346 344 341 340 340 340 340 342 342 339 338 338 338 338 336 336
318 317 322 316 305 297 298 303 305 306 308 313 313 313 311 311 324 326 330 336 340 341 344 343 344 347 347 346 345 345 345 347 346 345 343 340 339 339 339 340 341 342 341 339 336 337 334 334 335
316 315 313 309 305 298 298 303 307 307 310 310 311 316 315 315 324 329 334 338 340 341 344 343 345 347 347 346 345 345 346 348 346 344 341 339 338 338 339 340 338 341 340 338 338 334 337 335 334
317 317 310 304 299 300 301 304 306 310 308 308 313 311 321 327 327 331 335 339 339 342 344 344 346 347 346 345 343 343 346 347 345 343 340 338 338 337 338 340 338 338 339 336 335 336 336 336 336
315 314 304 301 299 300 302 305 309 309 307 309 311 308 316 327 330 332 335 338 339 342 344 344 344 344 344 344 342 343 345 346 344 342 339 338 337 336 337 337 336 336 337 337 335 336 337 337 336
308 310 301 298 299 301 304 306 308 306 307 309 310 311 317 330 329 332 335 338 340 341 344 343 337 340 342 342 343 343 344 346 344 341 338 337 336 336 336 335 334 335 338 337 336 336 337 336 335
307 305 301 300 299 301 303 306 306 306 306 308 315 308 318 327 332 333 335 338 339 341 343 343 340 337 335 338 339 341 342 344 343 342 340 338 338 337 336 336 334 337 339 338 338 337 337 335 334
310 308 299 299 298 299 305 305 306 306 305 312 317 307 311 327 332 333 335 336 338 341 342 342 342 338 339 339 332 335 337 339 339 337 334 332 333 333 332 332 334 333 336 337 335 335 335 334 332
307 303 299 299 299 300 303 304 304 306 307 311 314 312 321 332 332 331 331 333 336 338 340 342 341 340 339 339 334 331 332 333 332 331 327 328 333 332 330 329 332 333 331 334 334 332 331 330 328
306 302 302 303 303 302 304 305 305 305 305 306 309 314 327 331 330 328 327 328 332 334 337 339 341 341 340 337 338 337 337 337 337 336 334 332 331 331 329 327 328 329 330 333 331 327 324 326 330
302 301 302 300 302 304 304 303 304 304 302 306 307 311 325 329 328 328 328 329 330 334 336 337 339 340 340 338 338 337 336 337 336 336 333 331 330 330 330 331 331 330 325 330 329 326 328 326 329
300 299 301 302 302 302 303 304 303 304 305 305 308 312 324 327 327 327 328 329 330 333 334 335 337 337 338 338 338 337 335 335 334 334 332 330 328 329 329 329 330 330 329 329 327 326 326 325 325
301 299 301 301 301 301 302 301 302 302 305 304 305 312 320 326 327 329 330 331 332 332 334 333 335 335 336 336 335 336 337 334 334 333 332 330 327 327 328 328 328 328 327 326 325 325 325 324 324
300 301 300 300 300 300 301 300 301 302 302 303 305 310 317 324 327 329 330 330 332 333 333 333 333 335 336 335 335 334 336 336 334 332 331 330 327 327 327 327 326 326 325 324 324 323 323 323 324
300 298 299 299 300 299 300 297 298 302 301 302 303 307 312 320 326 328 330 330 332 334 335 334 334 336 335 334 334 335 335 335 334 333 331 330 328 326 325 326 326 325 325 324 322 321 321 321 321
296 298 295 295 298 299 297 295 296 300 300 301 303 305 305 311 321 327 330 331 333 334 335 336 336 334 334 334 334 334 334 334 333 333 333 330 328 327 324 322 323 324 321 323 321 319 317 319 317
294 292 292 291 297 298 296 296 297 300 300 301 302 303 303 304 307 318 326 330 332 333 334 334 336 335 332 333 333 334 333 333 333 333 332 332 330 328 324 323 321 321 321 318 318 316 316 315 316
289 290 289 291 295 295 295 295 298 300 299 302 303 304 304 304 305 307 310 322 328 331 333 334 334 336 336 333 332 332 332 332 333 332 332 330 330 330 327 326 325 320 319 317 315 315 313 316 313
295 291 291 292 294 294 294 295 298 301 300 302 303 304 304 304 305 303 305 307 316 326 329 331 332 334 335 331 328 328 327 329 330 331 332 331 329 331 328 325 323 321 320 320 318 315 314 312 313
292 291 291 293 294 294 293 295 298 299 299 300 301 302 302 301 302 302 303 303 305 313 323 327 330 332 334 334 331 330 329 329 330 330 331 331 330 330 328 323 322 321 319 319 319 317 315 311 310
291 292 290 292 292 292 291 292 293 293 295 296 298 298 299 300 302 303 303 303 303 305 312 320 326 329 332 333 332 329 327 326 329 329 328 329 329 328 329 327 324 322 320 319 319 316 313 316 313
289 293 293 291 292 289 291 287 293 293 294 297 299 300 300 301 302 303 305 306 306 306 304 312 319 325 329 331 329 326 325 324 327 328 329 329 328 328 328 327 326 326 323 321 320 316 316 314 312
291 293 292 292 292 290 289 288 292 291 293 296 297 299 301 301 302 303 304 305 307 309 307 305 313 319 324 328 329 326 324 326 329 331 330 330 331 330 329 328 326 324 323 321 320 317 315 315 314
293 293 292 292 291 285 288 288 289 291 292 294 296 299 300 301 302 303 304 306 308 313 315 312 312 316 321 325 327 327 324 324 324 326 327 328 328 327 326 325 325 325 323 321 320 320 316 314 313
293 292 285 284 284 283 284 285 291 291 292 294 296 299 300 301 303 303 304 304 305 307 311 316 317 314 317 319 321 321 322 323 322 322 322 322 323 324 324 324 322 323 324 322 320 318 317 314 313
292 291 286 280 279 283 283 284 291 292 293 294 298 299 300 300 301 302 302 303 303 304 306 306 306 306 310 315 315 317 316 318 317 317 317 318 319 319 319 318 319 319 320 319 321 319 318 316 314
290 287 290 283 277 284 286 288 292 293 294 295 297 299 299 300 300 300 301 302 302 303 303 304 304 304 304 305 306 306 307 307 307 308 309 310 310 309 309 311 311 313 313 314 315 316 314 315 314
292 291 286 286 281 280 282 283 289 291 292 295 296 297 298 299 300 300 301 301 302 302 302 303 302 302 302 303 304 304 304 305 305 305 305 305 306 306 306 307 307 308 309 309 310 311 313 313 313
288 287 287 288 286 283 281 285 291 294 296 296 297 298 299 299 300 300 301 301 301 302 302 302 301 301 301 302 302 302 301 302 302 302 302 302 303 302 302 303 303 304 305 306 306 307 307 307 309
289 289 290 286 282 283 283 286 291 295 298 298 297 297 298 300 299 300 300 300 300 300 299 299 299 299 299 299 300 299 299 299 299 298 298 299 299 299 299 299 299 300 301 302 302 303 304 304 304

GFSSGP_sfc_thetae_081.txt.gz
Theta_e
325 322 323 321 307 306 300 303 311 307 308 314 319 314 311 313 309 309 335 338 339 340 342 344 346 346 345 345 347 347 348 347 346 345 342 340 341 340 340 340 343 341 339 339 340 338 337 337 337
321 319 320 314 304 298 298 306 305 308 310 317 315 313 311 313 324 328 331 339 341 339 340 339 344 346 344 344 346 347 347 347 345 343 340 339 340 340 339 342 344 340 338 338 336 336 335 336 337
320 318 312 309 304 299 298 304 308 311 313 313 312 316 314 316 326 330 337 340 339 338 339 342 345 346 345 345 346 346 346 347 344 342 340 339 340 340 340 341 342 341 338 336 337 336 335 336 339
318 318 313 304 300 302 302 306 309 310 310 311 313 310 320 327 329 333 338 339 339 340 340 343 346 346 344 345 345 347 346 345 343 341 339 338 339 339 339 339 340 340 336 335 337 335 336 337 337
317 314 305 302 301 302 305 308 311 309 309 310 311 309 316 327 332 335 337 338 338 340 339 343 345 345 345 344 344 347 347 345 342 339 338 337 338 338 338 337 337 339 336 336 336 338 338 337 336
311 312 302 299 300 303 306 310 311 309 308 310 309 310 318 330 330 334 337 338 341 341 341 341 338 340 342 343 344 346 347 345 343 339 338 337 337 338 335 334 335 339 336 336 336 338 337 336 334
309 306 302 302 301 302 305 310 308 306 307 308 313 308 319 326 331 334 336 338 340 342 340 339 338 337 336 338 340 341 344 343 342 340 339 339 338 338 337 336 337 338 339 338 338 337 337 335 333
311 307 302 303 300 300 307 308 309 308 307 315 316 307 312 327 333 333 335 337 338 339 340 338 337 336 337 338 334 336 339 340 339 336 334 332 333 333 333 332 335 337 338 336 336 336 335 334 331
312 303 301 301 301 302 307 305 308 310 309 312 314 315 321 332 333 331 332 334 336 336 339 340 338 336 337 337 334 332 333 333 331 330 328 328 330 330 331 329 332 333 335 335 333 333 332 330 328
306 303 303 306 305 304 307 307 306 306 307 307 311 320 328 330 330 328 329 330 333 334 335 338 339 337 337 335 336 337 337 337 336 335 332 332 331 330 330 327 327 329 329 333 330 327 327 326 329
306 303 305 304 305 308 306 306 308 306 304 308 308 315 325 327 328 328 328 330 332 335 336 337 338 339 336 336 336 336 336 337 336 336 333 331 330 329 329 331 329 329 324 329 328 325 327 328 327
302 302 304 304 304 306 305 307 305 307 307 309 311 316 324 324 325 327 327 329 331 334 335 337 338 339 338 337 337 336 335 336 335 335 333 331 329 330 330 330 330 331 329 329 328 327 326 326 325
304 302 304 304 303 305 306 305 305 305 308 308 308 314 321 323 325 326 328 330 331 332 335 337 338 337 337 337 338 337 336 335 335 334 333 331 329 329 329 329 329 329 328 327 326 325 325 324 324
304 304 302 303 303 303 303 303 303 305 307 306 308 311 317 321 324 326 326 327 329 332 334 336 337 338 338 335 336 337 338 336 335 334 333 332 330 329 328 329 328 328 327 325 325 324 324 324 325
304 300 301 302 302 301 303 299 301 304 304 305 305 310 313 319 323 325 327 328 330 332 334 335 335 335 336 335 334 335 335 336 335 334 334 332 330 328 327 328 327 327 327 326 324 323 323 322 323
300 301 296 300 301 301 300 298 303 303 302 303 305 307 310 315 320 324 327 329 331 333 334 336 334 333 336 334 334 334 335 335 334 335 335 333 331 329 328 327 327 328 326 325 323 322 320 320 320
297 293 296 295 300 300 298 298 299 302 302 302 304 306 307 309 314 321 326 329 330 332 333 335 337 336 334 335 334 334 334 334 334 334 333 334 332 330 329 326 325 326 325 324 324 321 320 318 319
293 294 295 296 297 297 297 297 300 302 302 303 304 305 306 306 307 311 319 326 330 331 333 334 336 337 335 333 333 333 333 334 334 333 333 332 332 332 330 328 328 326 322 320 319 318 317 315 315
298 296 294 296 296 296 297 297 299 301 301 302 304 305 306 307 309 308 309 312 323 329 330 332 333 335 337 331 330 329 329 331 332 332 333 332 331 330 330 331 328 325 320 319 320 317 315 316 318
296 294 294 295 296 296 296 295 299 300 301 302 304 305 305 305 305 305 306 307 309 317 326 329 331 333 335 336 331 330 330 330 331 332 332 332 332 330 329 329 326 323 321 320 319 317 316 318 319
294 293 293 293 295 296 294 293 297 298 298 299 300 302 302 303 304 306 306 306 308 308 314 323 328 331 333 335 333 330 328 329 328 328 329 330 331 330 329 328 326 325 323 321 320 319 317 314 317
290 295 295 294 293 289 294 288 295 297 296 298 301 302 303 304 305 306 307 308 309 309 309 314 322 327 330 333 332 328 326 325 327 328 329 329 330 330 330 330 328 325 323 320 320 321 318 316 312
293 296 296 295 294 292 291 289 294 294 294 297 300 302 304 305 305 306 307 308 311 312 308 309 316 322 327 330 331 327 325 325 327 327 327 328 328 328 329 329 328 326 326 323 321 320 317 316 314
296 295 295 295 293 285 291 290 292 293 295 297 299 302 303 304 305 305 307 310 313 316 311 310 314 317 322 325 327 327 324 324 324 323 323 324 326 326 325 326 326 324 323 322 321 320 319 317 315
296 292 286 284 284 283 287 287 292 294 297 298 299 301 302 304 305 305 306 307 310 314 317 317 317 317 321 322 323 323 323 323 321 320 320 318 319 320 322 322 322 322 323 323 322 320 319 317 315
293 292 287 280 282 285 285 284 291 296 296 297 301 302 302 302 303 304 304 305 306 307 309 311 313 316 318 317 318 317 319 319 318 318 318 317 317 316 315 314 315 316 317 318 319 317 317 317 316
292 289 293 285 281 285 287 290 295 295 294 297 299 301 301 302 302 303 304 305 305 306 306 307 306 306 307 308 308 308 309 309 309 309 310 309 310 307 308 310 310 310 311 312 312 313 313 315 315
293 294 286 288 282 282 285 287 290 291 293 296 298 300 301 301 302 302 303 304 304 304 305 305 305 305 305 305 305 305 305 306 306 306 305 305 305 305 305 305 306 306 307 308 308 309 310 310 310
289 288 290 290 289 286 282 286 293 295 295 296 298 300 300 301 302 303 303 303 304 304 304 304 304 303 303 303 303 303 302 302 302 301 301 301 302 301 301 301 302 302 303 304 304 305 305 305 306
293 291 291 287 283 285 286 288 293 296 298 300 299 300 301 302 302 302 303 303 302 302 301 301 300 300 300 301 300 299 299 299 299 298 298 299 298 299 299 299 299 299 300 300 300 300 301 301 301

GFSSGP_sfc_thetae_084.txt.gz
Theta_e
331 323 320 316 304 302 297 301 307 306 305 312 313 310 309 313 312 310 332 335 337 338 343 344 346 347 346 347 348 348 349 347 344 341 341 341 341 340 342 341 342 340 339 338 338 338 339 340 342
321 318 316 311 299 293 293 303 303 305 310 312 310 308 308 311 323 326 328 336 339 338 339 341 344 346 346 348 348 347 349 347 343 340 340 341 340 342 344 341 342 338 337 337 336 338 338 340 341
321 317 308 304 300 293 294 301 304 307 310 310 307 311 312 313 325 327 334 337 336 334 338 341 343 345 345 347 347 346 348 346 342 340 340 340 338 339 343 341 339 338 337 338 337 336 339 339 338
315 312 308 298 297 298 298 303 307 305 306 308 308 308 316 323 325 332 336 334 333 334 339 343 345 346 345 347 348 346 347 345 342 340 339 340 339 337 339 341 340 337 337 337 336 337 339 338 337
312 310 300 298 298 299 300 306 306 303 304 306 305 306 313 325 332 334 334 334 334 333 340 342 344 344 345 346 348 346 347 343 340 339 338 339 338 336 336 339 338 336 337 337 339 338 337 336 335
307 307 297 295 296 299 300 305 306 305 304 304 301 310 316 325 329 331 334 334 338 335 339 341 337 340 342 344 345 345 345 343 341 339 337 338 338 336 336 336 339 337 337 337 338 337 336 335 333
306 303 297 297 296 297 301 304 303 302 302 302 306 305 316 321 329 332 332 336 338 338 336 336 336 336 336 338 340 343 343 342 341 340 339 338 338 338 336 338 339 338 338 338 337 336 336 334 332
306 304 298 298 296 297 302 303 303 303 303 309 310 303 309 322 329 331 331 334 338 337 335 332 332 334 334 335 333 335 338 338 338 335 333 331 332 332 332 331 337 338 337 336 336 336 335 333 330
309 298 296 298 297 299 304 300 303 304 305 307 310 314 321 327 328 327 327 329 335 336 337 334 330 331 333 335 330 331 332 332 331 330 328 326 327 327 328 328 331 335 335 334 333 333 332 330 328
302 297 300 303 300 301 303 302 302 300 304 304 309 320 326 326 325 324 325 326 329 333 334 337 336 331 331 334 333 333 333 331 331 329 326 328 325 325 327 323 326 327 330 332 330 327 328 326 323
302 298 303 301 303 305 303 301 303 300 299 304 306 317 322 323 323 324 325 326 328 331 335 336 336 334 332 331 331 331 331 331 331 329 327 326 325 323 325 323 322 321 321 323 325 321 321 322 321
299 300 302 303 302 303 302 303 300 300 299 305 309 319 321 321 322 323 324 325 327 330 331 334 336 335 334 332 330 331 330 331 330 330 327 324 323 322 323 324 323 322 322 322 322 320 320 320 320
299 300 302 302 300 301 304 301 300 300 302 303 309 318 318 319 321 323 324 326 327 328 330 331 334 335 334 334 332 331 330 330 330 329 328 326 323 323 323 323 323 322 322 321 319 319 319 319 319
302 301 300 301 300 300 300 298 298 300 302 302 304 310 316 318 319 320 322 323 325 328 329 332 333 334 335 333 332 331 332 331 329 328 328 327 324 323 323 322 322 321 320 319 319 318 317 317 318
301 296 298 298 300 298 298 296 296 299 301 300 301 304 310 315 319 319 320 321 324 326 329 331 332 334 334 332 333 333 331 333 331 329 329 327 326 323 321 322 321 321 321 319 317 317 317 316 317
297 296 291 297 298 297 297 292 298 299 297 298 299 300 305 312 316 319 321 322 324 325 327 331 332 331 333 332 332 333 333 331 332 331 331 328 327 325 322 320 321 321 320 319 317 316 314 314 313
294 289 291 292 298 297 293 291 295 297 296 295 297 299 304 306 311 315 320 322 324 325 327 329 330 330 332 332 332 332 332 332 332 332 331 331 328 327 323 321 319 319 319 317 317 316 314 312 312
289 290 292 290 294 293 291 291 294 296 297 295 296 297 300 301 306 311 317 321 324 325 327 329 332 331 332 332 331 331 331 331 332 332 331 331 330 329 325 323 321 320 317 316 315 316 315 314 313
294 291 290 291 294 292 292 291 294 296 296 295 296 296 298 300 301 303 307 316 320 323 325 327 329 332 331 330 329 328 328 329 329 330 331 330 330 329 328 326 324 323 318 318 317 316 313 312 313
292 291 289 291 294 292 291 291 294 295 295 296 298 298 298 300 299 301 298 302 304 316 322 324 327 329 331 329 329 329 328 329 330 330 330 330 329 329 327 327 326 322 319 318 317 315 313 313 313
291 291 289 290 291 291 287 286 291 294 296 294 293 294 296 298 298 300 301 299 300 301 306 321 324 326 330 331 328 327 327 326 326 326 327 328 330 329 327 326 326 323 320 319 319 316 315 314 313
288 292 293 291 287 283 288 279 286 289 290 293 294 295 296 298 299 301 301 301 303 303 302 304 318 323 326 329 327 326 324 323 325 326 327 327 328 328 327 326 326 324 322 320 320 319 318 316 313
291 294 293 291 288 286 285 281 285 289 288 291 295 297 297 299 300 302 302 305 306 306 301 301 308 317 323 325 327 325 323 323 323 324 325 325 326 326 327 326 326 325 324 322 321 318 317 317 315
295 293 292 290 288 279 286 283 283 287 289 292 295 297 298 298 299 301 304 308 309 305 302 304 309 313 319 321 323 324 323 322 321 321 321 321 322 323 324 323 323 322 322 321 320 319 318 317 315
292 287 279 278 278 278 283 282 285 288 292 293 294 296 297 298 299 300 301 303 307 309 309 311 312 312 315 316 316 319 321 321 319 317 316 316 316 317 314 314 314 315 316 317 318 317 315 316 315
289 287 281 276 276 278 280 278 285 289 292 294 297 297 298 297 299 299 300 300 301 303 307 311 312 313 314 314 315 317 317 317 315 313 311 308 306 304 304 305 306 306 307 307 308 307 308 310 309
288 285 289 281 274 278 280 284 287 290 290 293 295 296 296 297 297 298 299 300 299 300 301 301 301 302 302 303 303 302 303 303 302 302 302 302 301 302 301 302 301 302 303 304 304 304 304 304 304
289 291 282 283 272 274 279 280 283 286 288 292 294 294 295 296 297 298 298 299 299 299 300 300 300 299 300 300 299 299 299 299 299 298 297 298 298 298 298 298 298 298 299 300 300 300 301 301 301
286 285 285 287 284 278 275 279 285 290 291 292 294 296 295 296 296 297 298 299 299 299 299 298 298 298 297 297 297 296 296 296 296 295 295 295 295 296 295 296 296 296 296 296 296 296 297 297 297
288 287 287 282 279 280 281 281 290 289 293 295 295 296 296 297 297 297 297 298 297 296 295 295 295 295 295 295 294 294 294 294 293 292 293 293 293 294 294 294 294 294 294 295 294 294 294 294 294

GFSSGP_sfc_thetae_087.txt.gz
Theta_e
326 318 313 309 299 296 293 297 303 302 303 306 308 309 311 312 313 306 332 336 339 341 343 344 347 348 347 348 348 349 348 345 342 342 342 341 342 341 340 339 341 341 339 339 340 342 342 343 342
320 316 309 303 295 290 290 297 300 304 306 307 308 308 309 312 322 326 328 337 340 341 342 343 344 347 347 348 348 348 347 345 341 342 341 341 344 342 340 339 341 338 338 339 340 341 342 341 341
318 315 302 298 294 290 292 297 302 305 307 305 304 311 311 316 323 326 335 338 338 338 340 341 344 346 347 348 346 347 346 344 341 341 340 340 343 342 340 338 338 339 338 337 340 340 340 338 338
310 306 302 294 292 293 296 300 302 302 303 305 308 307 314 322 325 330 336 334 335 337 340 342 345 346 347 348 346 346 345 342 340 341 340 339 339 340 339 338 338 339 337 337 339 339 339 336 335
306 303 296 293 293 295 299 303 303 300 301 301 305 308 313 325 331 333 331 333 334 336 339 341 343 345 347 347 346 345 344 341 339 340 340 338 337 338 339 337 337 338 339 338 337 337 336 335 334
301 301 293 290 292 296 298 303 302 300 301 302 309 311 312 327 328 328 332 332 336 337 339 340 336 339 343 345 345 344 343 342 340 339 339 337 336 337 338 338 337 338 338 337 336 336 335 334 332
299 297 292 291 292 295 299 302 300 299 299 300 309 308 314 322 328 330 333 333 336 337 336 335 336 335 335 338 340 341 341 341 340 339 339 338 338 337 339 340 339 339 338 337 336 336 334 332 331
302 299 293 292 293 293 299 299 299 301 301 306 312 307 309 320 328 330 334 333 333 333 333 331 333 334 333 334 333 334 336 338 337 335 333 331 331 332 332 332 338 337 337 337 336 335 333 331 329
303 295 292 294 294 295 299 297 300 302 304 306 311 311 317 327 327 328 331 331 331 331 329 328 329 331 332 332 329 330 331 331 331 329 327 325 325 326 326 328 334 336 334 334 334 333 331 329 327
297 294 296 298 297 297 299 299 299 301 301 302 314 319 323 325 324 322 327 328 328 330 328 328 327 329 332 334 331 331 329 328 327 326 325 325 323 325 325 322 325 330 330 331 330 328 328 325 321
299 295 298 298 300 302 300 298 300 300 297 303 314 317 320 319 320 321 322 328 328 330 333 333 329 329 328 330 329 330 329 327 327 324 324 323 323 323 322 320 320 319 320 322 323 319 320 320 319
296 298 299 301 300 301 300 300 298 298 299 305 319 321 320 319 320 321 321 325 327 329 331 333 333 331 328 328 328 329 328 328 326 325 324 322 319 319 321 320 320 319 319 320 320 318 319 318 318
297 297 300 299 299 300 301 298 298 297 298 307 319 321 319 319 319 321 323 325 327 328 330 330 332 332 332 328 327 328 327 328 328 326 325 323 321 320 321 321 321 320 319 319 318 317 317 317 317
299 299 298 299 297 298 298 295 297 298 298 308 316 316 318 319 320 320 321 323 325 328 329 331 330 334 332 331 330 331 330 328 327 326 325 324 322 321 321 320 320 319 319 318 317 316 316 316 316
298 295 295 296 297 296 298 293 294 298 299 300 305 311 314 317 318 320 322 321 326 327 330 330 331 331 333 332 331 329 330 331 329 326 326 325 323 321 320 320 319 319 319 317 315 315 315 314 314
295 293 289 294 297 297 294 289 295 298 297 296 298 300 308 313 316 317 319 320 323 325 329 331 332 331 333 331 332 330 329 328 328 330 329 325 325 323 319 319 319 319 318 317 315 314 313 312 312
291 285 287 291 296 294 291 289 294 296 296 294 294 296 300 307 311 315 318 319 321 323 326 329 329 329 329 332 332 332 332 329 329 330 330 329 327 325 321 318 318 318 317 316 315 314 312 311 312
286 286 287 288 292 291 289 289 293 296 294 293 292 295 299 303 308 312 317 319 321 322 325 329 329 329 329 331 331 331 331 331 332 331 330 329 330 328 325 321 319 318 316 318 313 314 315 314 313
291 289 289 288 293 291 289 289 292 294 293 293 291 292 296 300 304 308 314 318 319 321 324 328 327 328 328 329 328 328 328 329 329 330 330 330 329 329 327 326 323 322 319 318 317 316 314 313 313
290 289 286 290 292 291 289 290 292 293 293 294 295 293 295 295 296 299 301 305 315 319 321 325 328 328 328 328 329 329 328 328 329 329 329 330 329 329 327 326 325 324 320 317 317 315 313 313 313
289 288 286 287 290 290 287 285 290 293 293 293 294 294 295 296 296 296 299 297 298 301 310 320 325 329 329 328 325 327 327 326 325 325 327 328 329 328 327 326 325 324 321 320 319 317 315 313 313
286 291 291 289 286 283 286 280 285 289 291 292 293 293 294 297 297 298 297 298 299 301 301 302 316 325 329 328 326 326 324 322 324 325 326 327 328 328 327 326 325 324 322 320 319 319 317 315 313
288 292 290 289 287 284 283 280 283 288 287 289 290 293 294 296 299 300 302 304 304 305 300 299 306 317 325 328 328 326 324 322 323 324 325 325 325 325 326 325 325 324 323 321 320 319 317 317 315
293 291 290 288 285 278 282 281 280 284 289 288 291 293 296 297 298 301 304 307 305 301 299 299 309 314 319 326 327 325 322 322 321 320 320 320 321 321 320 321 321 321 320 319 318 317 317 316 315
291 286 278 278 277 277 280 279 283 287 290 291 294 294 295 297 298 299 302 304 305 304 305 308 310 310 313 316 321 322 321 320 318 317 316 315 313 308 307 308 306 306 306 307 307 308 308 308 308
287 285 278 275 275 276 280 279 285 288 290 294 295 295 295 295 297 298 298 299 301 305 306 307 309 309 311 312 311 316 316 314 309 309 306 304 301 300 301 301 301 302 302 302 302 302 302 302 301
286 284 287 280 271 276 278 281 287 288 290 292 293 294 294 295 295 296 297 297 297 298 300 302 303 302 302 302 304 304 303 302 299 299 299 298 298 298 297 297 297 297 298 298 298 298 298 298 298
288 290 282 280 272 272 276 277 281 284 287 291 292 292 293 294 295 295 296 296 296 297 297 298 298 298 298 298 299 298 297 296 296 295 294 294 295 295 294 294 294 294 295 295 295 294 295 295 295
285 282 283 285 280 276 273 278 285 288 288 290 292 293 294 294 294 295 295 296 296 296 296 296 296 296 296 296 295 294 293 293 293 293 292 293 293 293 292 293 292 292 292 292 292 292 293 292 292
286 285 285 280 278 280 278 280 288 287 289 292 293 294 294 295 295 295 295 295 294 294 293 293 294 294 294 294 293 292 292 291 291 290 291 291 290 291 291 290 290 290 290 290 290 290 291 290 290

GFSSGP_sfc_thetae_090.txt.gz
Theta_e
321 314 311 307 297 294 291 296 299 300 303 305 308 312 310 312 311 303 328 335 340 340 343 345 347 348 348 348 347 347 345 344 342 341 343 342 341 340 340 339 341 339 340 340 342 343 344 342 342
317 313 306 300 294 289 289 296 300 302 305 309 310 311 312 311 321 325 329 338 340 340 342 343 345 348 348 347 347 346 345 344 341 341 344 343 341 339 339 338 338 339 339 341 343 341 341 340 339
313 312 300 297 291 289 291 296 301 304 305 304 306 312 314 315 323 325 334 339 339 338 340 341 344 347 348 347 346 345 344 344 343 340 343 344 341 339 338 338 337 337 339 339 340 339 338 337 337
308 304 299 292 290 292 296 300 301 302 302 308 309 308 316 322 325 331 336 337 336 336 339 341 345 347 346 346 346 345 343 343 342 339 340 341 339 337 337 339 336 338 339 338 338 337 336 335 335
303 300 293 291 290 293 297 301 301 300 300 302 307 308 312 324 331 331 333 335 333 334 337 340 344 346 346 346 346 345 343 342 341 339 338 339 339 337 336 338 339 340 337 337 337 335 334 333 332
300 298 290 288 290 296 299 302 301 298 300 308 310 310 311 326 326 329 332 333 335 335 336 338 336 341 343 345 344 343 342 342 342 340 337 337 337 339 337 338 338 339 337 336 335 335 333 332 331
298 295 291 290 290 293 299 301 299 299 299 302 313 307 314 324 326 329 332 334 335 336 334 334 336 337 337 339 339 340 340 340 341 341 339 338 338 339 340 339 339 339 337 336 335 334 332 331 330
301 297 292 290 292 292 297 299 298 299 298 307 315 308 314 323 329 330 332 333 333 333 332 330 331 334 334 336 332 334 336 337 337 335 333 331 332 333 335 334 337 337 337 336 335 333 331 330 328
301 293 290 294 293 295 298 297 298 301 303 307 311 314 319 325 331 330 328 328 329 330 328 329 329 330 331 332 328 329 331 331 330 329 326 324 324 324 326 330 334 335 335 334 333 332 329 327 325
297 293 295 299 296 297 298 298 299 300 300 308 310 316 325 324 329 327 325 324 324 324 325 327 327 328 330 334 329 328 328 327 326 324 323 323 323 323 323 323 328 330 330 331 330 329 327 323 320
297 295 298 298 299 300 299 297 298 300 296 308 311 318 322 322 324 326 326 326 325 325 325 326 326 328 328 329 328 327 325 324 324 323 323 322 322 321 319 318 318 318 319 320 320 318 318 319 317
294 297 298 300 300 300 298 299 297 297 298 309 318 321 322 321 319 324 326 326 326 326 326 326 326 327 327 328 328 327 326 325 323 321 323 320 319 319 318 318 318 317 318 318 318 317 317 316 317
297 296 299 299 299 299 299 297 296 297 297 317 318 320 320 321 319 322 327 327 327 327 328 328 327 327 327 326 327 326 326 326 325 324 322 321 318 318 320 319 318 318 317 318 316 316 316 315 316
299 297 298 299 298 298 297 294 296 296 304 315 317 317 318 320 320 320 322 325 326 328 328 328 328 330 329 326 325 326 326 327 326 324 323 322 320 319 319 318 319 318 318 317 316 315 314 314 314
299 294 294 296 297 296 297 292 294 297 308 314 314 314 317 318 319 320 322 324 327 328 329 328 328 329 330 329 328 330 329 329 325 325 324 323 321 320 319 318 318 318 318 316 314 314 314 313 313
295 293 289 294 296 295 295 290 295 296 304 307 309 310 314 316 318 319 321 322 326 327 328 329 330 329 329 330 330 330 329 327 328 328 325 323 323 321 318 318 318 318 317 316 314 313 312 311 311
292 285 287 290 295 293 291 289 294 295 297 300 301 304 308 311 313 316 320 321 324 327 328 329 329 328 328 328 331 330 329 328 326 326 328 327 326 323 319 317 317 316 316 315 314 313 311 311 313
287 286 287 288 292 291 288 290 291 294 294 294 294 295 298 305 312 315 316 318 322 324 329 329 329 329 327 327 330 330 330 330 330 329 329 328 328 327 323 320 318 317 315 318 314 315 314 314 313
291 289 288 289 292 290 290 290 291 293 290 290 291 292 294 299 307 309 314 316 318 321 326 328 328 327 327 325 327 327 327 328 329 330 330 330 329 329 327 325 323 321 319 316 316 316 314 313 313
290 289 287 288 292 290 288 289 290 290 292 292 293 291 293 297 298 304 310 314 317 320 324 327 327 327 328 327 325 329 328 328 329 329 329 329 329 328 327 326 325 324 321 319 317 316 314 311 313
290 287 286 286 288 289 288 287 287 291 291 292 293 293 292 296 296 297 301 307 310 316 319 325 327 327 328 327 324 326 326 326 325 325 326 328 328 328 327 326 325 324 323 321 320 318 315 314 314
286 290 290 288 286 283 285 280 285 289 290 291 292 293 293 293 293 294 296 296 297 299 301 312 323 326 327 327 325 322 322 322 324 325 326 327 327 327 327 326 325 324 322 321 319 319 317 315 312
289 292 290 288 284 284 281 279 282 285 287 289 292 292 292 294 295 296 297 300 302 303 301 300 312 326 326 326 326 326 324 322 324 324 324 325 324 325 325 325 325 323 321 321 320 319 317 316 314
292 290 288 287 285 278 282 281 280 283 287 289 289 291 293 294 297 299 302 304 303 300 299 298 306 318 326 326 327 326 324 321 321 321 320 320 319 314 314 313 314 312 310 309 309 312 309 309 311
291 288 279 278 278 278 279 278 284 286 288 290 292 292 294 296 297 300 302 303 302 301 301 301 309 311 322 324 325 323 322 322 320 318 317 314 308 305 305 305 302 302 302 302 302 301 301 301 300
288 287 278 275 275 275 280 278 284 287 290 291 292 294 295 295 297 300 302 302 302 303 304 306 308 308 311 315 318 319 317 315 312 309 306 303 302 301 299 298 298 298 298 297 298 297 297 296 296
287 285 286 279 271 276 278 280 286 287 288 290 292 294 294 295 296 297 298 299 301 302 303 304 304 302 303 304 306 306 305 304 302 300 299 298 295 295 295 294 294 294 294 295 294 294 294 293 292
288 290 282 281 274 272 275 276 280 284 287 290 291 293 293 294 295 295 295 296 297 298 298 298 299 298 298 298 299 299 299 298 296 295 293 293 293 293 292 292 292 291 291 291 292 291 292 290 290
285 283 284 284 281 275 272 277 284 287 289 291 292 293 293 293 294 294 294 295 295 295 295 295 295 295 295 295 295 294 293 292 292 292 291 291 291 291 290 290 290 289 289 289 289 289 289 287 287
286 285 285 282 278 278 278 279 285 285 288 291 291 293 293 294 293 293 293 293 293 293 293 293 292 292 292 293 292 291 291 290 290 289 289 289 289 289 288 288 287 287 287 287 287 288 286 286 285

GFSSGP_sfc_thetae_093.txt.gz
Theta_e
319 312 310 307 296 294 290 295 300 299 299 305 310 310 308 311 307 300 327 334 339 338 342 345 348 348 347 346 346 345 344 342 342 342 341 340 341 339 338 338 340 341 340 343 343 342 341 340 340
313 310 306 299 293 289 289 293 298 300 306 313 310 311 311 309 320 324 327 338 338 340 342 342 345 348 347 347 346 345 344 343 344 345 342 340 339 338 337 337 338 341 343 341 341 341 339 338 338
311 308 300 295 290 288 289 296 300 301 308 303 308 313 313 313 321 325 332 338 338 338 340 341 345 348 347 347 345 344 344 344 343 346 343 340 338 338 336 338 338 339 340 339 338 338 338 335 336
307 303 298 292 289 292 294 299 301 300 301 309 311 308 314 321 324 331 337 337 336 336 339 342 345 348 347 346 344 344 343 343 342 342 340 338 337 338 339 336 338 339 338 338 337 336 335 334 334
302 299 292 289 289 292 295 301 300 299 299 303 308 307 310 323 332 334 334 335 333 334 337 340 344 345 346 346 344 344 343 342 340 340 340 337 336 337 338 340 338 337 337 336 335 334 333 332 332
299 297 290 288 289 295 297 300 299 297 302 307 310 309 310 324 328 330 333 332 334 334 336 338 337 341 343 344 343 342 343 342 339 338 338 338 337 338 338 338 338 336 335 335 334 333 332 331 331
297 294 290 289 288 293 298 300 296 299 304 304 313 306 316 319 325 330 331 332 333 334 333 334 337 337 336 338 338 339 341 340 340 338 338 338 339 340 339 339 339 336 335 334 334 332 331 330 330
299 295 290 290 290 293 297 299 299 300 296 311 314 307 314 320 326 330 331 330 330 329 330 330 333 335 335 333 332 333 336 337 337 335 332 331 333 335 335 333 337 337 336 334 333 332 330 330 329
299 292 289 291 291 292 297 295 298 301 302 306 310 313 319 325 328 328 328 328 329 328 326 327 330 331 332 331 327 328 330 331 330 328 325 323 323 325 328 330 334 335 335 333 332 330 328 326 324
296 291 293 296 294 295 297 297 299 301 305 304 307 313 323 325 325 323 323 322 324 323 324 326 326 328 330 332 327 327 326 325 324 323 322 322 321 321 323 324 327 329 330 331 330 329 325 321 318
295 293 297 297 297 298 298 297 299 300 298 307 308 316 321 324 324 323 323 323 323 323 324 324 325 326 328 328 326 324 323 322 322 321 321 321 320 319 318 317 317 317 318 318 318 317 317 317 316
292 296 297 299 299 298 297 298 299 299 299 306 314 322 322 323 323 323 323 323 322 322 322 324 325 325 325 327 326 324 323 321 320 321 321 319 318 317 316 316 315 316 317 316 316 315 316 315 315
296 296 297 297 298 297 298 296 298 297 298 314 318 322 320 322 323 325 326 326 324 322 323 324 324 325 325 325 324 324 323 323 322 321 321 319 318 317 317 316 316 316 316 316 315 314 314 314 314
298 298 297 296 296 297 297 295 296 296 309 313 318 319 320 320 320 321 324 324 324 325 324 325 325 326 325 324 323 324 324 325 324 322 321 320 317 317 318 317 317 317 316 316 315 314 313 313 313
298 294 294 294 295 295 297 292 293 295 312 312 313 316 318 319 318 321 325 325 326 326 327 325 325 326 325 324 325 324 324 326 324 323 322 320 320 318 318 317 316 317 316 315 314 313 312 312 312
294 293 289 293 294 294 294 290 295 299 311 310 311 311 313 315 318 319 323 326 327 327 326 327 327 326 326 326 326 327 326 326 324 324 323 322 321 320 317 316 316 316 316 315 313 312 312 311 310
294 286 286 290 293 292 291 291 295 296 309 309 310 311 313 314 314 317 320 323 326 327 327 326 326 326 326 326 329 330 329 327 326 326 326 325 324 321 317 316 315 315 315 314 315 311 311 311 312
289 286 287 289 292 289 289 289 290 293 302 306 308 307 309 312 316 318 318 320 324 326 327 328 327 328 326 326 327 329 329 329 329 327 328 327 326 325 322 320 317 316 315 317 316 312 315 315 312
289 289 288 289 292 290 290 292 292 291 290 294 296 298 303 308 315 316 317 317 319 323 325 327 327 327 327 323 326 327 327 328 328 329 328 328 328 328 326 324 323 321 319 319 317 316 314 313 312
291 288 288 289 291 290 288 290 290 290 291 293 295 294 297 299 301 307 310 313 315 320 325 326 327 327 328 327 324 325 327 328 329 329 329 329 329 328 327 326 325 323 321 320 318 316 315 313 313
292 287 288 289 289 289 286 287 288 290 289 291 292 291 292 295 300 300 304 310 313 316 322 325 327 327 328 327 323 324 326 326 326 325 326 328 328 328 326 326 325 324 323 321 320 318 316 314 315
289 293 290 288 288 285 286 281 284 288 290 290 291 291 291 292 295 297 301 304 309 314 317 324 326 327 327 326 325 320 320 321 324 325 326 327 327 327 327 326 325 324 322 321 320 319 318 315 312
291 292 290 289 286 283 282 279 282 284 289 289 291 291 291 291 293 296 296 299 298 301 304 314 321 324 326 326 326 323 321 322 324 324 324 325 324 324 324 324 322 320 318 317 317 315 313 313 311
293 291 289 288 285 280 283 281 281 282 286 291 292 293 292 292 292 294 296 300 301 300 299 299 312 323 325 325 325 325 324 321 321 321 321 320 314 311 310 310 309 308 307 305 303 303 302 302 306
291 287 280 279 278 279 279 279 289 284 287 289 293 293 291 293 294 296 300 302 301 300 299 298 301 315 325 325 324 326 325 322 321 321 318 312 307 305 304 304 303 300 299 299 299 298 297 296 295
288 287 280 275 277 279 279 277 283 286 287 289 289 289 291 293 295 297 300 302 302 302 300 299 303 308 322 325 325 321 322 320 317 315 311 305 303 301 300 298 296 295 295 295 295 294 294 292 291
289 285 289 280 272 275 278 281 286 285 287 289 290 290 292 294 295 298 300 301 301 301 301 302 304 308 319 321 319 314 312 310 305 302 302 300 298 296 294 293 292 292 292 292 292 291 289 289 289
290 292 282 281 275 271 275 276 282 283 286 288 289 290 292 294 295 297 298 299 300 300 300 300 301 305 306 307 308 307 303 302 299 299 296 295 293 292 291 290 290 289 289 290 290 288 288 286 286
287 285 285 286 281 276 272 277 283 287 289 288 291 291 292 293 294 295 295 296 297 297 297 297 296 298 299 300 297 296 297 295 295 294 292 290 290 289 289 288 288 287 287 287 287 287 285 285 284
290 288 287 283 278 278 278 279 285 285 286 289 290 291 292 293 294 294 294 294 294 294 294 294 294 293 293 295 295 294 293 292 291 289 289 289 288 288 287 287 286 286 285 285 285 284 284 283 283

GFSSGP_sfc_thetae_096.txt.gz
Theta_e
319 313 308 306 295 293 289 294 298 298 298 305 310 307 309 309 307 300 326 333 337 337 342 344 348 348 345 345 345 345 344 343 342 341 341 340 339 338 339 339 338 344 344 343 342 341 341 340 339
314 311 305 299 292 287 288 292 297 300 306 311 310 311 310 307 318 324 325 337 338 339 341 343 345 347 346 346 345 345 344 344 343 341 339 338 338 337 337 338 345 343 341 342 341 339 339 339 337
312 307 300 294 289 288 289 294 298 303 310 302 308 313 311 312 322 324 331 337 338 337 339 341 345 347 346 345 345 344 344 345 344 341 339 338 337 337 337 337 340 341 339 339 338 337 337 337 336
308 305 298 291 289 291 291 297 299 302 301 309 310 308 313 320 324 330 336 337 335 335 338 341 346 347 346 345 344 343 344 344 342 340 338 339 336 336 338 339 339 339 338 337 337 335 335 335 335
302 299 292 288 288 291 291 299 299 297 299 303 306 306 309 322 331 334 334 335 333 333 336 340 344 345 346 344 344 343 343 342 341 339 336 338 336 337 340 338 337 337 336 335 334 334 333 333 334
300 297 289 287 288 293 296 300 299 297 301 306 310 308 309 325 330 331 332 331 333 333 335 338 337 341 343 343 343 343 342 340 340 339 338 336 338 338 340 337 336 335 335 334 332 332 332 331 331
298 294 289 287 288 293 298 299 296 298 303 304 313 307 315 323 329 330 329 330 332 333 333 335 337 337 335 337 338 340 340 339 339 339 338 339 340 339 339 339 337 335 334 333 332 332 331 330 330
298 295 289 290 289 293 296 298 297 300 298 311 313 306 312 321 328 330 330 331 331 329 332 333 333 335 333 332 331 333 336 337 336 335 332 332 334 334 334 332 337 336 334 333 332 331 330 329 328
298 292 289 291 290 293 295 295 296 300 308 307 311 311 314 324 329 327 325 325 326 328 330 332 333 331 330 329 326 329 331 331 329 327 325 323 324 326 327 330 334 335 334 333 331 329 328 325 324
295 291 293 296 293 293 296 296 297 300 304 305 305 315 321 325 326 322 320 320 322 323 328 331 332 329 328 331 326 325 325 324 323 321 320 321 320 321 324 323 325 328 329 330 330 328 324 320 316
295 293 296 297 296 297 296 294 299 300 299 305 307 314 319 322 322 320 318 320 321 322 324 327 330 330 326 325 323 322 321 320 320 319 320 320 319 317 317 317 316 316 317 316 317 316 316 315 314
294 297 297 298 297 297 295 297 297 300 300 304 311 319 320 320 320 320 318 319 319 321 322 323 326 329 325 324 322 321 320 319 318 319 320 318 317 315 314 314 314 315 316 315 315 314 314 314 314
296 297 297 297 296 296 297 295 296 298 299 310 317 320 320 320 321 322 322 321 320 320 320 321 323 324 324 323 322 321 320 319 319 319 320 318 317 315 315 315 315 315 315 315 314 313 313 313 313
298 299 296 297 295 295 295 292 295 296 310 313 317 318 320 320 321 321 322 321 320 321 320 321 322 324 324 323 322 322 321 321 320 319 319 318 317 316 316 316 316 315 315 315 314 313 312 312 312
301 298 298 296 295 294 294 290 293 295 310 312 314 316 318 320 320 322 323 323 323 322 322 321 322 324 323 324 323 323 323 324 322 321 320 319 317 316 316 315 315 315 315 314 313 312 312 311 311
301 298 292 295 295 294 293 290 294 300 309 309 310 312 315 316 318 321 324 325 325 324 324 323 325 324 323 323 323 323 323 323 323 323 321 320 319 318 316 315 315 315 314 314 313 311 311 310 310
295 293 291 295 295 292 291 290 293 300 307 306 308 308 312 315 314 317 321 325 325 325 325 324 324 324 324 323 324 325 325 325 326 326 323 322 323 321 319 316 315 315 314 314 316 314 310 313 314
290 292 288 293 293 291 288 290 291 293 305 306 308 308 310 312 316 318 319 324 325 326 325 325 325 324 324 323 324 326 325 328 328 327 327 326 325 324 322 320 318 316 316 317 317 315 316 315 315
297 295 293 289 293 290 289 291 294 291 292 301 305 307 309 312 316 317 317 319 321 323 324 325 324 325 324 321 324 326 326 327 327 327 327 327 326 325 324 323 323 321 319 319 318 316 315 311 314
293 292 292 290 291 290 289 289 292 289 291 298 303 304 306 306 307 312 313 314 317 321 324 325 325 325 326 326 325 327 327 327 329 328 328 328 327 327 327 326 324 323 322 321 319 317 316 314 314
292 291 291 288 290 289 287 288 288 289 289 291 292 296 300 305 305 306 308 312 315 317 321 324 326 326 327 327 323 324 326 326 325 325 326 327 328 327 326 326 325 324 323 322 321 319 316 314 314
290 295 292 289 288 286 286 283 287 288 290 289 292 290 293 292 295 301 303 306 311 315 318 323 325 326 327 327 325 324 324 322 322 325 326 326 327 327 327 326 325 324 322 321 319 318 317 315 310
293 294 291 290 286 284 287 280 285 283 287 289 290 290 292 292 293 295 298 304 307 311 316 321 324 325 326 325 326 324 320 319 322 324 324 324 322 323 323 323 321 318 316 314 314 311 308 306 309
295 292 291 289 287 280 285 282 284 286 285 289 292 293 293 291 291 290 293 297 299 301 305 313 320 323 324 324 325 324 322 321 321 321 321 318 314 311 312 310 309 308 307 306 303 301 300 300 298
292 289 281 280 279 279 282 280 287 288 287 291 295 295 293 292 290 290 293 296 299 299 299 301 312 321 323 324 324 324 323 323 322 321 319 312 308 306 305 305 303 301 300 298 297 295 294 293 292
289 290 282 276 276 278 280 279 286 288 288 288 288 289 289 289 291 292 295 297 299 299 299 298 299 311 323 324 324 323 323 323 321 320 317 312 307 303 301 299 297 295 294 294 293 291 290 289 288
288 286 288 280 274 277 280 282 286 286 287 288 289 289 289 290 293 295 297 299 300 300 300 299 298 302 315 323 324 323 321 317 313 309 307 304 301 298 296 295 291 291 291 291 289 288 287 287 286
291 293 285 282 275 273 276 277 285 285 286 287 288 290 291 290 293 295 297 299 299 300 300 300 300 302 308 316 320 316 313 308 306 304 300 298 296 294 293 289 289 288 289 289 287 286 285 285 285
288 287 286 286 280 275 272 277 283 288 289 289 290 292 292 291 293 294 296 298 298 298 298 299 300 304 305 306 306 305 303 302 301 298 296 295 293 291 289 288 287 286 286 286 285 284 284 283 283
290 287 287 284 278 278 278 278 284 285 285 287 289 290 290 291 293 294 294 294 295 295 296 298 298 301 301 301 301 299 298 297 295 294 293 292 290 288 287 286 285 284 284 284 284 283 283 282 282

GFSSGP_sfc_thetae_099.txt.gz
Theta_e
320 313 312 309 300 298 295 298 302 302 303 310 312 312 313 314 311 306 330 336 337 341 345 347 347 346 345 345 345 345 344 343 342 340 340 340 341 342 342 344 346 346 342 341 341 341 340 338 337
313 312 310 303 295 291 293 297 300 303 312 313 312 314 313 314 322 325 329 337 340 342 345 346 345 346 346 345 345 345 346 344 340 339 339 338 340 341 343 343 345 343 342 341 340 340 339 337 336
315 308 305 299 293 292 293 297 302 306 312 307 312 316 316 316 323 327 335 338 341 342 344 345 345 347 346 346 345 346 346 344 341 339 338 338 339 337 338 342 341 340 340 339 338 338 337 336 335
308 307 301 295 294 297 296 300 303 308 307 311 314 313 319 325 326 332 338 340 340 341 343 344 346 347 346 345 345 345 346 344 341 340 339 337 336 338 341 341 340 338 337 337 336 336 337 336 334
306 302 295 293 294 296 296 302 306 303 304 309 311 311 316 327 332 336 337 338 337 339 342 345 344 345 345 344 344 345 344 342 338 338 338 336 338 339 339 339 338 336 336 335 335 334 334 334 333
301 299 292 291 292 296 301 302 302 301 304 310 312 313 317 329 331 334 336 336 337 338 340 343 338 340 342 343 343 343 343 342 340 338 338 338 340 340 337 337 336 336 334 333 333 333 332 332 331
300 297 293 291 292 297 301 301 300 302 306 309 315 311 318 325 331 333 333 335 336 337 339 341 342 339 335 338 338 339 340 340 340 340 339 339 339 340 339 338 336 335 334 333 332 332 331 331 330
300 297 293 292 292 296 300 300 301 305 305 314 316 308 314 324 331 331 332 331 332 335 337 338 340 339 338 338 331 334 336 337 337 335 334 332 333 334 334 333 336 335 333 332 331 331 330 329 329
303 295 292 294 293 296 298 298 300 306 310 311 313 314 319 327 330 328 326 327 328 330 334 336 336 336 335 335 330 330 331 331 329 328 326 327 333 333 333 330 333 334 333 332 331 330 327 324 324
298 294 296 298 296 296 298 299 299 305 307 308 311 318 323 328 327 324 322 320 323 325 331 334 334 333 333 332 332 332 329 329 328 327 328 328 328 330 329 323 323 326 327 329 329 326 323 322 323
298 296 299 299 298 298 298 297 301 303 303 307 309 315 321 324 325 321 320 322 323 325 329 332 333 332 331 329 329 329 328 327 325 325 326 325 324 324 325 325 323 324 319 323 322 322 323 322 321
296 297 297 299 298 297 296 298 299 302 303 306 312 320 321 321 322 321 320 320 322 322 327 330 332 331 329 329 328 327 325 325 324 324 325 325 323 322 322 321 322 324 324 324 324 323 321 321 320
297 298 298 298 298 297 297 297 298 300 301 309 317 320 320 321 322 322 322 321 322 323 326 328 330 331 329 328 327 325 324 324 324 324 325 325 324 322 322 322 323 323 323 323 323 322 321 320 320
299 301 299 300 297 298 296 294 297 298 310 312 317 318 320 321 322 321 321 321 321 322 324 326 328 330 329 328 327 326 324 324 325 325 325 324 324 323 323 323 324 324 324 323 322 321 320 319 319
302 300 303 303 297 297 296 293 294 298 310 311 314 317 319 320 321 322 323 322 322 322 323 323 326 328 328 328 327 326 326 325 325 325 325 324 323 322 323 324 323 324 323 322 321 320 320 320 319
300 299 296 302 297 296 296 291 296 301 309 309 312 314 318 319 321 323 325 325 324 323 322 323 325 326 327 328 327 327 326 327 327 327 326 324 323 322 322 322 323 323 322 322 320 318 320 320 319
295 293 292 296 299 295 294 292 295 300 306 306 310 312 315 318 317 321 325 326 326 325 323 322 325 325 326 326 327 327 327 327 328 328 327 325 323 322 322 321 322 322 322 320 319 319 317 319 321
292 292 293 294 297 292 291 291 294 295 305 304 307 310 313 315 317 320 323 325 326 326 326 324 324 325 326 326 325 327 327 328 329 329 329 326 325 324 323 322 321 320 319 319 320 318 318 320 320
297 295 293 292 294 295 291 291 295 294 298 302 304 308 311 314 319 318 320 323 325 326 326 325 324 325 326 325 324 325 326 328 329 328 328 327 326 325 324 324 323 322 321 321 320 319 317 318 320
297 296 295 295 294 293 295 296 295 291 292 297 303 305 308 310 312 316 317 319 323 325 326 326 325 326 326 327 327 328 329 330 329 329 328 328 327 326 325 325 325 324 323 322 321 320 318 317 317
295 295 294 293 291 291 288 289 293 291 291 291 296 303 306 309 311 312 314 316 319 322 325 325 326 326 327 327 326 326 328 327 326 327 327 328 328 328 327 327 327 326 325 325 323 321 319 316 315
291 295 293 291 290 287 290 281 292 293 291 289 293 292 299 304 306 310 310 313 316 319 323 326 327 327 327 328 326 326 326 323 325 326 328 329 328 328 327 327 327 326 324 322 320 320 319 317 312
294 295 292 291 288 288 286 284 289 290 288 290 291 292 295 297 301 304 306 310 313 317 318 322 325 327 327 328 328 326 326 326 325 325 325 326 325 327 326 326 324 321 319 318 316 313 312 313 312
296 293 291 290 288 281 287 286 286 289 290 291 293 295 295 295 294 297 298 301 305 310 315 319 322 324 327 327 328 327 326 324 323 322 322 321 318 316 317 315 314 312 311 309 307 306 306 305 303
294 291 282 280 280 280 283 283 290 293 289 292 295 294 296 296 294 293 293 294 298 303 310 315 319 321 324 325 326 326 327 325 325 324 321 316 312 310 310 309 306 305 304 302 302 300 298 298 296
291 291 283 278 276 278 280 281 287 293 300 299 292 292 292 293 293 293 294 295 296 299 304 309 315 319 323 325 325 326 326 325 325 323 320 317 315 310 305 302 301 300 298 297 296 295 294 293 293
288 287 289 282 272 275 279 283 288 288 288 288 288 290 292 292 292 294 295 295 297 299 301 303 307 317 322 324 325 324 325 325 322 321 318 312 306 302 300 298 296 296 295 293 292 292 291 291 290
292 292 284 284 278 274 278 278 285 285 287 288 288 290 292 292 291 293 294 296 298 300 300 300 300 305 314 322 323 323 323 321 318 313 308 305 300 298 295 294 293 293 292 290 290 289 289 289 288
289 288 288 286 281 277 273 280 284 290 291 289 291 291 292 293 292 293 296 298 300 300 300 300 300 301 303 312 319 316 313 312 310 308 304 301 297 295 292 292 291 290 289 288 288 288 287 286 287
290 289 288 282 279 278 278 279 286 285 287 288 289 289 292 293 292 293 296 297 298 298 299 299 300 302 303 308 309 308 307 305 304 301 299 297 294 292 290 289 289 288 288 287 287 286 286 286 285

GFSSGP_sfc_thetae_102.txt.gz
Theta_e
323 319 321 319 307 306 302 303 308 307 309 313 317 317 316 319 314 310 336 338 341 343 345 347 347 346 344 345 345 345 344 345 342 342 342 341 343 345 345 346 345 344 341 342 340 339 338 335 334
318 317 320 316 303 299 302 306 305 309 315 318 319 319 318 317 324 327 332 338 341 342 345 346 344 346 344 345 346 345 344 344 341 340 340 341 344 345 344 343 343 341 340 340 339 339 336 334 333
317 314 313 309 304 300 301 305 309 314 315 315 316 321 320 320 325 329 337 340 342 343 344 345 344 346 344 345 345 345 344 342 341 339 340 338 342 342 343 342 341 340 338 338 338 337 336 334 333
315 315 310 303 299 302 302 307 311 313 311 315 318 315 324 329 328 333 338 341 341 341 342 344 345 346 345 345 346 346 344 341 342 339 339 339 339 340 343 340 339 338 337 337 337 337 335 334 332
316 312 304 301 299 302 303 306 312 311 311 315 317 315 319 329 335 336 337 338 337 340 342 345 344 345 345 346 346 345 343 342 341 340 338 338 339 340 340 338 337 336 335 335 334 334 333 333 332
310 310 300 298 300 302 306 309 313 309 312 315 315 317 321 332 332 335 337 338 340 340 341 344 338 341 342 344 344 343 341 341 341 339 340 340 339 338 337 337 336 335 334 333 333 332 332 331 331
308 306 301 300 300 301 306 311 311 310 311 312 320 314 321 327 333 336 337 339 339 339 340 344 343 339 336 338 339 341 341 340 340 340 339 340 340 339 338 337 335 334 333 333 332 331 331 331 329
310 308 300 300 299 300 308 307 309 311 310 320 322 312 316 325 333 336 336 336 336 339 340 342 342 339 338 340 331 333 337 337 337 336 333 332 334 334 334 333 335 334 332 332 332 330 330 329 328
307 303 300 301 299 302 307 305 306 312 314 317 319 317 324 332 332 332 330 330 331 333 339 342 341 338 337 338 333 330 330 330 330 330 327 330 336 336 334 329 333 333 332 331 330 328 326 325 324
305 303 301 304 303 303 306 307 306 309 312 313 315 322 329 330 329 327 326 325 326 329 336 340 336 337 336 335 337 335 333 333 335 336 335 334 334 334 331 324 324 325 327 328 327 325 324 325 326
305 303 303 301 304 303 304 305 308 308 307 311 313 319 325 327 327 326 326 325 327 329 334 338 335 338 334 333 334 334 331 331 332 334 334 334 332 331 332 329 328 328 322 327 327 328 327 326 326
302 301 302 302 302 302 302 304 305 308 308 311 317 323 324 324 325 325 324 327 326 327 333 336 337 336 334 332 331 332 330 329 329 331 331 330 328 327 327 327 329 331 331 330 330 329 327 327 326
303 300 302 301 303 302 302 303 305 306 309 311 319 323 323 324 326 326 328 326 326 324 330 334 336 336 334 331 330 329 329 328 328 330 331 331 329 327 328 329 330 331 331 330 330 329 328 327 326
306 303 304 303 302 301 301 301 302 306 311 313 319 321 324 325 326 325 327 325 323 327 327 331 335 335 334 332 330 328 328 328 329 330 331 330 330 330 330 330 331 331 331 331 330 328 327 327 327
305 302 305 305 304 300 301 301 300 306 312 313 317 321 323 323 326 325 328 326 323 325 329 329 331 332 332 332 331 330 328 328 329 330 331 330 330 328 330 331 331 331 331 330 330 329 328 327 327
302 303 298 304 303 304 303 297 305 305 310 310 315 319 322 323 325 328 329 328 325 324 326 331 331 329 329 333 332 331 330 328 329 330 331 330 329 328 329 330 330 331 330 330 329 327 326 327 327
299 296 298 300 305 306 301 300 304 303 308 309 313 317 320 322 324 328 330 330 328 325 325 326 330 331 333 333 333 333 332 331 332 333 333 332 330 327 327 327 329 329 328 328 326 326 324 325 325
294 295 297 298 301 301 303 301 301 306 304 306 310 315 318 320 322 327 329 331 330 329 326 326 327 328 330 331 332 332 331 331 332 334 332 330 327 326 326 326 326 326 323 323 323 323 326 324 325
303 300 298 301 300 301 301 302 302 306 303 303 307 311 316 319 323 327 329 329 331 332 329 327 325 327 327 327 327 328 328 330 331 334 334 332 330 327 326 326 326 324 323 324 323 323 323 324 325
300 299 299 298 297 300 302 300 306 308 308 305 304 307 312 317 320 324 326 329 330 331 330 330 328 326 328 328 330 331 331 332 333 334 333 331 330 328 326 326 326 326 326 324 323 322 322 321 322
299 298 299 297 296 296 291 295 301 305 309 309 304 305 310 314 317 320 323 326 329 330 330 331 331 329 329 329 331 332 333 333 331 332 330 331 329 329 328 327 328 328 328 328 327 324 321 319 321
292 299 298 293 293 290 295 288 300 302 304 305 302 302 306 311 316 318 321 323 326 329 332 331 332 332 331 331 330 330 329 327 329 331 331 331 331 330 329 329 329 330 329 327 325 324 323 321 318
295 298 296 294 291 290 291 286 297 302 299 303 306 305 304 307 312 316 318 322 325 328 330 332 332 332 333 332 331 331 330 331 332 331 329 329 331 333 332 330 329 328 325 324 321 319 318 319 317
297 294 293 291 289 283 291 290 294 299 299 302 305 304 303 304 306 312 317 320 322 325 327 328 330 331 332 332 332 331 330 331 331 329 326 326 328 326 329 325 324 322 319 318 315 314 316 315 313
296 293 284 282 283 285 288 291 295 302 305 304 304 305 304 304 304 305 309 313 316 319 323 325 327 328 331 332 332 332 332 332 331 330 327 323 320 318 320 319 315 313 311 309 308 310 308 307 303
292 293 287 281 283 287 286 286 294 300 304 305 301 302 304 304 304 304 305 306 310 313 317 320 323 325 329 330 331 332 332 332 332 331 331 327 324 320 316 313 309 307 305 303 304 304 301 300 299
290 289 292 286 279 283 288 291 295 297 297 295 299 304 302 301 301 301 302 303 304 305 310 316 319 322 326 328 330 330 331 331 331 331 332 327 323 312 309 307 304 302 300 299 300 299 296 296 296
295 296 287 288 282 281 288 286 290 295 297 297 296 297 301 304 300 299 300 301 302 304 305 309 316 320 324 327 328 328 328 328 329 329 326 321 314 308 303 301 299 297 297 296 297 296 295 294 293
290 289 290 290 289 284 283 289 296 295 297 296 297 296 297 299 300 300 300 301 302 304 305 306 309 313 320 324 326 326 325 325 325 323 320 317 306 305 300 298 296 294 294 295 294 293 293 292 291
295 292 292 288 284 286 285 288 293 292 292 293 295 296 297 297 299 300 301 302 303 304 305 306 306 308 312 320 322 321 321 318 315 314 311 306 304 301 297 295 294 292 293 293 292 290 290 290 290

GFSSGP_sfc_thetae_105.txt.gz
Theta_e
327 323 322 320 308 307 304 305 309 308 310 314 320 316 316 321 316 312 335 338 342 341 344 344 346 345 342 342 344 346 346 344 343 342 341 344 345 345 344 343 344 343 341 340 338 337 336 335 334
319 319 320 315 305 302 304 308 306 310 315 318 320 319 317 319 327 329 331 339 342 342 343 343 344 345 343 343 345 345 344 343 341 341 340 343 345 345 344 342 343 340 340 339 337 337 335 334 333
318 317 313 309 306 302 303 307 310 314 317 317 317 323 321 322 328 332 336 339 340 341 343 343 344 344 344 344 345 344 343 342 341 341 342 344 343 342 342 341 339 338 337 337 337 336 335 333 332
314 315 312 303 303 307 306 309 313 314 314 318 318 316 325 331 330 334 337 338 339 340 342 342 345 344 344 344 345 344 342 341 340 339 338 339 341 341 340 339 338 337 337 337 336 335 334 333 332
315 313 303 302 304 305 307 309 314 313 313 315 318 315 321 329 335 335 336 340 339 339 342 343 344 345 344 345 345 344 342 341 341 340 340 340 341 340 338 338 337 336 335 335 334 333 333 332 331
307 309 302 300 304 305 307 310 313 314 314 316 315 317 322 332 332 334 337 337 337 337 340 342 338 341 343 344 343 342 342 341 340 340 340 339 339 338 337 336 335 334 334 333 333 333 332 331 330
308 306 303 304 304 303 306 312 313 312 313 314 318 311 324 328 333 335 335 336 337 338 338 341 340 337 337 338 339 340 340 339 339 340 341 340 339 338 337 337 334 334 333 332 331 331 331 330 328
312 308 303 304 303 303 309 312 315 313 312 320 320 310 316 329 333 335 335 334 335 336 338 340 339 337 338 339 332 334 336 336 336 335 334 333 334 334 334 332 334 333 332 332 331 330 330 328 327
312 303 301 303 304 305 310 309 311 315 314 317 320 317 325 333 334 334 331 331 332 334 336 339 338 337 336 336 333 330 330 331 330 330 329 330 334 333 333 329 333 333 332 331 329 327 325 325 325
307 304 304 307 307 305 309 309 309 310 312 313 316 322 330 330 330 329 327 327 327 329 335 338 338 337 334 333 334 333 333 335 333 333 333 333 333 332 330 324 325 327 329 329 327 325 325 325 326
308 304 308 305 307 306 306 309 311 309 308 311 312 319 327 327 327 326 327 329 327 330 334 336 338 337 333 332 332 331 330 332 333 334 334 333 332 331 331 328 328 327 323 327 327 327 327 327 327
304 309 308 304 304 305 304 308 307 309 310 312 315 321 326 324 326 327 327 329 328 328 334 338 338 336 332 332 331 330 328 329 330 332 332 330 328 328 328 327 329 331 331 329 329 328 328 327 327
306 306 304 304 305 305 304 304 305 307 313 313 317 322 324 325 326 330 330 330 330 327 331 335 337 335 332 329 329 329 328 327 329 330 330 329 328 327 328 328 329 330 330 329 329 328 328 327 327
308 308 304 304 306 303 304 305 304 308 312 312 318 321 324 325 325 327 328 329 326 327 329 332 334 335 333 328 328 328 328 328 328 330 331 331 330 329 329 330 330 330 330 330 329 328 328 327 327
307 304 305 304 308 307 305 304 301 308 310 311 315 319 322 325 328 328 329 329 324 326 328 330 332 334 334 330 329 328 327 327 328 329 331 330 330 330 330 330 330 330 331 330 329 328 327 327 327
302 302 298 305 306 307 306 301 308 310 308 309 312 316 320 323 326 328 329 331 325 324 327 330 330 331 331 331 330 329 328 328 329 330 331 331 330 329 329 329 329 330 330 329 328 326 324 325 324
301 296 298 301 307 305 305 302 310 307 306 307 310 314 317 321 324 327 329 331 327 322 325 328 331 331 330 332 331 331 330 328 329 330 331 331 331 330 330 329 329 329 329 329 327 325 326 324 322
296 296 298 298 304 303 303 303 308 309 307 307 308 311 315 318 322 326 329 332 330 324 323 326 330 331 332 334 332 332 331 330 330 331 332 333 332 330 329 328 328 328 328 326 326 324 327 326 325
302 299 298 301 303 303 302 302 306 310 311 309 307 308 310 316 321 325 328 331 331 327 323 324 326 328 330 331 329 329 328 329 330 333 334 333 331 330 329 328 328 328 326 326 325 326 325 326 325
300 299 299 301 301 302 302 302 306 308 310 312 310 310 309 311 318 322 326 329 330 329 327 325 325 325 327 328 329 329 329 330 330 333 334 334 332 331 328 329 327 327 324 325 324 323 324 323 323
301 299 300 299 299 300 299 299 302 307 309 312 313 314 311 310 313 318 323 326 330 330 331 329 328 327 327 327 328 328 331 332 330 331 334 334 332 331 330 327 328 327 326 327 326 325 323 321 321
296 303 303 297 297 292 300 290 301 305 307 309 312 313 314 310 311 316 320 324 328 330 334 334 333 330 329 328 327 328 328 327 330 332 334 333 333 331 330 328 327 327 329 327 328 325 324 321 319
298 303 301 298 294 292 292 288 298 303 302 306 308 312 314 312 311 313 318 323 326 331 332 334 334 334 332 330 328 329 329 331 332 332 332 332 333 333 332 331 330 329 328 327 323 323 321 321 320
300 296 295 292 291 286 294 292 294 299 302 306 308 310 313 312 311 312 317 322 325 329 332 333 333 333 334 332 331 330 330 331 331 331 330 331 331 330 331 331 330 328 325 322 320 318 318 318 318
299 294 286 284 285 286 293 292 295 302 306 307 308 309 311 313 312 311 313 318 321 325 328 330 332 330 332 333 332 331 331 332 331 332 331 330 328 327 327 327 323 322 319 315 313 313 313 314 310
295 296 289 281 283 287 290 288 294 303 306 306 308 308 307 310 309 309 311 315 320 322 325 327 328 328 331 332 333 333 333 333 333 333 332 330 328 326 327 324 321 318 313 309 308 307 306 306 303
291 291 298 288 282 286 290 294 298 301 300 302 302 304 308 306 306 308 309 310 315 319 321 324 325 326 328 330 332 333 333 332 332 333 334 331 330 326 323 320 314 310 307 305 304 301 299 301 300
297 298 288 290 283 282 288 290 292 298 300 302 302 302 304 305 309 306 305 306 308 311 315 319 322 323 325 328 330 331 331 332 332 333 332 330 328 321 317 313 310 304 302 301 300 297 298 297 296
292 291 294 294 292 286 285 290 300 298 295 296 298 299 300 300 302 304 305 305 305 307 308 309 314 318 321 323 326 328 329 330 330 330 330 329 325 316 313 309 306 303 298 298 298 296 296 294 293
297 294 294 288 286 289 288 289 295 296 297 297 297 298 299 300 301 302 303 303 304 305 306 306 308 310 315 320 324 326 328 328 327 326 326 323 318 313 312 306 302 298 296 295 295 294 293 292 291

GFSSGP_sfc_thetae_108.txt.gz
Theta_e
324 318 319 316 306 304 301 302 306 306 306 311 316 316 315 318 316 310 331 339 340 341 342 343 346 344 343 346 347 346 347 346 344 342 344 346 345 343 343 344 344 341 338 338 337 336 335 334 333
319 317 316 312 300 299 300 304 304 309 312 315 316 315 314 316 325 326 327 340 341 340 341 342 343 345 345 346 345 345 345 345 341 342 344 347 345 343 341 341 341 340 338 337 337 336 335 333 332
319 316 308 305 301 298 300 304 308 312 314 313 314 319 320 319 326 328 333 339 339 340 342 341 343 345 345 345 344 344 343 344 343 342 344 344 344 343 341 339 338 338 336 336 336 335 334 333 331
313 313 308 299 300 305 303 306 312 310 310 314 314 315 322 329 327 332 335 338 339 340 340 342 344 345 345 345 344 339 340 341 338 342 343 344 342 341 340 338 337 336 336 335 335 334 333 332 331
313 309 300 298 300 304 304 306 312 309 309 311 312 312 317 328 332 333 335 336 337 338 338 340 343 344 345 345 344 343 342 342 341 341 342 341 341 339 338 337 336 335 335 334 334 334 333 332 331
307 307 298 296 301 304 303 306 307 309 310 312 309 314 319 331 330 331 336 336 336 337 338 339 337 340 343 343 343 342 341 341 341 341 341 340 339 337 337 336 335 334 333 333 333 332 332 331 330
305 304 298 301 301 301 304 307 305 308 308 311 313 309 321 326 331 332 333 333 334 337 338 336 337 336 336 337 338 339 338 339 339 341 340 338 339 338 336 336 334 333 332 332 332 332 331 330 329
307 305 300 301 300 301 306 308 309 309 308 316 314 306 314 325 333 332 333 332 332 335 337 336 334 336 337 335 332 333 335 336 336 336 334 332 333 333 333 331 334 332 332 331 330 330 329 328 327
309 301 298 301 302 302 307 305 307 310 311 310 314 316 323 330 333 330 330 330 330 330 337 336 333 332 334 334 328 329 330 331 331 330 328 328 329 330 329 329 332 332 332 330 328 326 326 327 326
305 301 302 305 303 301 306 305 307 305 307 307 312 321 328 329 330 328 327 326 328 325 334 336 334 332 332 334 332 331 331 330 330 329 328 331 328 326 326 322 326 329 329 329 326 326 326 323 321
305 300 307 303 304 304 305 304 307 304 303 308 310 319 324 327 328 327 327 327 326 326 333 336 335 332 329 328 328 328 328 328 328 328 328 328 326 323 323 320 320 319 320 321 323 323 322 322 321
300 306 308 306 305 304 302 305 303 304 304 307 310 322 323 322 326 326 325 327 326 326 331 335 335 331 327 327 326 324 324 326 326 327 328 325 324 323 322 321 322 322 323 322 322 321 322 321 322
303 305 305 304 303 303 304 301 300 301 306 308 316 321 322 322 325 327 328 328 325 324 329 333 333 331 327 325 325 323 322 323 325 325 326 324 321 320 320 322 323 323 323 323 321 321 322 321 322
308 307 303 302 303 303 303 303 301 302 305 307 316 316 321 322 323 326 326 326 327 326 326 332 334 333 327 323 323 322 322 322 323 324 325 325 323 322 323 323 324 323 323 323 322 322 321 321 321
308 303 304 300 302 304 306 304 304 303 306 305 310 315 318 321 323 324 327 326 326 326 326 328 332 333 329 323 322 322 322 323 322 324 325 325 325 324 324 324 324 324 324 324 323 322 321 321 322
300 300 295 301 302 305 305 297 307 309 301 303 306 310 316 320 323 325 326 327 325 324 324 328 330 331 331 324 323 322 322 322 323 324 326 326 326 325 324 324 324 324 324 323 321 320 319 319 319
298 293 294 298 304 302 302 298 306 311 303 300 303 305 313 317 321 324 326 327 326 321 324 326 328 330 330 328 325 324 323 322 323 325 325 326 326 325 324 324 325 325 323 322 321 318 319 317 317
293 294 297 295 301 301 299 299 304 306 302 301 301 302 305 313 319 322 325 327 328 319 322 325 328 328 328 327 327 325 324 323 323 324 325 326 326 326 324 323 322 323 322 321 319 317 319 321 320
299 297 296 298 303 300 298 300 302 305 305 304 303 302 302 307 316 322 323 325 327 320 318 324 326 327 328 327 325 322 323 324 323 324 326 328 328 326 324 323 322 322 321 320 320 319 319 321 321
300 298 296 299 299 299 299 299 303 304 305 307 308 307 303 304 310 317 321 323 326 322 317 319 326 327 328 328 328 325 325 325 325 325 327 329 327 326 324 323 322 322 319 319 319 319 319 319 319
299 296 296 296 297 298 295 295 299 304 306 307 309 309 309 305 305 312 319 322 325 324 320 319 321 324 326 327 327 324 323 322 323 324 326 329 328 326 324 323 323 322 323 322 321 322 320 317 317
295 302 301 297 295 290 296 288 296 302 302 305 307 308 310 310 305 308 316 320 323 325 326 322 321 322 323 324 323 322 321 320 323 325 327 328 329 327 326 324 323 325 324 323 321 323 322 319 315
296 303 300 298 294 292 292 289 292 300 299 303 307 309 310 311 309 305 311 319 323 325 327 327 324 323 323 323 323 322 321 324 325 327 326 329 328 328 327 326 324 323 324 324 323 321 321 320 317
300 296 295 293 292 286 292 290 291 295 299 301 304 307 307 311 312 308 307 315 320 324 326 327 327 326 325 323 323 322 322 323 325 325 326 327 327 327 327 326 324 324 324 322 322 320 319 318 316
298 294 285 284 284 285 292 290 293 298 301 301 302 304 306 307 311 309 304 308 316 320 324 326 327 327 328 326 324 323 324 325 326 326 326 325 325 325 325 326 325 324 324 322 318 316 315 314 312
295 294 284 279 279 281 285 284 291 302 304 303 303 303 304 301 305 306 305 306 311 318 321 325 326 327 328 329 327 326 326 327 328 328 328 327 326 326 326 326 326 324 320 316 314 311 310 308 304
294 291 295 285 277 280 285 289 295 297 297 298 298 298 300 302 301 300 302 304 309 313 318 322 324 326 327 328 329 328 328 327 328 329 329 329 327 325 323 323 320 314 311 311 309 308 303 301 298
296 297 287 286 277 276 283 284 287 291 294 296 296 296 297 298 298 299 299 300 302 309 314 316 320 322 324 326 328 328 329 329 329 328 328 328 327 323 320 320 315 310 309 307 304 300 299 298 296
292 291 291 291 287 281 278 283 293 293 290 292 293 294 293 293 294 296 297 298 299 300 303 308 313 317 319 321 324 326 327 328 328 328 328 328 325 322 319 315 310 308 305 304 300 297 296 295 293
295 293 292 286 283 285 283 283 290 291 291 293 293 295 294 293 295 296 297 298 297 297 298 299 301 307 312 315 318 320 323 323 325 326 327 324 324 318 315 310 307 304 303 301 298 296 295 293 290

GFSSGP_sfc_thetae_111.txt.gz
Theta_e
324 315 310 310 302 298 294 297 302 303 304 309 313 315 315 317 315 309 332 338 340 341 343 344 345 345 347 347 347 347 347 346 345 346 346 345 344 344 343 341 341 337 337 337 336 335 334 334 333
321 315 310 304 295 295 296 299 302 305 308 313 315 316 316 314 323 324 330 339 340 340 341 340 342 345 346 347 346 346 346 344 345 345 346 344 343 342 341 339 337 336 337 337 336 335 332 332 333
318 313 304 300 295 293 295 301 306 309 312 311 312 319 318 318 323 324 336 339 339 339 340 340 343 345 345 345 345 345 344 344 344 345 346 345 343 340 339 337 337 336 336 336 336 334 332 332 332
309 309 303 297 296 302 299 306 307 307 310 313 315 313 320 326 325 332 338 339 338 338 339 341 344 345 345 344 343 341 343 344 343 346 345 343 342 340 338 337 335 335 335 335 335 334 332 332 332
308 305 296 295 297 301 300 309 309 306 307 308 311 312 315 326 329 333 337 339 336 337 338 340 343 344 345 344 342 340 337 341 342 344 342 341 340 338 337 336 335 335 335 334 334 333 332 331 331
304 302 294 293 298 301 300 305 308 306 307 308 313 314 315 327 327 332 335 336 337 335 338 340 336 339 342 343 342 342 341 342 341 343 342 340 338 337 336 335 334 334 334 334 333 332 331 330 329
301 301 296 296 297 297 301 305 304 306 308 308 312 312 316 322 328 332 332 336 335 336 336 336 337 337 335 337 337 338 339 339 340 341 340 339 338 337 336 335 334 333 332 333 332 331 330 329 328
304 302 298 297 298 297 302 304 305 306 306 312 312 311 314 322 328 330 331 335 335 334 334 333 334 335 333 333 331 332 335 337 337 336 333 332 333 333 333 331 333 333 332 331 330 329 329 327 327
311 297 297 300 299 299 303 302 306 308 310 311 314 315 320 327 329 328 328 330 333 333 332 333 332 333 332 330 327 328 330 331 331 329 327 326 327 328 328 328 332 332 331 329 328 327 327 326 324
307 300 301 307 298 297 303 302 305 305 306 307 316 322 325 326 325 324 325 325 328 330 330 331 330 332 332 332 329 328 328 326 328 327 329 329 327 325 326 324 327 329 329 329 327 327 326 323 319
306 301 305 302 303 302 303 302 304 303 301 307 312 319 323 322 324 326 326 327 326 328 331 331 330 332 330 330 327 326 326 325 326 326 328 327 323 321 320 318 318 317 320 319 322 321 320 320 319
299 307 308 307 304 303 301 301 301 302 302 306 319 323 323 322 325 325 326 326 326 324 330 334 333 330 326 328 325 324 325 324 324 325 325 323 321 320 320 318 318 318 318 319 319 319 320 319 320
304 306 306 305 303 302 302 299 298 298 302 308 322 323 320 321 324 327 328 327 326 324 328 334 334 328 326 324 323 322 321 323 324 324 325 323 320 318 319 319 320 321 321 320 319 319 320 319 320
309 308 306 302 301 302 301 301 301 300 303 313 321 318 318 319 322 325 325 327 326 325 324 333 333 330 327 323 322 320 320 322 322 322 322 322 320 319 319 320 321 321 321 320 320 320 319 319 320
307 303 305 300 299 300 303 299 302 302 304 309 312 317 318 319 320 322 325 327 326 325 325 328 333 330 326 322 321 320 320 321 321 322 323 323 321 320 321 321 321 322 322 322 321 320 318 319 322
300 299 296 304 298 300 302 295 305 308 302 302 307 310 317 319 321 321 325 327 327 325 325 326 331 330 328 321 320 320 320 319 320 322 322 323 323 322 321 321 321 322 322 321 320 318 317 317 317
293 288 291 295 299 299 300 297 305 308 303 300 300 305 313 317 320 321 324 324 324 325 325 326 329 329 331 328 321 320 319 320 320 322 323 323 324 323 321 321 321 322 321 319 319 316 316 315 315
288 290 292 293 298 298 297 298 301 304 301 299 299 300 307 315 319 323 324 326 326 323 325 327 328 328 329 329 324 321 320 320 321 322 324 324 324 323 321 321 321 321 320 319 318 316 316 316 316
295 293 294 296 300 297 295 295 298 302 299 298 298 299 300 311 319 323 324 326 326 319 322 324 325 326 327 325 323 320 319 319 320 323 324 325 324 323 322 321 320 320 319 319 318 316 314 315 319
297 293 292 297 298 297 296 296 301 300 301 302 302 303 301 301 309 319 320 324 325 319 320 322 325 326 327 327 325 323 322 321 322 322 323 325 325 324 323 322 320 320 318 317 317 316 315 316 317
296 294 294 293 295 295 294 293 296 300 302 304 305 306 307 304 302 315 318 321 323 322 316 321 323 325 327 327 326 323 321 320 320 320 323 325 326 325 324 322 321 320 319 318 317 316 316 316 317
292 299 299 295 292 288 295 287 295 298 300 303 305 305 307 307 303 306 318 319 321 323 318 318 323 325 326 327 325 324 322 320 322 323 324 325 326 325 324 323 323 321 321 319 319 319 317 318 314
294 301 298 295 291 292 292 289 291 298 296 299 304 306 307 308 308 305 314 319 322 324 321 317 318 324 325 326 325 324 322 322 322 322 321 324 326 326 325 324 323 322 321 321 320 319 319 320 316
299 295 294 294 293 286 292 290 290 294 296 300 304 305 306 308 309 309 307 318 320 323 324 321 317 318 322 323 323 323 322 320 320 321 322 324 326 326 325 325 323 323 322 321 320 320 321 320 317
297 293 285 285 284 283 292 288 293 297 299 301 301 301 302 303 306 309 305 308 317 320 323 324 321 318 319 320 321 322 321 320 321 322 323 324 325 325 325 324 323 322 322 321 321 320 320 318 316
294 294 284 279 280 283 286 284 291 300 304 304 302 301 302 302 301 305 307 305 315 319 321 323 324 323 322 321 320 321 321 321 322 324 325 325 326 326 327 325 325 323 322 321 320 320 319 315 312
291 291 295 284 273 278 283 287 293 296 299 299 298 297 297 299 301 300 303 302 308 315 319 322 323 325 326 325 324 322 322 321 322 324 326 326 327 326 326 324 324 323 321 320 318 318 314 313 308
295 298 288 287 274 274 280 282 286 290 294 296 295 295 296 296 296 298 298 299 301 309 315 319 323 324 325 326 327 326 324 323 323 324 325 326 326 325 323 322 322 322 318 314 312 309 305 304 300
291 292 291 291 285 279 276 281 291 293 293 292 292 292 291 291 292 294 295 296 297 298 307 312 317 321 322 324 326 326 326 326 325 324 325 326 323 323 321 321 320 317 314 311 311 308 303 302 296
295 293 293 286 282 283 282 282 292 290 290 292 291 294 293 293 293 294 295 296 296 296 296 298 301 309 314 317 321 321 324 324 324 325 325 324 322 323 323 320 317 314 311 309 308 304 302 300 295

GFSSGP_sfc_thetae_114.txt.gz
Theta_e
326 319 309 310 301 297 294 296 299 301 302 309 312 316 315 316 312 306 330 335 337 340 342 342 346 348 347 347 346 346 347 347 346 345 345 344 343 341 339 337 336 337 336 336 335 335 335 335 334
321 315 309 303 296 293 294 298 300 303 307 313 317 316 315 312 321 327 331 338 340 340 340 340 344 347 346 347 346 346 344 346 345 346 344 343 342 340 338 337 336 336 336 336 334 334 334 333 334
313 311 304 299 294 293 294 302 303 307 309 310 313 319 316 316 322 326 335 338 339 338 338 339 343 346 345 346 346 345 345 346 344 345 343 342 340 339 338 335 335 335 336 335 334 334 333 333 334
309 307 302 296 295 298 299 305 306 306 308 313 316 313 319 324 324 332 338 337 337 336 337 340 344 345 344 344 344 345 344 343 344 345 344 341 339 337 336 335 336 335 335 335 334 333 333 333 333
308 303 294 293 296 298 303 307 306 304 306 309 314 312 313 325 329 335 336 337 335 335 337 340 343 344 343 342 342 345 343 345 346 346 343 341 339 337 336 335 335 334 334 334 333 332 332 332 332
303 300 293 293 295 300 300 308 307 305 306 310 314 313 314 324 329 334 337 336 335 335 337 339 337 339 341 341 342 341 341 344 343 344 341 339 337 336 335 334 334 334 334 333 332 331 330 331 331
300 298 294 295 295 296 299 304 304 307 308 308 317 311 315 318 326 335 336 334 334 336 335 334 336 337 335 337 337 339 341 341 342 341 340 339 337 336 335 334 333 333 333 332 331 330 329 329 329
302 301 297 298 298 298 300 303 305 306 306 312 317 310 312 321 326 330 333 331 331 333 333 332 333 334 333 332 330 332 335 337 337 336 334 333 333 333 333 331 333 332 331 331 330 329 328 327 327
308 297 297 300 296 297 301 300 305 307 309 313 316 315 318 325 326 325 330 329 330 330 331 332 331 331 330 329 326 328 331 332 330 329 327 326 326 327 326 327 332 332 331 329 328 327 326 326 324
303 296 300 306 298 295 301 300 304 305 305 308 314 320 322 324 324 322 327 328 328 327 328 331 330 329 329 331 327 326 328 327 326 324 324 326 325 325 326 324 327 329 328 329 327 326 326 322 318
304 300 305 303 302 300 301 300 303 304 302 308 312 317 320 321 321 321 325 329 329 329 328 328 330 330 328 327 325 325 323 323 324 323 326 325 323 320 319 318 320 318 320 318 320 320 319 318 317
299 307 309 310 305 302 299 299 299 301 302 306 316 321 321 320 321 322 323 326 328 329 329 329 328 330 328 327 324 323 323 322 322 323 324 321 319 317 316 315 315 315 317 317 317 317 318 318 318
300 304 310 312 306 301 301 298 298 297 300 310 321 321 320 321 322 322 325 327 328 329 329 332 329 328 327 326 323 322 322 322 322 322 323 321 318 317 317 316 317 317 318 318 318 318 319 318 319
306 306 307 307 302 301 299 299 300 299 303 316 320 318 319 320 320 322 324 326 325 327 330 331 329 328 327 325 322 321 321 322 322 322 323 322 319 318 317 317 319 319 319 319 318 318 318 318 319
306 302 305 307 301 298 302 297 299 300 309 314 315 315 317 319 319 322 324 325 326 327 327 328 332 327 327 324 324 321 320 321 321 321 322 321 319 317 317 318 319 319 320 319 319 318 317 317 321
300 297 292 300 300 300 299 294 302 305 301 308 311 312 315 317 319 321 323 325 326 328 324 327 331 329 325 324 323 322 320 320 321 321 321 321 321 319 319 319 319 320 320 319 318 316 315 314 313
292 288 290 296 300 298 299 296 302 304 304 300 304 309 314 316 317 320 322 325 326 326 324 324 328 329 323 321 322 321 320 319 320 321 321 321 322 321 320 320 320 320 320 319 318 315 314 313 313
286 287 290 292 297 296 296 296 299 302 302 301 298 301 309 315 317 321 322 325 323 325 325 325 327 329 327 324 319 318 318 318 318 321 322 321 322 321 320 320 320 320 318 317 316 315 315 314 312
293 291 291 293 299 294 295 297 297 301 299 298 297 297 300 311 318 321 322 323 324 322 323 323 325 328 328 325 320 317 317 317 318 319 322 322 322 321 319 319 319 319 318 318 317 315 313 313 315
294 290 290 295 297 295 294 294 298 298 298 299 299 298 298 299 311 318 320 321 323 320 323 323 325 327 327 328 325 320 319 317 319 320 320 323 322 322 320 319 319 318 317 316 316 314 313 312 315
294 292 291 292 294 294 291 292 295 298 300 301 302 303 302 302 301 312 318 320 323 322 320 322 324 326 327 327 324 320 319 318 317 316 319 322 323 322 322 321 320 319 318 317 315 315 314 312 314
290 297 297 295 292 286 293 286 293 297 299 300 303 303 304 305 307 305 315 319 321 324 321 321 322 324 326 326 325 323 321 319 321 320 321 321 323 323 323 322 321 321 319 318 317 317 315 314 313
292 298 297 295 292 291 291 288 290 295 295 298 302 305 306 307 307 307 308 318 321 324 322 320 321 322 324 325 325 324 322 323 322 322 320 321 323 324 324 323 322 321 319 319 318 315 316 317 314
298 295 293 290 292 286 290 289 288 293 296 298 301 303 305 305 306 308 307 315 319 322 323 318 318 320 323 324 324 324 323 322 320 319 319 321 322 324 324 323 323 322 321 319 318 318 317 317 317
297 292 284 283 283 282 289 287 291 296 298 301 302 302 301 302 304 306 306 307 316 319 321 320 316 317 322 323 323 323 323 322 321 320 320 320 321 322 324 324 322 322 321 320 320 318 318 317 318
293 292 282 278 278 281 287 285 290 298 303 304 303 301 300 300 301 302 306 304 313 317 320 321 317 316 318 321 322 323 323 322 322 320 321 321 322 323 324 324 324 322 321 320 319 319 318 318 318
291 289 293 283 273 278 283 286 291 295 297 300 300 299 299 298 298 300 300 304 305 315 319 321 321 318 317 317 320 320 321 322 321 321 321 322 323 323 324 323 323 323 321 320 319 318 317 317 317
295 296 288 288 276 274 279 281 287 289 294 298 296 296 296 296 295 295 297 298 300 310 317 320 322 322 321 319 319 319 319 320 321 321 320 321 323 323 322 322 322 322 321 320 319 318 319 316 314
292 291 292 290 283 279 276 281 289 294 296 298 296 294 294 292 292 293 294 295 295 298 308 311 315 318 320 323 324 322 321 320 320 320 320 321 323 323 322 322 322 321 321 321 319 319 317 311 312
295 292 292 286 283 282 281 283 290 289 291 293 292 292 291 292 293 294 294 294 295 295 296 302 309 312 315 317 320 321 324 323 321 320 320 321 322 323 323 322 321 320 321 320 316 316 312 309 308

GFSSGP_sfc_thetae_117.txt.gz
Theta_e
325 316 309 309 301 297 293 296 297 300 302 309 313 312 310 314 308 301 329 334 335 339 342 343 347 348 347 346 347 348 348 347 346 346 344 342 339 338 336 336 335 336 335 335 336 336 335 335 336
313 313 309 301 297 293 295 297 299 302 309 316 315 315 313 310 320 328 330 335 340 339 339 341 345 348 346 346 347 347 348 347 345 344 343 341 339 337 336 335 335 335 334 334 336 335 335 335 334
312 309 304 298 293 293 294 298 301 306 312 309 313 317 313 313 325 327 333 338 338 336 337 339 344 346 346 346 345 346 347 345 345 343 342 340 338 336 335 334 334 335 334 334 335 334 335 335 334
309 308 301 296 293 297 298 302 305 305 306 314 315 311 316 323 324 329 337 337 335 334 336 340 344 345 344 345 345 345 344 345 345 343 341 340 338 336 333 335 333 334 334 334 334 334 334 334 334
308 303 294 292 294 297 301 305 305 304 305 309 312 309 312 323 330 335 334 336 332 333 336 338 342 343 344 344 345 345 345 346 346 344 340 338 336 336 334 334 333 334 333 333 333 333 333 333 333
303 300 293 291 294 298 302 305 304 303 306 311 313 312 315 322 330 331 335 333 334 333 336 338 336 338 340 341 344 343 345 345 345 343 340 338 337 334 334 334 334 334 333 332 332 331 331 332 331
301 297 294 293 295 295 299 305 301 304 306 306 316 309 313 318 328 334 335 335 333 335 334 334 335 335 334 336 336 338 342 342 342 341 340 338 337 336 334 334 334 333 332 331 330 330 330 330 330
301 299 295 294 297 296 299 301 304 306 304 315 316 309 311 320 327 333 333 332 333 332 332 331 332 333 332 331 330 333 335 338 338 336 334 332 333 333 332 331 333 332 331 330 329 329 328 327 328
305 295 294 297 296 297 303 300 304 307 308 313 315 315 316 324 326 330 328 328 329 330 329 330 330 330 330 328 326 328 331 331 331 330 327 326 325 326 325 326 331 332 331 329 328 327 325 325 325
300 295 297 303 298 294 297 300 304 305 305 306 310 318 320 323 322 324 325 324 325 326 328 329 328 328 328 329 325 326 328 326 325 324 324 324 323 322 324 322 327 329 328 329 327 326 325 321 317
302 297 301 302 302 299 298 299 301 303 302 307 309 315 318 318 319 323 326 326 325 326 328 329 327 327 326 326 324 323 324 323 321 321 322 322 322 320 319 319 320 318 319 317 319 319 317 317 316
299 305 306 309 309 306 298 299 298 302 302 305 312 318 319 319 319 321 323 326 326 326 328 328 328 327 325 325 323 322 322 321 320 321 323 321 318 316 315 315 314 314 316 315 316 316 317 316 317
298 300 307 310 310 302 300 298 297 297 298 310 318 319 319 320 320 320 323 326 329 327 328 328 328 328 327 324 323 322 321 321 321 321 322 321 317 315 314 313 313 314 315 316 315 316 317 316 317
303 303 305 306 304 300 298 297 301 298 302 313 317 316 318 320 320 319 321 323 327 328 328 329 327 329 328 326 323 323 322 321 321 321 321 320 319 316 316 315 316 316 317 317 317 316 316 316 317
305 300 303 304 305 301 298 296 298 301 309 312 314 313 315 318 318 321 322 323 325 328 330 330 327 328 326 326 324 323 322 322 321 321 321 321 319 317 317 316 316 318 318 317 317 317 316 316 318
298 295 291 299 303 303 299 294 300 303 308 309 311 311 313 317 318 321 321 322 323 325 327 330 331 327 326 324 323 322 321 321 321 321 321 321 320 318 316 316 317 318 318 317 316 316 314 313 313
291 286 288 295 300 299 298 294 301 302 300 302 307 310 313 315 316 319 320 322 323 324 324 326 331 325 325 325 323 322 320 320 320 320 320 320 320 318 316 317 318 319 318 317 317 315 313 312 312
286 286 289 290 296 294 294 294 298 300 301 301 299 307 311 314 316 320 321 322 323 324 323 324 327 330 324 323 323 319 319 319 319 320 321 320 321 320 318 317 318 318 316 316 315 314 313 312 311
291 290 290 291 298 293 293 296 300 301 298 299 298 297 302 311 317 319 320 321 321 321 321 323 323 327 327 321 317 317 318 317 317 319 320 320 320 319 318 317 317 317 317 316 315 314 313 312 312
292 288 288 293 297 293 293 293 296 298 298 299 300 299 298 298 306 314 319 319 320 321 322 322 323 326 328 327 323 321 319 317 319 318 317 320 320 320 320 318 317 317 316 315 314 313 311 311 312
292 291 289 290 294 292 290 291 295 296 298 299 299 302 302 301 301 303 315 319 320 321 321 322 323 324 327 329 324 319 317 316 314 314 317 319 321 321 320 319 319 318 318 317 315 314 312 310 310
289 295 295 293 291 285 290 283 290 294 297 298 301 302 301 301 302 303 308 317 320 321 323 323 323 324 326 328 325 323 320 316 318 318 318 318 320 321 321 320 319 318 318 317 317 316 315 311 309
292 296 295 294 290 289 288 287 288 293 294 296 300 302 303 304 304 305 303 314 319 322 323 323 323 323 325 326 327 324 323 323 320 318 316 317 318 321 321 321 320 319 319 319 318 314 314 315 312
297 293 292 290 289 283 288 287 287 291 293 296 299 302 304 305 305 306 308 308 315 320 323 323 321 321 324 324 325 324 323 322 320 318 318 318 319 320 321 321 321 320 320 319 318 317 315 316 316
296 290 284 283 282 279 286 285 290 293 295 297 299 301 303 302 304 304 305 304 308 315 320 322 319 319 321 322 323 324 323 323 322 320 319 319 318 319 320 321 321 321 321 320 319 317 316 316 315
293 292 284 277 278 280 284 283 288 296 301 302 301 302 300 300 301 302 304 306 306 313 319 321 319 318 319 321 321 322 323 323 323 323 322 320 321 321 322 322 322 321 321 320 319 318 317 317 316
291 289 292 284 272 276 282 286 291 293 294 298 300 301 300 301 302 301 302 302 304 310 316 319 320 317 318 320 321 321 322 322 322 322 322 322 321 321 320 321 321 322 321 320 319 318 318 317 316
294 296 287 287 278 274 279 280 285 288 292 296 299 298 298 298 298 298 298 299 300 305 313 317 320 318 317 318 321 321 322 322 323 322 320 320 321 320 319 320 320 320 321 320 319 319 319 318 317
292 290 291 290 284 278 276 281 288 292 294 295 297 297 296 296 295 295 295 295 295 299 308 313 316 318 317 316 317 319 319 320 321 321 320 320 320 320 319 320 320 320 320 320 320 319 320 318 317
295 292 292 286 281 283 280 284 290 291 290 291 294 294 293 291 291 291 293 294 294 294 301 308 311 313 315 318 317 316 316 316 316 317 318 318 318 318 320 320 319 320 321 321 320 319 318 317 315

GFSSGP_sfc_thetae_120.txt.gz
Theta_e
325 313 309 308 302 297 293 296 297 299 302 309 313 307 306 309 306 300 326 333 335 338 341 344 347 348 347 348 348 348 348 347 344 343 341 339 337 337 337 335 334 335 336 338 337 335 336 334 334
316 312 309 301 297 293 295 297 298 300 310 314 315 313 310 306 318 326 327 333 338 339 339 342 345 347 346 347 347 347 347 346 344 343 341 338 337 336 336 335 334 334 335 337 335 335 334 335 334
311 309 304 298 294 294 295 297 298 305 314 309 312 316 311 312 324 326 331 337 337 335 337 340 345 347 346 346 346 347 347 346 343 342 340 338 336 335 335 335 334 334 335 335 334 334 335 334 333
309 307 302 296 294 297 298 299 303 306 306 313 314 309 313 320 326 328 336 336 333 333 335 341 345 346 345 345 346 344 345 344 343 341 340 338 335 334 334 334 334 334 334 334 334 335 335 334 333
309 304 297 294 295 297 299 303 305 303 305 308 310 308 309 319 327 333 334 334 331 332 334 338 343 344 345 344 344 344 345 346 343 341 339 337 335 334 334 333 333 333 333 333 334 334 334 334 333
303 301 292 290 294 297 300 305 304 303 305 309 311 311 311 320 330 331 334 331 332 332 335 336 336 339 341 343 344 344 345 345 343 341 338 336 335 334 333 333 333 333 333 333 332 333 333 332 332
300 297 292 291 293 295 300 305 301 302 306 308 315 308 309 322 327 332 331 331 331 333 333 333 333 334 333 337 338 340 342 343 342 341 340 338 336 335 334 334 333 333 332 331 331 331 331 331 330
300 298 292 293 294 295 298 302 303 305 304 314 315 306 306 318 328 331 332 332 332 331 331 330 331 331 329 330 330 333 336 338 338 337 334 332 332 333 332 331 333 332 331 330 330 329 329 329 329
303 294 293 295 293 295 298 300 303 307 308 310 314 311 313 324 330 330 329 330 330 330 329 329 329 328 328 327 325 328 330 331 331 329 327 325 325 324 324 326 331 331 331 329 328 327 326 325 326
301 294 295 301 295 294 297 300 304 305 305 305 308 314 318 324 328 325 324 325 326 326 329 331 328 327 326 328 325 326 327 326 325 324 323 323 322 321 323 322 326 328 328 329 327 326 324 319 316
301 297 299 302 298 299 297 299 301 304 301 305 308 314 317 319 321 323 325 325 324 325 327 329 326 326 325 324 323 324 323 321 321 321 321 321 320 319 318 318 318 316 317 316 318 317 316 316 315
299 304 304 305 307 304 300 299 298 303 304 303 310 316 317 318 319 322 324 325 323 322 325 329 327 325 324 323 322 322 322 320 319 320 320 319 317 315 314 314 314 313 314 314 314 315 315 315 316
298 300 303 307 308 305 301 299 297 297 301 308 313 317 317 319 319 320 324 327 327 323 324 327 327 326 324 322 321 320 320 320 319 319 321 320 317 314 313 313 312 312 313 314 314 314 315 315 315
301 300 302 305 304 302 299 297 299 299 302 310 314 314 315 318 318 316 319 325 326 325 324 327 327 327 325 323 321 321 319 320 319 319 321 320 318 315 313 312 313 313 314 315 315 315 315 315 316
303 299 301 302 303 300 297 296 295 301 305 308 312 311 313 315 317 319 321 322 326 326 326 326 327 328 326 324 322 321 320 320 319 319 320 319 319 316 315 314 314 315 316 316 316 315 315 314 316
296 294 290 299 303 303 296 295 300 301 305 304 309 310 312 314 316 318 320 320 322 325 326 327 328 327 326 326 324 322 321 320 320 320 319 319 319 318 315 315 315 316 317 316 314 314 313 313 312
290 285 287 294 299 300 295 293 300 301 302 303 306 309 311 313 315 317 320 320 321 323 325 326 327 326 326 325 324 323 321 321 321 320 320 320 319 318 316 314 315 316 316 315 315 314 312 311 310
287 287 287 289 294 295 294 294 297 298 298 298 298 303 308 312 315 319 320 320 321 322 322 326 328 326 327 326 324 323 320 319 319 320 321 320 320 319 316 315 315 316 315 315 314 313 311 311 310
290 287 288 289 296 292 292 294 298 301 297 297 298 299 300 309 315 318 318 319 320 320 321 322 324 328 325 324 321 320 319 318 317 319 319 320 320 318 316 315 315 315 316 316 314 313 312 310 310
291 287 286 292 295 293 292 293 297 296 297 300 302 300 301 299 304 313 316 317 319 321 322 322 322 324 326 323 323 320 320 319 320 318 318 319 319 319 319 317 316 315 315 314 313 312 310 310 311
291 293 291 289 293 292 289 289 293 296 296 299 298 302 302 302 300 302 309 316 319 319 321 322 322 323 326 327 323 316 316 314 314 314 316 317 319 319 319 317 318 316 316 316 315 314 311 310 309
289 294 294 292 290 283 288 282 289 292 294 296 299 299 300 302 301 303 301 309 317 320 322 322 323 323 324 327 325 321 320 318 318 319 318 317 318 319 318 319 318 317 317 317 316 316 315 311 311
290 295 293 292 290 287 287 286 287 290 290 294 297 299 301 301 303 302 303 304 313 319 321 322 323 323 323 325 327 323 322 323 321 317 315 316 317 319 319 319 317 318 317 317 317 314 315 314 315
295 292 290 288 289 283 287 285 284 288 290 294 297 299 300 301 303 304 306 304 307 317 320 322 321 322 323 324 325 325 323 323 320 316 316 315 316 317 318 319 319 319 319 318 317 317 315 316 315
293 288 279 282 282 279 284 283 288 291 293 295 297 298 300 300 301 302 304 304 305 310 318 320 321 320 322 323 324 325 324 324 323 321 318 318 316 317 317 318 318 319 319 319 318 316 316 315 315
293 289 281 277 277 278 283 281 285 294 298 299 300 300 300 299 299 301 303 304 304 306 312 317 319 320 321 322 323 324 325 324 324 324 322 320 320 320 320 318 319 319 319 319 318 318 317 317 316
291 288 292 284 271 277 280 284 290 292 294 295 296 298 299 300 300 299 301 301 303 304 306 314 318 319 320 320 322 323 324 324 324 323 323 322 321 321 319 319 319 319 319 318 318 318 317 317 316
294 296 285 287 277 273 279 279 284 287 291 294 295 297 298 296 298 299 299 299 300 301 304 311 317 319 318 319 320 321 322 323 324 323 322 322 322 320 317 317 318 319 319 318 318 319 319 318 317
291 289 290 289 285 277 274 280 287 291 293 293 294 295 295 296 296 296 296 294 294 295 298 307 313 315 314 315 318 319 320 321 321 321 321 321 319 318 317 317 318 318 318 318 319 319 319 318 317
293 290 290 284 280 285 282 284 290 290 290 291 291 292 291 293 292 290 291 292 293 293 294 303 308 312 313 312 312 315 317 317 318 319 320 318 318 317 317 317 317 317 318 319 318 318 318 317 317